[[[{"header":{"parameterUnit":"kt","parameterCategory":2,"dx":1,"dy":1,"la1":29.587661999999998,"la2":31.0,"lo1":-88.76705300000003,"lo2":-86.6583820000003,"nx":115,"ny":88,"refTime":"2022-09-25T06:00:00:Z","depth":0,"parameterNumber":1,"parameterNumberName":"U-component_of_WINDS"},"data":[18.6075,18.7049,18.734,18.7398,18.7456,18.7689,18.7747,18.798,18.8852,18.9158,18.9391,19.0147,18.9856,18.7805,18.7747,18.7921,18.8503,18.8852,18.9143,18.926,18.9914,19.0394,19.0511,19.0031,19.0569,19.0685,19.0729,19.115,19.1499,19.1499,19.1499,19.1499,19.1499,19.1499,19.1499,19.1499,19.1499,19.1499,19.1499,19.1499,19.1499,19.115,19.1267,19.1441,19.1499,19.1499,19.1499,19.1499,19.1499,19.1499,19.1499,19.1499,19.1499,19.1499,19.1499,19.1499,19.1499,19.1674,19.1674,19.179,19.1848,19.2081,19.2081,19.2023,19.2023,19.1964,19.1964,19.1964,19.1906,19.1732,19.1674,19.1557,19.1499,19.1499,19.1499,19.1499,19.1499,19.1499,19.1499,19.1499,19.1499,19.1499,19.1499,19.1499,19.1499,19.1499,19.1499,19.1499,19.1499,19.1499,19.1499,19.1499,19.1499,19.1499,19.1499,19.1499,19.1499,19.1499,19.1499,19.1499,19.1499,19.1499,19.1499,19.1499,19.1499,19.1499,19.1499,19.1499,19.1499,19.1499,19.1499,19.1499,19.1499,19.1499,19.1499,18.4288,18.4563,18.561,18.6118,18.6234,18.7223,18.7631,18.7689,18.7964,18.798,18.798,18.8096,18.8154,18.7805,18.7747,18.7747,18.7747,18.7805,18.7921,18.8096,18.8344,18.8809,18.8751,18.846,18.8635,18.8925,18.9449,19.0321,19.0976,19.0976,19.0976,19.1441,19.1499,19.1441,19.1499,19.1441,19.1092,19.0976,19.0918,19.1208,19.0918,19.0438,19.0554,19.1034,19.1499,19.1499,19.1441,19.1441,19.1441,19.1441,19.1383,19.1441,19.1499,19.1499,19.1499,19.1499,19.1499,19.1499,19.1499,19.1499,19.1499,19.1499,19.1499,19.1557,19.1615,19.1615,19.1615,19.1615,19.1615,19.1557,19.1557,19.1499,19.1499,19.1499,19.1499,19.1499,19.1499,19.1499,19.1499,19.1499,19.1499,19.1499,19.1499,19.1499,19.1499,19.1499,19.1499,19.1499,19.1499,19.1499,19.1499,19.1499,19.1499,19.1499,19.1499,19.1499,19.1499,19.1499,19.1499,19.1499,19.1499,19.1499,19.1499,19.1499,19.1499,19.1499,19.1499,19.1499,19.1499,19.1499,19.1499,19.1499,19.1499,19.1499,19.1499,18.3881,18.3939,18.4505,18.4737,18.4854,18.5319,18.561,18.5726,18.6409,18.625,18.5668,18.561,18.561,18.561,18.561,18.5435,18.561,18.6308,18.6642,18.7049,18.7398,18.7456,18.7747,18.7921,18.7572,18.7805,18.8445,18.8693,18.9143,18.9449,18.9507,18.9274,18.9333,18.9274,18.9274,18.9391,18.9274,18.9449,18.9274,18.9274,18.9201,18.8911,18.9042,18.91,18.9391,18.9333,18.9565,19.0089,19.0263,19.0394,19.1034,19.1267,19.1267,19.1325,19.1441,19.1499,19.1499,19.1499,19.1499,19.1499,19.1499,19.1499,19.1499,19.1499,19.1499,19.1499,19.1499,19.1499,19.1499,19.1499,19.1499,19.1499,19.1499,19.1499,19.1499,19.1499,19.1499,19.1499,19.1499,19.1499,19.1499,19.1499,19.1499,19.1499,19.1499,19.1499,19.1499,19.1499,19.1499,19.1499,19.1499,19.1499,19.1499,19.1499,19.1499,19.1499,19.1499,19.1499,19.1499,19.1499,19.1499,19.1499,19.1499,19.1499,19.1499,19.1499,19.1499,19.1499,19.1499,19.1499,19.1499,19.1499,19.1499,19.1499,19.0918,18.3881,18.3881,18.3881,18.3881,18.3881,18.3881,18.3981,18.3981,18.497,18.4854,18.4039,18.3981,18.3997,18.4272,18.4272,18.4272,18.433,18.5086,18.5319,18.5726,18.6075,18.6292,18.67,18.6308,18.6583,18.6932,18.7223,18.734,18.7689,18.7863,18.7863,18.7863,18.798,18.8154,18.8154,18.8096,18.8096,18.8154,18.7631,18.6948,18.7398,18.7398,18.7572,18.7863,18.7921,18.8096,18.8271,18.8736,18.8925,18.9158,19.0147,19.0554,19.067,19.0859,19.1092,19.1441,19.1499,19.1499,19.1499,19.1499,19.1499,19.1499,19.1499,19.1499,19.1499,19.1499,19.1499,19.1499,19.1499,19.1499,19.1499,19.1499,19.1499,19.1499,19.1499,19.1499,19.1499,19.1499,19.1499,19.1499,19.1499,19.1499,19.1499,19.1499,19.1499,19.1499,19.1499,19.1499,19.1499,19.1325,19.1325,19.1267,19.1325,19.1267,19.1499,19.1499,19.1499,19.1499,19.1325,19.1383,19.1499,19.1499,19.1499,19.1499,19.1383,19.1499,19.1499,19.1383,19.1383,19.1499,19.1499,19.1499,19.1499,19.0554,18.9972,18.3881,18.3881,18.3881,18.3881,18.3881,18.3881,18.3881,18.3881,18.4056,18.4039,18.3981,18.3881,18.3881,18.3881,18.3881,18.3881,18.4098,18.4156,18.4388,18.4156,18.4737,18.4796,18.4737,18.433,18.4912,18.4912,18.5203,18.5959,18.6292,18.67,18.7107,18.7747,18.7456,18.7223,18.7107,18.7107,18.6991,18.6758,18.5784,18.5145,18.5784,18.6176,18.6525,18.734,18.7514,18.7514,18.7572,18.7747,18.7921,18.7921,18.8154,18.8271,18.8736,18.9158,19.0263,19.0729,19.0859,19.0976,19.1092,19.1092,19.1208,19.1441,19.1499,19.1383,19.115,19.1034,19.1325,19.1383,19.1499,19.1499,19.1499,19.1499,19.1499,19.1499,19.1499,19.1499,19.1499,19.1499,19.1499,19.1499,19.1499,19.1499,19.1499,19.1499,19.1499,19.1499,19.1499,19.1499,19.1383,19.115,19.1034,19.0961,19.0729,19.0554,19.067,19.0554,19.0918,19.115,19.1092,19.0976,19.0394,19.0743,19.1383,19.0918,19.0394,19.0859,19.0918,19.0845,19.067,19.0729,19.0685,19.115,19.0569,18.9391,18.8635,18.3881,18.3881,18.3881,18.3881,18.3881,18.3881,18.3881,18.3881,18.3881,18.3881,18.3881,18.3881,18.3881,18.3881,18.3881,18.3881,18.3881,18.3881,18.3881,18.3881,18.4039,18.3881,18.3881,18.3939,18.3881,18.3997,18.4447,18.4796,18.4737,18.5261,18.5494,18.5552,18.5435,18.5377,18.5594,18.5711,18.561,18.5145,18.4737,18.4388,18.4505,18.4737,18.4912,18.5203,18.5261,18.5261,18.5377,18.6292,18.6525,18.6583,18.7572,18.7689,18.7863,18.8096,18.8911,18.9042,18.9391,18.974,19.0205,19.0321,19.0743,19.1208,19.1499,19.1034,19.0627,19.0336,19.0729,19.1019,19.1208,19.1383,19.1441,19.1441,19.1441,19.1441,19.1441,19.1441,19.1441,19.1441,19.1499,19.1499,19.1383,19.1383,19.1383,19.1499,19.1441,19.115,19.1034,19.0976,19.0743,19.0321,18.9972,18.9914,18.974,18.9623,18.9158,18.8969,18.9158,18.9333,18.9682,18.9682,18.9216,18.9216,18.9507,18.9507,18.9449,18.9216,18.91,18.9333,18.9623,18.9042,18.8925,18.91,18.8693,18.7762,18.7297,18.3881,18.3881,18.3881,18.3881,18.3881,18.3881,18.3881,18.3881,18.3881,18.3881,18.3881,18.3881,18.3881,18.3881,18.3881,18.3881,18.3881,18.3881,18.3881,18.3881,18.3881,18.3881,18.3881,18.3881,18.3881,18.3881,18.3939,18.4098,18.3939,18.3939,18.4098,18.3881,18.4272,18.4214,18.4156,18.3939,18.4098,18.4039,18.4098,18.3997,18.4039,18.4098,18.4098,18.4214,18.4272,18.4272,18.433,18.497,18.5203,18.5319,18.6133,18.6583,18.6758,18.7049,18.7223,18.7223,18.7689,18.8038,18.8794,18.9027,18.9274,18.9914,19.0205,18.974,18.9391,18.9143,18.9391,18.9623,18.9856,18.974,18.974,18.974,18.974,19.0031,19.038,19.0496,19.0729,19.0903,19.1499,19.1325,19.0627,19.0511,18.9914,19.0031,19.0205,19.0321,19.0321,19.0147,18.9798,18.8969,18.8503,18.8445,18.8387,18.862,18.8154,18.7747,18.7689,18.7631,18.8096,18.8271,18.8096,18.8038,18.7863,18.8038,18.8445,18.8212,18.7631,18.798,18.8561,18.798,18.7572,18.7223,18.6874,18.6467,18.5943,18.3881,18.3881,18.3881,18.3881,18.3881,18.3881,18.3881,18.3881,18.3881,18.3881,18.3881,18.3881,18.3881,18.3881,18.3881,18.3881,18.3881,18.3881,18.3881,18.3881,18.3881,18.3881,18.3881,18.3881,18.3881,18.3881,18.3881,18.3881,18.3881,18.3881,18.3881,18.3881,18.3881,18.3881,18.3881,18.3881,18.3881,18.3881,18.3881,18.3881,18.3881,18.3881,18.3881,18.3881,18.3881,18.3881,18.3981,18.4098,18.4156,18.4214,18.423,18.4214,18.4505,18.5261,18.5668,18.6192,18.7049,18.734,18.7747,18.7805,18.8038,18.7805,18.782,18.7921,18.7805,18.7805,18.8154,18.8387,18.8736,18.8445,18.8271,18.8329,18.8445,18.8751,18.9216,18.9449,18.974,19.0205,19.0845,19.0685,18.9972,18.9507,18.8867,18.8561,18.8736,18.8678,18.8344,18.8227,18.7588,18.6874,18.6816,18.6758,18.6991,18.734,18.734,18.6991,18.6816,18.6467,18.6816,18.6758,18.7281,18.734,18.6816,18.67,18.7281,18.734,18.6758,18.6816,18.7223,18.7281,18.6874,18.6409,18.5435,18.5028,18.497,18.3881,18.3881,18.3881,18.3881,18.3881,18.3881,18.3881,18.3881,18.3881,18.3881,18.3881,18.3881,18.3881,18.3881,18.3881,18.3881,18.3881,18.3881,18.3881,18.3881,18.3881,18.3881,18.3881,18.3881,18.3881,18.3881,18.3881,18.3881,18.3881,18.3881,18.3881,18.3881,18.3881,18.3881,18.3881,18.3881,18.3881,18.3881,18.3881,18.3881,18.3881,18.3881,18.3881,18.3881,18.3881,18.3881,18.3881,18.3881,18.3881,18.3981,18.3939,18.3939,18.3997,18.433,18.4505,18.4563,18.5145,18.5668,18.6292,18.6525,18.6118,18.561,18.5261,18.561,18.6351,18.6467,18.6874,18.734,18.7805,18.7805,18.7863,18.7921,18.798,18.7921,18.8271,18.8271,18.8503,18.862,18.9042,18.8969,18.8445,18.8329,18.798,18.7689,18.7223,18.6758,18.6351,18.5726,18.5145,18.497,18.4912,18.4912,18.5086,18.5377,18.5552,18.5726,18.5711,18.5319,18.5086,18.4854,18.5377,18.5959,18.5494,18.5203,18.5494,18.5668,18.5435,18.5377,18.5377,18.5435,18.5711,18.5203,18.4214,18.4098,18.4272,18.2544,18.2585,18.3051,18.2992,18.2585,18.2585,18.2585,18.2585,18.2643,18.2818,18.3167,18.3225,18.34,18.3807,18.3881,18.3881,18.3881,18.3881,18.3881,18.3881,18.3881,18.3881,18.3881,18.3881,18.3881,18.3881,18.3881,18.3881,18.3881,18.3881,18.3881,18.3881,18.3881,18.3881,18.3823,18.3881,18.3881,18.3881,18.3823,18.3823,18.3881,18.3881,18.3881,18.3881,18.3881,18.3881,18.3881,18.3881,18.3881,18.3881,18.3881,18.3881,18.3881,18.3939,18.4039,18.3939,18.3939,18.4388,18.4854,18.5145,18.4737,18.433,18.4156,18.4563,18.497,18.5145,18.5552,18.6075,18.6075,18.6133,18.6583,18.6525,18.6642,18.6642,18.7107,18.7107,18.7223,18.734,18.7456,18.7398,18.7165,18.7049,18.6758,18.6351,18.5784,18.5319,18.5145,18.4505,18.4346,18.4056,18.3939,18.3881,18.3881,18.3881,18.3981,18.4505,18.4621,18.4563,18.4272,18.3881,18.3881,18.433,18.4272,18.4505,18.4214,18.3881,18.433,18.4563,18.4098,18.3881,18.4388,18.4214,18.3881,18.3881,18.3881,18.0142,18.0142,18.1405,18.1231,18.0142,18.0026,18.0142,18.0433,18.0375,18.0957,18.1871,18.1887,18.2527,18.3283,18.3183,18.3167,18.3225,18.33,18.34,18.3225,18.3051,18.3516,18.3516,18.3574,18.3458,18.3807,18.3881,18.3881,18.3881,18.3881,18.3881,18.3881,18.3358,18.3241,18.3648,18.3707,18.3707,18.3707,18.3532,18.3358,18.33,18.3225,18.3225,18.3167,18.3125,18.3051,18.3167,18.3225,18.3458,18.3574,18.369,18.3881,18.3881,18.3881,18.3881,18.3881,18.3881,18.3881,18.3939,18.3939,18.4039,18.3939,18.3881,18.4039,18.3939,18.3997,18.4388,18.4737,18.4563,18.4288,18.4114,18.4156,18.4388,18.4679,18.5494,18.5843,18.6075,18.6234,18.6409,18.6467,18.6176,18.5726,18.5377,18.497,18.4505,18.423,18.3997,18.3881,18.3939,18.3881,18.3881,18.3881,18.3881,18.3881,18.3881,18.3881,18.3881,18.3881,18.3881,18.3881,18.3881,18.3881,18.3881,18.3939,18.3881,18.3881,18.3881,18.3881,18.3881,18.3881,18.3881,18.3881,18.3881,18.3881,18.3881,17.9968,18.0026,18.0375,17.9851,17.8863,17.9619,17.9968,17.9968,17.991,18.0259,18.0591,18.0549,18.084,18.1073,18.1247,18.1247,18.1422,18.1364,18.1247,18.1306,18.1364,18.1131,18.148,18.1945,18.2527,18.276,18.3225,18.3749,18.3632,18.3865,18.3648,18.3109,18.2236,18.1538,18.1306,18.1189,18.1131,18.1131,18.1131,18.1131,18.1247,18.1306,18.1306,18.1364,18.1422,18.1422,18.1596,18.2178,18.2469,18.276,18.3167,18.3749,18.3823,18.3881,18.3881,18.3881,18.3881,18.3881,18.3881,18.3881,18.3881,18.3707,18.3765,18.3881,18.3881,18.3881,18.3881,18.3881,18.3881,18.3939,18.3939,18.3881,18.3881,18.3881,18.4679,18.4854,18.5086,18.5203,18.5377,18.5552,18.5028,18.4621,18.4388,18.4447,18.4056,18.3997,18.3881,18.3881,18.3881,18.3881,18.3881,18.3881,18.3881,18.3881,18.3881,18.3881,18.3881,18.3881,18.3881,18.3881,18.3881,18.3881,18.3881,18.3881,18.3881,18.3881,18.3881,18.3881,18.3881,18.3881,18.3881,18.3881,18.3881,18.3881,18.3881,17.8473,17.8473,17.8473,17.8066,17.7368,17.8124,17.8473,17.8473,17.8514,17.8473,17.8473,17.9037,17.9502,17.991,17.9968,17.9968,17.9968,17.9968,18.0084,17.9968,17.9968,17.9968,18.0142,18.0782,18.1173,18.1364,18.1829,18.2411,18.2469,18.212,18.2353,18.212,18.0957,18.0142,17.9968,18.0259,18.02,18.0084,18.0084,18.0026,17.9968,17.9968,17.9968,17.9968,17.9968,17.9968,18.0026,18.0782,18.1015,18.1306,18.1887,18.2062,18.212,18.276,18.2992,18.3034,18.369,18.3865,18.3881,18.34,18.3167,18.3167,18.3632,18.3881,18.3881,18.3881,18.3881,18.3881,18.3881,18.3881,18.3881,18.3881,18.3881,18.3881,18.3939,18.4039,18.4156,18.433,18.4447,18.4737,18.4272,18.3881,18.3881,18.3881,18.3881,18.3881,18.3881,18.3881,18.3881,18.3881,18.3881,18.3881,18.3881,18.3881,18.3881,18.3881,18.3881,18.3881,18.3881,18.3881,18.3881,18.3881,18.3881,18.3881,18.3881,18.3881,18.3881,18.3881,18.3881,18.3881,18.3881,18.3881,18.3881,18.3881,18.3881,17.6106,17.6106,17.6164,17.6223,17.6223,17.6106,17.6164,17.6455,17.6339,17.6339,17.663,17.7368,17.8531,17.927,17.9229,17.9328,17.9561,17.9735,17.9386,17.9444,17.9677,17.9328,17.9386,17.9502,17.991,17.991,18.0491,18.0491,18.0142,18.0317,17.9735,17.9677,17.927,17.9561,17.9444,17.8996,17.9054,17.9112,17.9112,17.9229,17.9328,17.9328,17.9386,17.9444,17.9561,17.9735,17.9677,17.9793,17.9851,17.991,18.0375,18.0549,18.084,18.1422,18.1813,18.1987,18.2585,18.2934,18.2876,18.2236,18.1871,18.2162,18.2585,18.3167,18.3341,18.3632,18.3865,18.3865,18.3881,18.3881,18.3881,18.3881,18.3881,18.3881,18.3881,18.3881,18.3881,18.3881,18.3881,18.3881,18.3881,18.3881,18.3881,18.3881,18.3881,18.3881,18.3881,18.3881,18.3881,18.3881,18.3881,18.3881,18.3881,18.3881,18.3881,18.3881,18.3881,18.3881,18.3881,18.3881,18.3881,18.3881,18.3881,18.3881,18.3881,18.3881,18.3881,18.3881,18.3881,18.3881,18.3881,18.3881,18.3881,18.3881,18.3881,17.6106,17.6106,17.6106,17.6106,17.6106,17.6106,17.6106,17.6106,17.6106,17.6106,17.6223,17.6455,17.6804,17.7077,17.7252,17.7368,17.7193,17.7037,17.7077,17.7077,17.7077,17.7211,17.76,17.8182,17.8531,17.8531,17.9212,17.9619,17.9212,17.8356,17.7368,17.7077,17.7484,17.7368,17.7193,17.7368,17.7426,17.7426,17.7426,17.7368,17.731,17.7211,17.7252,17.7153,17.7095,17.7077,17.7252,17.7891,17.8514,17.8746,17.927,17.9619,17.9735,18.0142,18.0433,18.0649,18.0608,18.1015,18.084,18.0782,18.0549,18.0549,18.0957,18.1655,18.2178,18.2453,18.2685,18.3574,18.3632,18.3648,18.3881,18.3865,18.3865,18.3865,18.3881,18.3881,18.3881,18.3881,18.3881,18.3881,18.3881,18.3881,18.3881,18.3881,18.3881,18.3881,18.3881,18.3881,18.3881,18.3881,18.3881,18.3881,18.3881,18.3881,18.3881,18.3881,18.3881,18.3881,18.3881,18.3881,18.3881,18.3881,18.3881,18.3881,18.3881,18.3881,18.3881,18.3881,18.3881,18.3881,18.3881,18.3881,18.3881,18.3881,18.3823,17.6106,17.6106,17.6106,17.6106,17.6106,17.6106,17.6106,17.6106,17.6106,17.6106,17.6106,17.6106,17.6106,17.6223,17.6106,17.6106,17.6106,17.6223,17.6164,17.6223,17.6223,17.6223,17.6339,17.6804,17.7193,17.7327,17.7891,17.8473,17.7949,17.6804,17.6164,17.6223,17.6164,17.6106,17.6397,17.6164,17.6106,17.6106,17.6106,17.6106,17.6106,17.6164,17.6164,17.6164,17.6223,17.6223,17.6339,17.6961,17.7193,17.7368,17.7775,17.8298,17.8415,17.8863,17.9112,17.9153,17.8746,17.8415,17.8514,17.8921,17.9095,17.9212,17.9735,18.02,18.0782,18.1073,18.148,18.2236,18.2236,18.2469,18.2818,18.2992,18.3341,18.3749,18.3881,18.3881,18.3881,18.3881,18.3823,18.3881,18.3881,18.3881,18.3881,18.3823,18.3707,18.3707,18.369,18.3632,18.3574,18.3516,18.3516,18.3632,18.3574,18.3574,18.3458,18.3458,18.3283,18.3458,18.3458,18.369,18.3807,18.3823,18.3881,18.3881,18.3532,18.359,18.3881,18.3807,18.3632,18.3749,18.3881,18.3881,18.3881,18.3823,18.3283,17.6106,17.6106,17.6106,17.6106,17.6106,17.6106,17.6106,17.6106,17.6106,17.6106,17.6106,17.6106,17.6106,17.6106,17.6106,17.6106,17.6106,17.6106,17.6106,17.6106,17.6106,17.6106,17.6164,17.6106,17.6339,17.6455,17.6397,17.6106,17.6339,17.6397,17.6106,17.6106,17.6106,17.6106,17.6106,17.6106,17.6106,17.6106,17.6106,17.6106,17.6106,17.6106,17.6106,17.6106,17.6106,17.6106,17.6164,17.6223,17.6339,17.6281,17.6223,17.6164,17.6281,17.7252,17.7717,17.7444,17.6862,17.6164,17.6513,17.731,17.7833,17.8008,17.863,17.9328,17.9403,17.9502,17.991,17.9851,18.0142,18.0724,18.1538,18.1696,18.2236,18.2702,18.2876,18.3009,18.3516,18.3109,18.3516,18.3574,18.266,18.2892,18.3167,18.33,18.3474,18.3458,18.34,18.3225,18.3051,18.276,18.2643,18.2469,18.2353,18.2353,18.2294,18.2469,18.2527,18.2818,18.3051,18.3341,18.3458,18.3574,18.369,18.3532,18.2951,18.2834,18.2585,18.2702,18.3167,18.2992,18.2469,18.2818,18.3474,18.3225,18.2585,17.6106,17.6106,17.6106,17.6106,17.6106,17.6106,17.6106,17.6106,17.6106,17.6106,17.6106,17.6106,17.6106,17.6106,17.6106,17.6106,17.6106,17.6106,17.6106,17.6106,17.6106,17.6106,17.6106,17.6106,17.6106,17.6106,17.6106,17.6106,17.6106,17.6106,17.6106,17.6106,17.6106,17.6106,17.6106,17.6106,17.6106,17.6106,17.6106,17.6106,17.6106,17.6106,17.6106,17.6106,17.6106,17.6106,17.6106,17.6106,17.6106,17.6106,17.6106,17.6106,17.6205,17.6339,17.6455,17.6455,17.6281,17.6164,17.6164,17.6571,17.6688,17.6746,17.6844,17.6961,17.7153,17.8066,17.8764,17.9735,17.9851,18.0026,18.0259,18.0375,18.0608,18.0957,18.1073,18.1131,18.1945,18.2411,18.2702,18.2411,18.1439,18.1206,18.1247,18.1422,18.1713,18.1713,18.1771,18.1655,18.1713,18.1538,18.1596,18.1364,18.1306,18.1247,18.1364,18.1596,18.1655,18.1829,18.2062,18.2294,18.2643,18.2934,18.3283,18.3283,18.2643,18.1596,18.0957,18.0724,18.1364,18.1596,18.1015,18.1015,18.148,18.1422,18.1247,17.6106,17.6106,17.6106,17.6106,17.6106,17.6106,17.6106,17.6106,17.6106,17.6106,17.6106,17.6106,17.6106,17.6106,17.6106,17.6106,17.6106,17.6106,17.6106,17.6106,17.6106,17.6106,17.6106,17.6106,17.6106,17.6106,17.6106,17.6106,17.6106,17.6106,17.6106,17.6106,17.6106,17.6106,17.6106,17.6106,17.6106,17.6106,17.6106,17.6106,17.6106,17.6106,17.6106,17.6106,17.6106,17.6106,17.6106,17.6106,17.6106,17.6106,17.6106,17.6106,17.6106,17.6164,17.6164,17.6164,17.6164,17.6106,17.6106,17.6106,17.6106,17.6106,17.6164,17.6106,17.6339,17.6688,17.731,17.7891,17.8124,17.8356,17.9037,17.9095,17.9386,17.9793,18.0084,18.0433,18.0823,18.0998,18.1247,18.1422,18.0608,18.0026,17.9735,17.9677,17.991,17.9968,18.0084,18.0142,18.0259,18.0375,18.0549,18.0491,18.0549,18.0549,18.0608,18.0608,18.0666,18.0608,18.0724,18.0957,18.1189,18.1306,18.1713,18.2062,18.1596,18.0549,17.9968,17.9619,17.9851,18.0142,18.0026,17.9968,17.991,17.9793,17.9735,17.6106,17.6106,17.6106,17.6106,17.6106,17.6106,17.6106,17.6106,17.6106,17.6106,17.6106,17.6106,17.6106,17.6106,17.6106,17.6106,17.6106,17.6106,17.6106,17.6106,17.6106,17.6106,17.6106,17.6106,17.6106,17.6106,17.6106,17.6106,17.6106,17.6106,17.6106,17.6106,17.6106,17.6106,17.6106,17.6106,17.6106,17.6106,17.6106,17.6106,17.6106,17.6106,17.6106,17.6106,17.6106,17.6106,17.6106,17.6106,17.6106,17.6106,17.6106,17.6106,17.6106,17.6106,17.6106,17.6106,17.6106,17.6106,17.6106,17.6106,17.6106,17.6106,17.6106,17.6106,17.6106,17.6223,17.6455,17.6455,17.6455,17.667,17.7659,17.7775,17.8298,17.888,17.9095,17.9212,17.9502,17.9386,17.927,17.9287,17.9386,17.9095,17.8688,17.8473,17.8415,17.8298,17.8356,17.8415,17.8473,17.8647,17.8996,17.927,17.9502,17.9561,17.9561,17.9386,17.9212,17.9095,17.9328,17.9502,17.9677,17.9735,17.9502,17.9403,17.9054,17.888,17.8979,17.8979,17.8863,17.8415,17.8822,17.9171,17.8705,17.824,17.8182,17.6106,17.6106,17.6106,17.6106,17.6106,17.6106,17.6106,17.6106,17.6106,17.6106,17.6106,17.6106,17.6106,17.6106,17.6106,17.6106,17.6106,17.6106,17.6106,17.6106,17.6106,17.6106,17.6106,17.6106,17.6106,17.6106,17.6106,17.6106,17.6106,17.6106,17.6106,17.6106,17.6106,17.6106,17.6106,17.6106,17.6106,17.6106,17.6106,17.6106,17.6106,17.6106,17.6106,17.6106,17.6106,17.6106,17.6106,17.6106,17.6106,17.6106,17.6106,17.6106,17.6106,17.6106,17.6106,17.6106,17.6106,17.6106,17.6106,17.6106,17.6106,17.6106,17.6106,17.6106,17.6106,17.6106,17.6106,17.6106,17.6164,17.6281,17.6339,17.6571,17.6688,17.6804,17.6844,17.7252,17.7833,17.7368,17.7135,17.6978,17.7368,17.7542,17.731,17.7368,17.6961,17.667,17.663,17.6571,17.6571,17.6688,17.7037,17.731,17.76,17.7717,17.7659,17.7542,17.7368,17.7426,17.7775,17.8066,17.8356,17.8531,17.8531,17.7775,17.7252,17.6978,17.7077,17.7484,17.7426,17.6786,17.6961,17.76,17.7368,17.6746,17.6688,17.5507,17.6106,17.6106,17.6106,17.6106,17.6106,17.6106,17.6106,17.6106,17.6106,17.6106,17.6106,17.6106,17.6106,17.6106,17.6106,17.6106,17.6106,17.6106,17.6106,17.6106,17.6106,17.6106,17.6106,17.6106,17.6106,17.6106,17.6106,17.6106,17.6106,17.6106,17.6106,17.6106,17.6106,17.6106,17.6106,17.6106,17.6106,17.6106,17.6106,17.6106,17.6106,17.6106,17.6106,17.6106,17.6106,17.6106,17.6106,17.6106,17.6106,17.6106,17.6106,17.6106,17.6106,17.6106,17.6106,17.6106,17.6106,17.6106,17.6106,17.6106,17.6106,17.6106,17.6106,17.6106,17.6106,17.6106,17.6106,17.6106,17.6106,17.6106,17.6106,17.6164,17.6106,17.6164,17.6339,17.6746,17.6513,17.6106,17.6106,17.6106,17.6106,17.6106,17.6455,17.6281,17.6339,17.6281,17.6281,17.6106,17.6106,17.6106,17.6106,17.6106,17.6106,17.6106,17.6106,17.6106,17.6455,17.6862,17.7135,17.731,17.7484,17.7659,17.7193,17.663,17.6164,17.6106,17.6106,17.6339,17.6223,17.6223,17.6164,17.6223,17.6339,17.6281,17.4442,17.5333,17.5333,17.5333,17.5391,17.5623,17.5681,17.574,17.603,17.6106,17.6106,17.6106,17.6106,17.6106,17.6106,17.6106,17.6106,17.6106,17.6106,17.6106,17.6106,17.6106,17.6106,17.6106,17.6106,17.6106,17.6106,17.6106,17.6106,17.6106,17.6106,17.6106,17.6106,17.6106,17.6106,17.6106,17.6106,17.6106,17.6106,17.6106,17.6106,17.6106,17.6106,17.6106,17.6106,17.6106,17.6106,17.6106,17.5856,17.5449,17.5176,17.4984,17.5042,17.51,17.5274,17.5449,17.5681,17.5856,17.6048,17.6106,17.6106,17.6106,17.6106,17.6106,17.6106,17.6106,17.6106,17.6106,17.6106,17.6106,17.6106,17.6106,17.6106,17.6106,17.6106,17.6164,17.6164,17.6164,17.6106,17.6106,17.6106,17.6106,17.6106,17.6106,17.6106,17.6106,17.6164,17.6106,17.6106,17.6106,17.6106,17.6106,17.6106,17.6106,17.6106,17.6106,17.6106,17.6339,17.6397,17.6513,17.6513,17.6571,17.6746,17.6513,17.6106,17.6106,17.6106,17.6106,17.6106,17.6106,17.6106,17.6106,17.6106,17.6106,17.6106,17.2736,17.2755,17.2755,17.2813,17.3104,17.4016,17.454,17.4773,17.5449,17.5874,17.5874,17.6048,17.5757,17.6106,17.5641,17.599,17.5932,17.5699,17.5874,17.599,17.5932,17.5816,17.574,17.5641,17.5641,17.5757,17.6048,17.599,17.5874,17.599,17.6048,17.6106,17.6106,17.6106,17.6106,17.6106,17.6106,17.6106,17.6106,17.6106,17.6106,17.6106,17.6106,17.6106,17.6048,17.5972,17.5972,17.5757,17.5042,17.293,17.2755,17.3046,17.293,17.2871,17.3337,17.4307,17.454,17.4907,17.5798,17.5757,17.5932,17.5816,17.5874,17.6106,17.599,17.6106,17.6106,17.6106,17.6106,17.6106,17.6106,17.6106,17.6106,17.6106,17.6106,17.6106,17.6106,17.6106,17.6106,17.6106,17.6106,17.6106,17.6106,17.6106,17.6106,17.6106,17.6106,17.6106,17.6106,17.6106,17.6106,17.6106,17.6106,17.6106,17.6106,17.6106,17.6106,17.6106,17.6106,17.6106,17.6106,17.6106,17.6106,17.6106,17.6106,17.6106,17.6106,17.6106,17.6106,17.6106,17.6106,17.6106,17.6106,17.6106,17.6106,17.1708,17.2406,17.2406,17.2406,17.2504,17.3027,17.326,17.3318,17.3802,17.3937,17.3977,17.3977,17.3977,17.3937,17.3937,17.3977,17.3977,17.3977,17.4442,17.4965,17.5122,17.4675,17.4151,17.3977,17.3977,17.4035,17.3937,17.4442,17.4965,17.5082,17.5449,17.5874,17.6106,17.6106,17.599,17.6106,17.6106,17.6106,17.6106,17.6106,17.6106,17.6106,17.6106,17.599,17.5431,17.5082,17.4965,17.4344,17.3569,17.2736,17.2348,17.2406,17.2406,17.2406,17.2678,17.3144,17.3202,17.3435,17.3918,17.3977,17.3937,17.4093,17.4733,17.4965,17.514,17.5798,17.6106,17.6048,17.6106,17.6106,17.6106,17.6106,17.6106,17.6106,17.6106,17.6106,17.6106,17.6106,17.6106,17.6106,17.6106,17.6106,17.6106,17.6106,17.6106,17.6106,17.6106,17.6106,17.6106,17.6106,17.6106,17.6106,17.6106,17.6106,17.6106,17.6106,17.6106,17.6106,17.6106,17.6106,17.6106,17.6106,17.6106,17.6106,17.6106,17.6106,17.6106,17.6106,17.6106,17.6106,17.6106,17.6106,17.6106,17.6106,17.6106,17.0196,17.1398,17.1398,17.1359,17.1457,17.1806,17.1883,17.198,17.2271,17.2581,17.2464,17.2406,17.2522,17.2406,17.2464,17.2406,17.2522,17.2522,17.3027,17.3726,17.3551,17.2853,17.2464,17.2406,17.2504,17.2522,17.2639,17.2911,17.3784,17.3842,17.4249,17.5158,17.4925,17.5042,17.5158,17.4984,17.5158,17.5158,17.51,17.5042,17.5042,17.5042,17.5158,17.51,17.4267,17.39,17.3726,17.2911,17.2173,17.1573,17.1398,17.1398,17.1224,17.1224,17.1398,17.1806,17.1922,17.2038,17.2348,17.2522,17.2464,17.2504,17.3376,17.3882,17.3842,17.4675,17.5042,17.5216,17.5507,17.5623,17.5681,17.5874,17.6106,17.6048,17.574,17.5681,17.599,17.6106,17.6106,17.6106,17.6106,17.6106,17.6106,17.6106,17.6106,17.6106,17.6106,17.6106,17.6106,17.6106,17.6106,17.6106,17.6106,17.6106,17.6106,17.6106,17.6106,17.6106,17.6048,17.599,17.599,17.6048,17.6106,17.6106,17.6106,17.6106,17.6106,17.6106,17.6106,17.6106,17.6106,17.6106,17.6106,17.6106,17.6106,16.7558,16.8664,16.8722,16.8722,16.8897,16.9847,17.037,17.0719,17.1592,17.1999,17.2173,17.2038,17.2155,17.2232,17.1941,17.198,17.229,17.2057,17.2155,17.198,17.1417,17.134,17.1922,17.1922,17.1883,17.1999,17.2097,17.2329,17.2504,17.2562,17.2522,17.2871,17.2988,17.2697,17.2988,17.2697,17.293,17.2988,17.2813,17.2871,17.2871,17.2813,17.2813,17.2813,17.2678,17.2562,17.2446,17.1864,17.0817,16.9071,16.8722,16.8722,16.8722,16.8722,16.9246,17.0138,17.0448,17.0894,17.1941,17.1708,17.1922,17.1941,17.2271,17.2504,17.2562,17.2911,17.3104,17.3104,17.39,17.4424,17.4656,17.5198,17.5798,17.5914,17.4965,17.4907,17.5816,17.5932,17.5641,17.5816,17.6048,17.599,17.5699,17.5757,17.5757,17.5816,17.5856,17.5856,17.5874,17.599,17.6106,17.6106,17.6106,17.6106,17.6106,17.6106,17.6106,17.6048,17.5856,17.5798,17.574,17.5932,17.6106,17.6106,17.6106,17.6106,17.6106,17.6106,17.6106,17.6106,17.6106,17.6106,17.6106,17.6106,17.6106,16.5659,16.6066,16.6066,16.6066,16.6182,16.6589,16.7287,16.8044,16.8606,16.9246,16.9886,17.0002,16.9944,16.9944,17.0002,17.0002,16.9944,16.9944,17.0002,16.9886,16.942,16.9478,16.9886,16.9944,17.0002,17.0002,16.9944,17.0409,17.1126,17.1243,17.1631,17.2232,17.2406,17.2348,17.2406,17.2406,17.2406,17.2406,17.2348,17.2406,17.2348,17.2406,17.2406,17.2232,17.1592,17.1243,17.0952,16.8742,16.7113,16.6299,16.6066,16.6066,16.6124,16.6124,16.6299,16.6726,16.69,16.7462,16.8606,16.8916,16.9032,17.0002,17.0758,17.1126,17.1301,17.2097,17.2348,17.2406,17.2853,17.3144,17.3202,17.3569,17.3744,17.3802,17.3376,17.3376,17.3628,17.3802,17.386,17.3937,17.3918,17.3762,17.3802,17.3802,17.3802,17.3977,17.45,17.4965,17.514,17.5565,17.5932,17.6106,17.5816,17.5699,17.599,17.599,17.599,17.5681,17.5274,17.5082,17.4984,17.5274,17.5525,17.5507,17.5525,17.5467,17.5856,17.5874,17.599,17.6106,17.6106,17.6106,17.6106,17.6106,17.6106,16.4283,16.4632,16.4632,16.4632,16.4632,16.4632,16.5135,16.595,16.6008,16.6473,16.7171,16.7326,16.7326,16.7287,16.7326,16.7558,16.7908,16.75,16.7326,16.7287,16.7326,16.7326,16.7442,16.7733,16.7869,16.7966,16.8315,16.9071,16.973,16.9847,17.0293,17.1049,17.1166,17.1224,17.1107,17.1224,17.1224,17.1224,17.1224,17.1224,17.1224,17.1166,17.1166,17.1107,16.9963,16.9032,16.8567,16.6086,16.469,16.469,16.4632,16.4632,16.4632,16.4632,16.4632,16.4632,16.4632,16.5098,16.5891,16.6066,16.6473,16.7268,16.8102,16.88,16.9323,17.0021,17.0603,17.1107,17.1592,17.1824,17.1883,17.2155,17.2097,17.1282,17.1534,17.1824,17.1941,17.2271,17.2348,17.2406,17.2406,17.2406,17.2406,17.2504,17.2639,17.2736,17.326,17.3726,17.3842,17.4326,17.4925,17.4984,17.4984,17.4635,17.4402,17.4228,17.4228,17.4035,17.386,17.3726,17.386,17.4035,17.4402,17.4518,17.4635,17.4809,17.5274,17.5565,17.5681,17.5856,17.5816,17.5932,17.6106,17.6106,17.6106,16.3353,16.4283,16.4574,16.4342,16.4283,16.4283,16.4554,16.4632,16.4632,16.4807,16.5156,16.4865,16.5135,16.4865,16.5098,16.5484,16.6066,16.533,16.4923,16.5039,16.4981,16.4981,16.5039,16.6124,16.6628,16.6648,16.7849,16.8373,16.8373,16.8373,16.8373,16.8489,16.8548,16.8548,16.8548,16.8548,16.8548,16.8548,16.8548,16.8548,16.8548,16.8548,16.8548,16.8431,16.7326,16.6124,16.4923,16.4574,16.4283,16.4342,16.44,16.4574,16.4283,16.4283,16.4458,16.4283,16.4458,16.4554,16.4632,16.4632,16.469,16.5098,16.4923,16.5737,16.6706,16.6938,16.7442,16.8489,16.944,17.0312,17.0428,17.1068,17.0777,16.9188,16.942,17.0021,17.037,17.1417,17.2232,17.1999,17.198,17.229,17.229,17.1941,17.1824,17.1922,17.2271,17.2446,17.2504,17.2755,17.2581,17.2678,17.3046,17.3395,17.293,17.2446,17.2446,17.2446,17.2271,17.2446,17.2562,17.3104,17.3511,17.3511,17.3569,17.3744,17.4151,17.4384,17.4675,17.4925,17.5449,17.5507,17.5274,17.5042,17.5391,15.9668,16.0868,16.174,16.2148,16.209,16.2148,16.2576,16.3257,16.3353,16.3818,16.4516,16.4632,16.4632,16.4632,16.4632,16.4458,16.3934,16.349,16.3818,16.4574,16.4632,16.4632,16.469,16.5039,16.5272,16.5368,16.5717,16.5891,16.5891,16.5891,16.5891,16.595,16.5891,16.5891,16.5891,16.5891,16.5854,16.5891,16.5891,16.5891,16.5891,16.5891,16.5891,16.5717,16.4632,16.376,16.3353,16.2518,16.2148,16.2148,16.2185,16.2148,16.2148,16.2148,16.2148,16.2148,16.2148,16.246,16.3178,16.3353,16.3664,16.4516,16.4632,16.4749,16.5193,16.5272,16.5426,16.5775,16.6357,16.6997,16.752,16.7462,16.6822,16.624,16.6299,16.6493,16.6551,16.6997,16.7636,16.8509,16.9304,16.9711,16.9769,16.9769,16.9769,16.9769,17.0642,17.1068,17.1243,17.1766,17.2406,17.2348,17.2232,17.2115,17.165,17.037,16.9789,17.0021,17.006,17.0817,17.1301,17.2115,17.2522,17.2464,17.2522,17.2678,17.2853,17.3027,17.3202,17.3435,17.3918,17.4344,17.4035,17.3802,17.386,15.761,15.8366,15.9181,15.953,15.953,15.953,15.9958,16.0678,16.0678,16.1376,16.2422,16.2634,16.2867,16.3274,16.2343,16.1434,16.0736,16.1201,16.1783,16.2576,16.3099,16.3332,16.339,16.376,16.3934,16.3993,16.44,16.4632,16.4632,16.4632,16.4632,16.4632,16.4632,16.4632,16.4632,16.4632,16.4632,16.4632,16.4632,16.4632,16.469,16.4632,16.3934,16.2692,16.182,16.1143,16.0678,15.9995,15.953,15.953,15.953,15.953,15.953,15.953,15.9566,15.953,15.953,15.9879,16.0503,16.0678,16.1201,16.246,16.2634,16.2771,16.3702,16.3934,16.4167,16.4574,16.4632,16.4379,16.4649,16.4263,16.4109,16.4516,16.469,16.4807,16.4632,16.4632,16.4961,16.5775,16.6531,16.7151,16.7113,16.7113,16.7113,16.7268,16.8257,16.8916,16.9265,17.0138,17.0875,17.0991,17.0991,17.0719,16.9963,16.8044,16.7229,16.7578,16.8102,16.88,16.9265,16.9944,17.0584,17.0467,17.0584,17.07,17.07,17.0991,17.2173,17.2406,17.2795,17.293,17.2348,17.293,17.2755,15.6934,15.6992,15.6992,15.7108,15.7108,15.7225,15.7166,15.7457,15.7283,15.7864,15.9064,15.9064,15.9646,16.0614,15.8504,15.7166,15.7341,15.8541,15.9122,15.9297,16.0228,16.0788,16.0846,16.1936,16.2443,16.2481,16.3353,16.4051,16.4283,16.4342,16.4458,16.44,16.4263,16.4342,16.4283,16.4167,16.44,16.4167,16.4167,16.4379,16.4342,16.4167,16.2343,15.9471,15.9006,15.8482,15.7457,15.7166,15.7166,15.7166,15.7283,15.7166,15.7166,15.7166,15.7225,15.7225,15.7166,15.7225,15.7341,15.7399,15.7864,15.8795,15.9239,15.9958,16.1841,16.2074,16.2502,16.403,16.3644,16.2925,16.1391,16.1587,16.2539,16.3586,16.3993,16.3876,16.3993,16.3586,16.4283,16.44,16.4574,16.4903,16.4807,16.4632,16.4961,16.5193,16.5833,16.6589,16.688,16.7617,16.8257,16.8373,16.8198,16.7558,16.5388,16.5214,16.5098,16.533,16.6299,16.6686,16.7035,16.7384,16.7966,16.8373,16.8373,16.8431,16.8606,16.9304,17.037,17.0952,17.1185,17.1689,17.1282,17.1922,17.1806,15.4782,15.556,15.5677,15.6178,15.705,15.7108,15.7108,15.7108,15.7108,15.7283,15.761,15.7574,15.7806,15.8017,15.7399,15.7108,15.7108,15.7399,15.7574,15.7632,15.7923,15.8097,15.8097,15.8504,15.9086,15.9958,16.0461,16.1042,16.1915,16.1973,16.1973,16.1973,16.1973,16.1973,16.1973,16.1915,16.1973,16.1973,16.1973,16.1973,16.1682,16.0133,15.8679,15.7748,15.7574,15.7399,15.7108,15.7108,15.7108,15.705,15.7108,15.7108,15.7108,15.7108,15.7108,15.7108,15.7108,15.7108,15.7108,15.7108,15.7225,15.7515,15.7574,15.7923,15.8504,15.8621,15.8759,15.9108,15.9144,15.9028,15.8155,15.8388,15.8737,15.9086,15.9144,15.9144,15.9319,16.0017,16.0947,16.1857,16.2576,16.3586,16.4342,16.44,16.4283,16.44,16.4844,16.5156,16.531,16.5484,16.5775,16.5717,16.5717,16.5368,16.4865,16.44,16.4632,16.4749,16.4786,16.5193,16.531,16.5388,16.5775,16.6473,16.5891,16.5891,16.6357,16.6938,16.7869,16.8257,16.8838,16.942,16.9595,16.9595,16.9595,15.2013,15.2711,15.2769,15.3176,15.3816,15.3909,15.42,15.463,15.463,15.5305,15.6003,15.4514,15.3909,15.3909,15.3874,15.42,15.4723,15.5189,15.5712,15.6258,15.6817,15.7108,15.7108,15.7108,15.7457,15.8191,15.8191,15.8599,15.9239,15.9355,15.9355,15.9355,15.9355,15.9355,15.9355,15.9355,15.9355,15.9355,15.9355,15.9355,15.9181,15.7806,15.6817,15.6316,15.6294,15.5829,15.484,15.4665,15.4397,15.3932,15.3909,15.3874,15.3874,15.3874,15.3909,15.3874,15.3874,15.3874,15.3874,15.3874,15.4142,15.463,15.5131,15.5712,15.6236,15.6759,15.6061,15.4491,15.4433,15.4956,15.548,15.6003,15.6527,15.6992,15.7108,15.7166,15.7108,15.7806,15.8424,15.9239,15.9958,16.0678,16.1318,16.1529,16.1762,16.2343,16.3353,16.3818,16.3934,16.4342,16.4574,16.4458,16.3216,16.2518,16.2285,16.2692,16.3041,16.3158,16.3507,16.3818,16.3934,16.4167,16.4574,16.469,16.4807,16.4807,16.4458,16.533,16.5775,16.6008,16.6589,16.6977,16.6938,16.6938,16.6977,14.9338,14.9338,14.9454,14.9338,14.9512,14.9454,15.0152,15.1117,15.1083,15.2455,15.4048,15.0815,14.9454,14.9338,14.9512,15.0152,15.1233,15.228,15.3444,15.4514,15.5829,15.641,15.6352,15.6468,15.6643,15.6876,15.6876,15.6992,15.7283,15.7225,15.7166,15.7108,15.7108,15.7166,15.7166,15.7166,15.7108,15.7108,15.6817,15.6643,15.6527,15.6527,15.5887,15.463,15.4572,15.3467,15.135,15.1024,15.0501,14.9454,14.9454,14.9396,14.9454,14.9396,14.9396,14.9454,14.9396,14.9338,14.9396,14.9338,14.9978,15.0966,15.2222,15.3269,15.4397,15.5538,15.4223,15.0908,15.0559,15.1664,15.2688,15.3758,15.4688,15.5502,15.5829,15.6352,15.6061,15.6527,15.6701,15.6701,15.7166,15.7166,15.7632,15.769,15.7923,15.9181,16.0715,16.1725,16.1841,16.2539,16.3178,16.2946,16.118,15.9239,15.9181,15.9915,16.0461,16.0672,16.1471,16.1725,16.1862,16.2655,16.3818,16.2481,16.3411,16.3469,16.3702,16.44,16.4342,16.4516,16.469,16.4844,16.469,16.4865,16.4554,14.9338,14.9338,14.9338,14.9338,14.9338,14.9338,14.942,14.9745,14.9745,15.0094,15.0467,14.9745,14.9338,14.9338,14.9338,14.9454,14.9745,15.0036,15.0327,15.0617,15.0908,15.1548,15.242,15.2536,15.3583,15.5386,15.556,15.6084,15.6992,15.7108,15.7108,15.705,15.7108,15.7108,15.7108,15.7108,15.7108,15.6934,15.5072,15.356,15.2595,15.2536,15.1931,15.0734,15.0583,15.0385,14.9803,14.9711,14.9571,14.9338,14.9338,14.9338,14.9338,14.9338,14.9338,14.9338,14.9338,14.9338,14.9338,14.9338,14.9454,14.9711,14.9978,15.0268,15.0617,15.0874,15.0443,14.9571,14.9512,14.9803,15.021,15.0559,15.0675,15.0966,15.1024,15.1315,15.1315,15.2862,15.4025,15.4258,15.5829,15.6934,15.7108,15.7108,15.705,15.7283,15.7923,15.833,15.8294,15.8526,15.8795,15.8621,15.8097,15.7515,15.7515,15.7864,15.8039,15.7959,15.833,15.8679,15.8701,15.8679,15.8853,15.9224,15.9784,16.0366,16.054,16.1666,16.2734,16.2946,16.3469,16.4283,16.4167,16.4167,16.3739,14.851,14.8602,14.8602,14.8602,14.8602,14.8602,14.8694,14.8916,14.8299,14.8267,14.8535,14.82,14.8065,14.8065,14.8065,14.8188,14.8466,14.8524,14.8756,14.928,14.9338,14.9687,15.0327,15.0327,15.1083,15.2362,15.2478,15.2827,15.3502,15.3525,15.3816,15.4374,15.4433,15.4723,15.5247,15.5247,15.5282,15.5189,15.2746,15.1059,15.0385,15.0327,14.9978,14.9338,14.9338,14.9047,14.8524,14.8466,14.8233,14.7627,14.7569,14.7627,14.7569,14.7627,14.7627,14.7627,14.7627,14.7627,14.7627,14.7627,14.7569,14.7627,14.8151,14.8,14.6837,14.722,14.7627,14.7627,14.7627,14.7826,14.8407,14.8524,14.8698,14.9187,14.9338,14.9338,14.9454,15.0617,15.1373,15.1524,15.2653,15.3467,15.3467,15.3467,15.3816,15.5131,15.5247,15.5887,15.6934,15.5712,15.4607,15.5247,15.5793,15.6084,15.62,15.6607,15.705,15.7108,15.7108,15.7108,15.7108,15.7108,15.7166,15.7166,15.7574,15.8039,15.8191,15.9319,15.9922,16.0154,16.0736,16.1027,16.1238,16.118,16.0482,14.7642,14.7734,14.7734,14.7734,14.7734,14.7734,14.8022,14.8283,14.7352,14.7152,14.7701,14.6988,14.6692,14.6784,14.6725,14.6973,14.7355,14.7413,14.7869,14.8722,14.8756,14.8873,14.9047,14.9047,14.9163,14.928,14.9338,14.9338,14.9338,14.9338,14.9861,15.0884,15.0908,15.1524,15.2513,15.2629,15.2629,15.2571,15.0443,14.9222,14.9047,14.9013,14.8955,14.8815,14.8756,14.8291,14.7303,14.7278,14.6638,14.5425,14.5276,14.5217,14.5043,14.5043,14.5043,14.5043,14.5043,14.5043,14.5043,14.5043,14.5043,14.5101,14.6231,14.5998,14.3672,14.4403,14.5043,14.5043,14.5276,14.5799,14.6813,14.7162,14.7593,14.8524,14.8698,14.8756,14.864,14.8989,14.9163,14.9163,14.9163,14.9512,14.9745,14.9687,15.0559,15.2106,15.2629,15.3327,15.4491,15.3037,15.1699,15.2455,15.3583,15.4165,15.4107,15.5211,15.5386,15.6003,15.5654,15.5363,15.527,15.5538,15.577,15.6119,15.641,15.6759,15.6817,15.6876,15.7399,15.7515,15.7574,15.7574,15.769,15.6817,15.6352,14.7734,14.7734,14.7734,14.7734,14.7734,14.7734,14.7695,14.7715,14.8124,0.0,0.0,14.7603,14.7538,14.7538,14.7538,14.7263,14.6805,14.6772,14.6565,14.6265,14.6265,14.6813,14.7826,14.7826,14.8349,14.928,14.9338,14.9338,14.9338,14.9338,14.942,14.9629,14.9629,14.9711,14.9978,14.9943,14.9978,14.9978,14.9478,14.8815,14.7884,14.7826,14.7336,14.6265,14.6265,14.6148,14.5974,14.5915,14.5334,14.4112,14.3963,14.3497,14.2508,14.236,14.2392,14.236,14.236,14.236,14.2392,14.2392,14.2392,14.2392,14.3614,14.3639,14.2185,14.2243,14.2392,14.2392,14.3381,14.4079,14.4312,14.5334,14.6032,14.6206,14.6265,14.6265,14.6323,14.7162,14.7802,14.7976,14.8582,14.928,14.9222,14.9163,14.9571,14.9919,15.0094,15.0268,15.0443,15.021,14.9803,15.0036,15.0525,15.0467,15.0443,15.085,15.0675,15.1141,15.0966,15.0675,15.085,15.1548,15.2129,15.2478,15.4107,15.5095,15.5502,15.6061,15.705,15.7108,15.7108,15.7108,15.6817,15.4549,15.2769,14.868,14.868,14.868,14.8772,0.0,14.868,14.7907,14.6659,14.704,14.7068,14.6719,14.6427,14.6267,14.6267,14.6267,14.5823,14.5146,14.5793,14.5891,14.5564,14.5938,14.6415,14.7024,14.6689,14.6871,14.7394,14.7453,14.7453,14.7394,14.7453,14.7743,14.8349,14.8407,14.8698,14.928,14.9338,14.864,14.7453,14.7394,14.7104,14.6614,14.6522,14.6265,14.5658,14.5566,0.0,0.0,0.0,0.0,0.0,0.0,0.0,0.0,0.0,0.0,13.9716,13.8553,13.8146,13.8786,13.8844,13.9077,13.9716,14.0938,14.0426,13.7506,13.941,14.0892,14.124,14.2089,14.2683,14.265,14.3265,14.3614,14.3614,14.3614,14.3614,14.3788,14.4777,14.5591,14.5708,14.6605,14.7394,14.7453,14.7453,14.7685,14.8291,14.8407,14.864,14.9105,14.8815,14.8407,14.8407,14.8873,14.928,14.9338,14.9338,14.9396,14.928,14.9338,14.9338,14.9338,14.9861,15.021,15.0385,15.1257,15.2187,15.2246,15.2653,15.3118,15.3118,15.3118,15.3118,15.3002,15.1606,15.0443,14.8957,14.8957,14.8957,14.8957,14.8897,14.8717,14.7222,14.5039,14.5039,14.5039,14.5008,14.451,14.4292,14.426,14.4498,14.4182,14.352,14.4819,14.5346,14.5218,14.5624,14.5975,14.6176,14.5681,14.5467,14.56,14.5699,14.5699,14.5566,14.5566,14.6148,14.7162,14.7162,14.7685,14.8524,0.0,0.0,0.0,14.5566,14.5566,14.5566,14.5566,14.5566,14.5566,14.5566,0.0,14.5217,14.5217,14.4519,14.2974,14.2683,0.0,0.0,0.0,0.0,0.0,0.0,0.0,0.0,0.0,0.0,0.0,13.6794,13.5783,13.2324,13.5436,13.8089,13.9035,14.0073,14.0679,14.0776,14.0886,14.0996,14.0964,14.0964,14.1112,14.1313,14.2276,14.3032,14.3265,14.4428,14.5217,14.5276,14.5483,14.6032,14.6987,14.7162,14.7569,14.8407,14.7743,14.7162,14.722,14.786,14.8524,14.8582,14.8466,14.8383,14.8582,14.8582,14.8524,14.8466,14.8698,14.8931,14.8989,14.9163,14.9396,14.9396,14.9338,14.9629,14.9338,14.9396,14.9129,14.8698,14.8815,14.8897,14.6296,14.6296,14.6265,14.6296,14.6236,14.513,14.3753,14.2377,14.2377,14.2377,14.2377,14.2286,14.2315,14.2345,14.3511,14.3558,14.2876,14.4273,14.455,14.3888,14.3367,14.3781,14.4829,14.4796,14.4996,14.5633,14.6164,14.6131,14.5566,14.5566,14.5683,14.5857,14.5799,14.5915,14.6032,14.4893,14.481,14.5566,14.5566,14.5566,14.5566,14.5566,14.5566,14.5566,14.5566,14.5043,14.3963,14.3904,14.2774,14.0388,13.9193,13.803,13.6839,13.5354,13.3609,0.0,13.0875,0.0,0.0,0.0,0.0,0.0,0.0,0.0,0.0,12.9456,13.1213,13.2949,13.5331,13.7,13.7471,13.7995,13.832,13.832,13.832,13.8786,13.9865,14.0156,14.0679,14.1836,14.309,14.3904,14.3904,14.4926,14.5658,14.5799,14.5799,14.5857,14.6032,14.5974,14.5857,14.5857,14.5974,14.6347,14.6323,14.6206,14.6206,14.6148,14.6265,14.609,14.6206,14.7045,14.7802,14.786,14.8524,14.9163,14.928,14.9222,14.9222,14.9105,14.9105,14.8466,14.6905,14.7079,14.771,14.5817,14.5817,14.5817,14.4082,14.1329,14.0791,14.0193,13.9594,13.9654,13.9235,13.8547,13.8517,13.8517,13.8607,13.9175,13.9595,14.0071,14.1473,14.2334,14.268,14.2649,14.3398,14.4665,14.3901,14.3678,14.397,14.393,14.3734,14.3439,14.3472,14.3472,14.3439,14.3439,14.3254,14.288,14.2704,14.2857,14.3439,14.417,14.4868,14.5542,14.4868,14.4486,14.4519,14.3821,14.3148,14.2592,14.1869,14.0589,13.8786,13.7538,13.5967,13.4019,13.1282,12.9275,0.0,0.0,0.0,0.0,0.0,0.0,0.0,0.0,0.0,0.0,0.0,12.8381,12.9246,13.1441,13.3189,13.4033,13.3436,13.3599,13.4942,13.481,13.507,13.6495,13.7529,13.8525,13.9458,14.0705,14.1785,14.2508,14.3057,14.3672,14.4403,14.3879,14.3803,14.4773,14.4717,14.481,14.545,14.5566,14.5566,14.5566,14.5566,14.5566,14.5566,14.5566,14.5566,14.5625,14.609,14.6497,14.6497,14.6871,14.722,14.722,14.722,14.722,14.722,14.722,14.6813,14.5799,14.6065,14.6464,14.3902,14.3783,14.2586,13.9714,13.5975,13.6004,13.6004,13.5975,13.6004,13.5406,13.4508,13.4537,13.4329,13.403,13.403,13.4748,13.6035,13.744,13.8906,14.0402,14.0723,14.1694,14.3298,14.2268,14.1818,14.1953,14.1629,14.1336,14.1047,14.1015,14.0957,14.0989,14.0083,13.9579,13.9405,14.0131,14.0776,14.1196,14.2508,14.3705,14.4602,14.3672,14.3206,14.3206,14.2185,14.1429,14.0789,13.9833,13.8468,13.6517,13.5036,13.3235,13.1056,12.7618,0.0,0.0,0.0,0.0,0.0,0.0,0.0,0.0,0.0,12.1553,11.9992,0.0,12.504,0.0,12.7704,12.9661,13.0917,12.9335,0.0,0.0,13.0654,13.0685,13.2084,13.4021,13.5487,13.6126,13.8058,13.9659,14.0647,14.1209,14.1772,14.2329,14.163,14.1726,14.3568,14.3501,14.3555,14.4403,14.4544,14.4694,14.4577,14.4694,14.4577,14.4661,14.4636,14.4694,14.4694,14.4636,14.4636,14.4636,14.4636,14.481,14.5101,14.5159,14.5043,14.4752,14.4694,14.4694,14.4694,14.4636,14.4752,13.8457,13.8039,13.3312,13.107,13.0651,13.0711,13.0651,13.0651,13.0711,13.0563,13.0531,13.0472,12.9813,12.8677,12.8737,0.0,13.0711,13.1999,13.4001,13.6334,13.5782,13.6884,13.92,13.914,13.9398,13.9993,14.0549,14.021,13.9,13.9027,13.9027,13.891,13.5426,13.4197,13.537,13.6627,13.8161,13.9865,14.1171,14.1927,14.2011,14.1894,14.1836,14.1836,14.1778,14.0557,13.8262,13.7998,13.6316,13.2767,13.0265,12.8492,12.7555,0.0,0.0,0.0,0.0,0.0,0.0,0.0,0.0,0.0,0.0,0.0,0.0,0.0,0.0,12.0713,12.3848,0.0,12.8436,12.6837,0.0,0.0,0.0,12.5347,12.6649,12.9003,13.086,13.1476,0.0,0.0,13.8098,13.967,14.0369,13.932,13.9086,13.9716,14.1649,14.1934,14.1894,14.2192,14.2069,14.2043,14.2276,14.2308,14.2308,14.2243,14.2011,14.2218,14.2218,14.2159,14.2101,14.2218,14.2011,14.245,14.3614,14.3679,14.3439,14.225,14.2043,14.2043,14.2108,14.2166,14.2515,13.2864,13.0619,12.8585,12.766,12.7687,12.766,12.8166,12.8856,12.8884,12.8438,12.7687,12.7687,12.6523,12.4489,12.5267,0.0,0.0,0.0,12.9873,13.2326,13.2072,13.339,13.5747,13.5456,13.54,13.5668,13.5519,13.4953,13.4082,13.4901,13.368,13.0617,0.0,0.0,13.2535,13.3479,13.5473,13.8487,13.9895,14.0919,14.1713,14.2092,14.1356,13.9426,13.8669,13.7448,13.5645,13.4074,13.2306,13.0361,12.7908,12.5828,0.0,0.0,0.0,0.0,0.0,0.0,0.0,0.0,0.0,0.0,0.0,11.3074,11.35,0.0,0.0,0.0,11.8835,12.0797,12.3142,12.3081,0.0,0.0,0.0,0.0,0.0,0.0,0.0,12.9096,13.1506,13.3715,13.5233,13.5834,13.6166,13.6403,13.6808,13.8008,14.0721,0.0,14.0969,14.2139,14.2308,14.2147,14.1785,14.2018,14.2147,14.1817,14.1752,14.1752,14.1752,14.1752,14.1752,14.1752,14.1752,14.1836,14.236,14.1172,14.0004,13.9976,13.994,14.0098,14.0446,14.0868,14.1225,12.5892,0.0,0.0,0.0,0.0,12.3319,12.4097,12.5294,12.5294,12.4729,12.3858,12.3858,0.0,0.0,0.0,0.0,0.0,0.0,12.5832,12.8318,12.9128,13.0651,13.2773,13.235,13.2094,13.2094,13.1664,13.0911,12.9979,13.0126,12.8084,12.4116,0.0,0.0,0.0,0.0,13.2623,13.5514,13.8022,13.9642,14.0527,14.1415,14.0527,13.7614,13.6235,13.4714,13.3085,13.1055,12.9134,12.7525,12.4882,0.0,0.0,0.0,0.0,0.0,0.0,0.0,0.0,0.0,0.0,0.0,0.0,0.0,0.0,0.0,0.0,0.0,0.0,0.0,11.8041,11.9003,12.013,0.0,0.0,0.0,0.0,0.0,0.0,0.0,0.0,0.0,13.1522,13.1599,13.2303,0.0,0.0,13.6051,13.8956,13.8946,13.9134,14.0553,14.0752,0.0,14.0115,14.0437,14.0531,13.9834,13.9797,13.9765,13.9765,13.9924,14.0051,13.9993,13.9993,13.976,13.9032,13.7085,13.5952,13.6618,13.6496,13.6648,13.781,13.8419,13.896,0.0,0.0,0.0,0.0,0.0,0.0,0.0,0.0,11.8532,11.8532,0.0,11.8473,0.0,0.0,0.0,0.0,11.6762,11.9191,0.0,0.0,12.6822,12.8884,13.0053,13.0025,13.0145,13.0145,13.0029,12.904,12.709,12.4715,0.0,0.0,0.0,0.0,0.0,0.0,12.9537,13.059,13.5308,13.7904,13.8052,13.935,13.9042,13.7132,13.5258,13.3,13.0528,12.9485,12.7408,12.3746,12.045,0.0,0.0,0.0,0.0,0.0,0.0,0.0,0.0,0.0,0.0,0.0,0.0,0.0,0.0,0.0,0.0,0.0,0.0,0.0,0.0,11.4683,0.0,0.0,0.0,0.0,0.0,0.0,0.0,0.0,0.0,0.0,12.6502,12.7486,12.9445,13.2516,0.0,0.0,0.0,0.0,13.6045,13.6192,13.6133,13.6192,13.6132,13.6133,13.5892,13.5285,0.0,0.0,13.5135,13.5651,13.6073,13.6103,13.6071,13.5278,13.2831,13.1269,13.0797,13.1918,13.1269,13.1298,13.345,13.4099,13.4836,0.0,0.0,0.0,0.0,0.0,0.0,0.0,0.0,0.0,11.4368,0.0,11.4368,0.0,0.0,0.0,0.0,0.0,0.0,0.0,0.0,12.0387,12.2362,12.3592,12.443,12.4848,0.0,12.4822,12.3188,0.0,0.0,0.0,0.0,0.0,0.0,0.0,0.0,12.7641,13.1258,13.3937,13.6585,13.9026,13.8338,13.8036,13.812,13.5148,13.1853,12.8317,12.6443,12.4178,0.0,0.0,0.0,0.0,0.0,0.0,0.0,0.0,0.0,0.0,0.0,0.0,0.0,0.0,0.0,0.0,0.0,0.0,0.0,0.0,0.0,0.0,0.0,11.3074,0.0,0.0,0.0,0.0,0.0,0.0,0.0,0.0,0.0,12.1105,12.4336,12.7247,12.8375,12.9958,13.193,13.4292,0.0,0.0,0.0,0.0,0.0,0.0,0.0,13.5016,13.4391,13.3214,13.224,13.1801,13.1919,13.2065,13.2094,0.0,0.0,12.8237,12.7501,12.7489,12.7548,12.7196,12.7307,12.8615,12.9167,12.9774,0.0,0.0,0.0,0.0,0.0,0.0,0.0,0.0,0.0,10.9042,10.8982,0.0,0.0,0.0,0.0,0.0,0.0,0.0,0.0,0.0,0.0,0.0,11.8866,11.9704,0.0,0.0,0.0,0.0,0.0,0.0,0.0,0.0,0.0,0.0,0.0,0.0,12.7052,13.0885,13.2928,13.5435,13.8427,13.7656,13.727,13.7449,13.4661,13.1331,12.7574,0.0,0.0,0.0,0.0,0.0,0.0,0.0,0.0,0.0,0.0,0.0,0.0,0.0,0.0,0.0,0.0,0.0,0.0,0.0,0.0,0.0,0.0,0.0,0.0,0.0,10.976,0.0,0.0,0.0,0.0,0.0,0.0,0.0,0.0,0.0,0.0,0.0,12.4679,12.5374,12.7328,12.9662,13.2235,13.2653,13.3021,0.0,0.0,0.0,0.0,0.0,0.0,0.0,0.0,0.0,0.0,0.0,0.0,0.0,0.0,12.7722,12.4689,12.4104,12.4144,12.4135,0.0,0.0,0.0,0.0,0.0,0.0,0.0,0.0,0.0,0.0,0.0,0.0,0.0,0.0,0.0,10.2317,0.0,0.0,10.2355,0.0,0.0,0.0,0.0,0.0,0.0,0.0,0.0,0.0,0.0,0.0,0.0,0.0,0.0,0.0,0.0,0.0,0.0,0.0,0.0,0.0,0.0,12.7694,12.9043,13.2119,13.4477,13.5825,13.7081,13.6789,13.5011,13.3586,13.1339,12.8051,0.0,0.0,0.0,0.0,0.0,0.0,0.0,0.0,0.0,0.0,0.0,0.0,0.0,0.0,0.0,0.0,0.0,0.0,0.0,0.0,0.0,0.0,0.0,0.0,0.0,0.0,10.6341,10.9856,11.1747,0.0,0.0,0.0,0.0,0.0,0.0,0.0,0.0,0.0,12.3754,12.5227,12.7083,12.9662,12.9993,13.0053,13.0172,13.0085,13.0085,13.0177,13.0085,12.9381,0.0,0.0,0.0,0.0,0.0,0.0,0.0,0.0,0.0,0.0,0.0,0.0,0.0,0.0,0.0,0.0,0.0,0.0,0.0,0.0,0.0,0.0,0.0,0.0,0.0,0.0,0.0,0.0,0.0,0.0,0.0,0.0,0.0,0.0,0.0,0.0,0.0,0.0,0.0,0.0,0.0,0.0,0.0,0.0,0.0,0.0,0.0,0.0,0.0,0.0,0.0,0.0,0.0,0.0,12.6308,12.7658,13.0035,13.2294,13.4477,13.4896,13.481,13.419,13.2508,12.9817,0.0,0.0,0.0,0.0,0.0,0.0,0.0,0.0,0.0,0.0,0.0,0.0,0.0,0.0,0.0,0.0,0.0,0.0,0.0,0.0,0.0,0.0,0.0,0.0,0.0,0.0,0.0,0.0,10.6363,10.8806,11.0502,0.0,0.0,0.0,0.0,0.0,0.0,0.0,0.0,0.0,0.0,12.6004,12.8357,12.7899,12.7959,12.9813,12.9275,12.8976,12.9933,12.9275,12.8475,12.7892,0.0,0.0,0.0,0.0,0.0,0.0,0.0,0.0,0.0,0.0,0.0,0.0,0.0,0.0,0.0,0.0,0.0,0.0,0.0,0.0,0.0,0.0,0.0,0.0,0.0,0.0,0.0,0.0,0.0,0.0,0.0,0.0,0.0,0.0,0.0,0.0,0.0,0.0,0.0,0.0,0.0,0.0,0.0,0.0,0.0,0.0,0.0,0.0,0.0,0.0,0.0,0.0,0.0,12.624,12.8197,12.8954,13.0531,13.3012,13.2713,13.2653,13.3192,13.1032,12.8273,0.0,0.0,0.0,0.0,0.0,0.0,0.0,0.0,0.0,0.0,0.0,0.0,0.0,0.0,0.0,0.0,0.0,0.0,0.0,0.0,0.0,0.0,0.0,0.0,0.0,0.0,0.0,0.0,10.3752,10.5941,10.8223,0.0,0.0,0.0,0.0,0.0,0.0,0.0,0.0,0.0,0.0,12.4473,12.562,12.5506,0.0,0.0,12.7421,12.7029,12.8318,12.7867,12.7002,12.5985,12.437,0.0,0.0,0.0,0.0,0.0,0.0,0.0,0.0,0.0,0.0,0.0,0.0,0.0,0.0,0.0,0.0,0.0,0.0,0.0,0.0,0.0,0.0,0.0,0.0,0.0,0.0,0.0,0.0,0.0,0.0,0.0,0.0,0.0,0.0,0.0,0.0,0.0,0.0,0.0,0.0,0.0,0.0,0.0,0.0,0.0,0.0,0.0,0.0,0.0,0.0,0.0,0.0,0.0,12.9733,12.8703,12.9275,13.1608,13.0563,13.0591,13.164,12.9395,12.6763,0.0,0.0,0.0,0.0,0.0,0.0,0.0,0.0,0.0,0.0,0.0,0.0,0.0,0.0,0.0,0.0,0.0,0.0,0.0,0.0,0.0,0.0,0.0,0.0,0.0,0.0,0.0,0.0,0.0,0.0,0.0,0.0,0.0,0.0,0.0,0.0,0.0,0.0,0.0,0.0,0.0,12.2417,12.2082,12.2968,12.419,0.0,12.4788,12.4343,12.5653,12.5952,12.5114,12.2515,0.0,0.0,0.0,0.0,0.0,0.0,0.0,0.0,0.0,0.0,0.0,0.0,0.0,0.0,0.0,0.0,0.0,0.0,0.0,0.0,0.0,0.0,0.0,0.0,0.0,0.0,0.0,0.0,0.0,0.0,0.0,0.0,0.0,0.0,0.0,0.0,0.0,0.0,0.0,0.0,0.0,0.0,0.0,0.0,0.0,0.0,0.0,0.0,0.0,0.0,0.0,0.0,0.0,0.0,12.8385,12.8216,12.8378,12.9036,12.9694,12.9754,12.9096,12.8465,0.0,0.0,0.0,0.0,0.0,0.0,0.0,0.0,0.0,0.0,0.0,0.0,0.0,0.0,0.0,0.0,0.0,0.0,0.0,0.0,0.0,0.0,0.0,0.0,0.0,0.0,0.0,9.6008,0.0,0.0,0.0,0.0,0.0,0.0,0.0,0.0,0.0,0.0,0.0,0.0,0.0,0.0,11.9646,12.1783,12.0661,12.0481,0.0,0.0,12.2695,12.3054,12.3865,12.3984,0.0,0.0,0.0,0.0,0.0,0.0,0.0,0.0,0.0,0.0,0.0,0.0,0.0,0.0,0.0,0.0,0.0,0.0,0.0,0.0,0.0,0.0,0.0,0.0,0.0,0.0,0.0,0.0,0.0,0.0,0.0,0.0,0.0,0.0,0.0,0.0,0.0,0.0,0.0,0.0,0.0,0.0,0.0,0.0,0.0,0.0,0.0,0.0,0.0,0.0,0.0,0.0,0.0,0.0,12.5821,12.6979,12.8342,12.8744,12.8128,12.9176,12.923,12.8106,12.7567,12.5393,0.0,0.0,0.0,0.0,0.0,0.0,0.0,0.0,0.0,0.0,0.0,0.0,0.0,0.0,0.0,0.0,0.0,0.0,0.0,0.0,0.0,0.0,0.0,0.0,0.0,0.0,0.0,0.0,0.0,0.0,0.0,0.0,0.0,0.0,0.0,0.0,0.0,0.0,0.0,0.0,0.0,0.0,11.782,11.8054,0.0,0.0,0.0,11.9968,12.102,0.0,0.0,0.0,0.0,0.0,0.0,0.0,0.0,0.0,0.0,0.0,0.0,0.0,0.0,0.0,0.0,0.0,0.0,0.0,0.0,0.0,0.0,0.0,0.0,0.0,0.0,0.0,0.0,0.0,0.0,0.0,0.0,0.0,0.0,0.0,0.0,0.0,0.0,0.0,0.0,0.0,0.0,0.0,0.0,0.0,0.0,0.0,0.0,0.0,0.0,0.0,0.0,0.0,0.0,0.0,0.0,0.0,12.577,12.8541,12.9234,12.8013,12.8843,12.8799,12.7888,12.661,12.4758,0.0,0.0,0.0,0.0,0.0,0.0,0.0,0.0,0.0,0.0,0.0,0.0,0.0,0.0,0.0,0.0,0.0,0.0,0.0,0.0,0.0,0.0,0.0,0.0,0.0,0.0,0.0,0.0,0.0,0.0,0.0,0.0,0.0,0.0,0.0,0.0,0.0,0.0,0.0,0.0,0.0,11.4934,11.2464,11.5087,11.7436,0.0,0.0,11.7051,11.94,11.8744,0.0,0.0,0.0,0.0,0.0,0.0,0.0,0.0,0.0,0.0,0.0,0.0,0.0,0.0,0.0,0.0,0.0,0.0,0.0,0.0,0.0,0.0,0.0,0.0,0.0,0.0,0.0,0.0,0.0,0.0,0.0,0.0,0.0,0.0,0.0,0.0,0.0,0.0,0.0,0.0,0.0,0.0,0.0,0.0,0.0,0.0,0.0,0.0,0.0,0.0,0.0,0.0,0.0,0.0,0.0,0.0,12.5677,12.7214,12.7469,12.6673,12.8295,12.8373,12.6598,12.5147,12.2758,0.0,0.0,0.0,0.0,0.0,0.0,0.0,0.0,0.0,0.0,0.0,0.0,0.0,0.0,0.0,0.0,0.0,0.0,0.0,0.0,0.0,0.0,0.0,0.0,0.0,0.0,0.0,0.0,0.0,0.0,0.0,0.0,0.0,0.0,0.0,0.0,0.0,0.0,0.0,0.0,0.0,10.9419,11.0603,11.146,0.0,0.0,0.0,0.0,11.7515,11.7099,0.0,0.0,0.0,0.0,0.0,0.0,0.0,0.0,0.0,0.0,0.0,0.0,0.0,0.0,0.0,0.0,0.0,0.0,0.0,0.0,0.0,0.0,0.0,0.0,0.0,0.0,0.0,0.0,0.0,0.0,0.0,0.0,0.0,0.0,0.0,0.0,0.0,0.0,0.0,0.0,0.0,0.0,0.0,0.0,0.0,0.0,0.0,0.0,0.0,0.0,0.0,0.0,0.0,0.0,0.0,0.0,12.4265,12.6947,12.8044,12.7747,12.9707,12.9501,12.6793,12.5011,12.2298,0.0,0.0,0.0,0.0,0.0,0.0,0.0,0.0,0.0,0.0,0.0,0.0,0.0,0.0,0.0,0.0,0.0,0.0,0.0,0.0,0.0,0.0,0.0,0.0,0.0,0.0,0.0,0.0,0.0,0.0,0.0,0.0,0.0,0.0,0.0,0.0,0.0,0.0,0.0,0.0,10.7089,10.7255,10.8532,0.0,0.0,0.0,0.0,0.0,0.0,11.2037,11.1472,0.0,0.0,0.0,0.0,0.0,0.0,0.0,0.0,0.0,0.0,0.0,0.0,0.0,0.0,0.0,0.0,0.0,0.0,0.0,0.0,0.0,0.0,0.0,0.0,0.0,0.0,0.0,0.0,0.0,0.0,0.0,0.0,0.0,0.0,0.0,0.0,0.0,0.0,0.0,0.0,0.0,0.0,0.0,0.0,0.0,0.0,0.0,0.0,0.0,0.0,0.0,0.0,0.0,0.0,0.0,12.2005,12.622,12.8329,12.8294,13.0195,12.9708,12.6707,12.4527,12.1787,11.847,0.0,0.0,0.0,0.0,0.0,0.0,0.0,0.0,0.0,0.0,0.0,0.0,0.0,0.0,0.0,0.0,0.0,0.0,0.0,0.0,0.0,0.0,0.0,0.0,0.0,0.0,0.0,0.0,0.0,0.0,0.0,0.0,0.0,0.0,0.0,0.0,0.0,0.0,0.0,10.5719,10.6194,0.0,0.0,0.0,0.0,0.0,0.0,0.0,0.0,10.6423,0.0,0.0,0.0,0.0,0.0,0.0,0.0,0.0,0.0,0.0,0.0,0.0,0.0,0.0,0.0,0.0,0.0,0.0,0.0,0.0,0.0,0.0,0.0,0.0,0.0,0.0,0.0,0.0,0.0,0.0,0.0,0.0,0.0,0.0,0.0,0.0,0.0,0.0,0.0,0.0,0.0,0.0,0.0,0.0,0.0,0.0,0.0,0.0,0.0,0.0,0.0,0.0,0.0,0.0,0.0,0.0,12.2653,12.4535,12.4076,12.5478,12.5441,12.3744,12.1784,11.9049,11.5618,0.0,0.0,0.0,0.0,0.0,0.0,0.0,0.0,0.0,0.0,0.0,0.0,0.0,0.0,0.0,0.0,0.0,0.0,0.0,0.0,0.0,0.0,0.0,0.0,0.0,0.0,0.0,0.0,0.0,0.0,0.0,0.0,0.0,0.0,0.0,0.0,0.0,0.0,10.37,10.3773,0.0,0.0,0.0,0.0,0.0,0.0,0.0,0.0,10.7503,0.0,0.0,0.0,0.0,0.0,0.0,0.0,0.0,0.0,0.0,0.0,0.0,0.0,0.0,0.0,0.0,0.0,0.0,0.0,0.0,0.0,0.0,0.0,0.0,0.0,0.0,0.0,0.0,0.0,0.0,0.0,0.0,0.0,0.0,0.0,0.0,0.0,0.0,0.0,0.0,0.0,0.0,0.0,0.0,0.0,0.0,0.0,0.0,0.0,0.0,0.0,0.0,0.0,0.0,0.0,0.0,0.0,0.0,12.2975,12.4532,12.5231,12.4968,12.3504,11.9556,11.569,0.0,0.0,0.0,0.0,0.0,0.0,0.0,0.0,0.0,0.0,0.0,0.0,0.0,0.0,0.0,0.0,0.0,0.0,0.0,0.0,0.0,0.0,0.0,0.0,0.0,0.0,0.0,0.0,0.0,0.0,0.0,0.0,0.0,0.0,0.0,0.0,0.0,0.0,0.0,0.0,0.0,0.0,0.0,0.0,0.0,0.0,0.0,0.0,0.0,0.0,0.0,0.0,0.0,0.0,0.0,0.0,0.0,0.0,0.0,0.0,0.0,0.0,0.0,0.0,0.0,0.0,0.0,0.0,0.0,0.0,0.0,0.0,0.0,0.0,0.0,0.0,0.0,0.0,0.0,0.0,0.0,0.0,0.0,0.0,0.0,0.0,0.0,0.0,0.0,0.0,0.0,0.0,0.0,0.0,0.0,0.0,0.0,0.0,0.0,0.0,0.0,0.0,0.0,0.0,0.0,0.0,0.0,0.0,12.1335,12.3782,12.3622,12.3122,12.2294,11.6964,11.2648,0.0,0.0,0.0,0.0,0.0,0.0,0.0,0.0,0.0,0.0,0.0,0.0,0.0,0.0,0.0,0.0,0.0,0.0,0.0,0.0,0.0,0.0,0.0,0.0,0.0,0.0,0.0,0.0,0.0,0.0,0.0,0.0,0.0,0.0,0.0,0.0,0.0,0.0,0.0,0.0,0.0,0.0,0.0,0.0,0.0,0.0,0.0,0.0,10.0488,0.0,0.0,0.0,0.0,0.0,0.0,0.0,0.0,0.0,0.0,0.0,0.0,0.0,0.0,0.0,0.0,0.0,0.0,0.0,0.0,0.0,0.0,0.0,0.0,0.0,0.0,0.0,0.0,0.0,0.0,0.0,0.0,0.0,0.0,0.0,0.0,0.0,0.0,0.0,0.0,0.0,0.0,0.0,0.0,0.0,0.0,0.0,0.0,0.0,0.0,0.0,0.0,0.0,0.0,0.0,0.0,0.0,0.0,0.0,11.7806,11.7111,11.6031,11.5952,11.673,11.354,11.0926,0.0,0.0,0.0,0.0,0.0,0.0,0.0,0.0,0.0,0.0,0.0,0.0,0.0,0.0,0.0,0.0,0.0,0.0,0.0,0.0,0.0,0.0,0.0,0.0,0.0,0.0,0.0,0.0,0.0,0.0,0.0,0.0,0.0,0.0,0.0,0.0,0.0,0.0,0.0,0.0,0.0,0.0,0.0,0.0,0.0,0.0,0.0,0.0,0.0,0.0,0.0,0.0,0.0,0.0,0.0,0.0,0.0,0.0,0.0,0.0,0.0,0.0,0.0,0.0,0.0,0.0,0.0,0.0,0.0,0.0,0.0,0.0,0.0,0.0,0.0,0.0,0.0,0.0,0.0,0.0,0.0,0.0,0.0,0.0,0.0,0.0,0.0,0.0,0.0,0.0,0.0,0.0,0.0,0.0,0.0,0.0,0.0,0.0,0.0,0.0,0.0,0.0,0.0,0.0,0.0,0.0,0.0,0.0,11.5196,11.6148,11.568,11.4476,11.2406,11.1133,10.9401,0.0,0.0,0.0,0.0,0.0,0.0,0.0,0.0,0.0,0.0,0.0,0.0,0.0,0.0,0.0,0.0,0.0,0.0,0.0,0.0,0.0,0.0,0.0,0.0,0.0,0.0,0.0,0.0,0.0,0.0,0.0,0.0,0.0,0.0,0.0,0.0,0.0,0.0,0.0,0.0,0.0,0.0,0.0,0.0,0.0,0.0,0.0,0.0,0.0,0.0,0.0,0.0,0.0,0.0,0.0,0.0,0.0,0.0,0.0,0.0,0.0,0.0,0.0,0.0,0.0,0.0,0.0,0.0,0.0,0.0,0.0,0.0,0.0,0.0,0.0,0.0,0.0,0.0,0.0,0.0,0.0,0.0,0.0,0.0,0.0,0.0,0.0,0.0,0.0,0.0,0.0,0.0,0.0,0.0,0.0,0.0,0.0,0.0,0.0,0.0,0.0,0.0,0.0,0.0,0.0,0.0,0.0,0.0,0.0,11.4483,11.4178,11.2191,10.8668,10.9056,10.7749,0.0,0.0,0.0,0.0,0.0,0.0,0.0,0.0,0.0,0.0,0.0,0.0,0.0,0.0,0.0,0.0,0.0,0.0,0.0,0.0,0.0,0.0,0.0,0.0,0.0,0.0,0.0,0.0,0.0,0.0,0.0,0.0,0.0,0.0,0.0,0.0,0.0,0.0,0.0,0.0,0.0,0.0,0.0,0.0,0.0,0.0,0.0,0.0,0.0,0.0,0.0,0.0,0.0,0.0,0.0,0.0,0.0,0.0,0.0,0.0,0.0,0.0,0.0,0.0,0.0,0.0,0.0,0.0,0.0,0.0,0.0,0.0,0.0,0.0,0.0,0.0,0.0,0.0,0.0,0.0,0.0,0.0,0.0,0.0,0.0,0.0,0.0,0.0,0.0,0.0,0.0,0.0,0.0,0.0,0.0,0.0,0.0,0.0,0.0,0.0,0.0,0.0,0.0,0.0,0.0,0.0,0.0,0.0,0.0,11.0378,10.8776,10.7302,10.5697,10.7197,10.6012,0.0,0.0,0.0,0.0,0.0,0.0,0.0,0.0,0.0,0.0,0.0,0.0,0.0,0.0,0.0,0.0,0.0,0.0,0.0,0.0,0.0,0.0,0.0,0.0,0.0,0.0,0.0,0.0,0.0,0.0,0.0,0.0,0.0,0.0,0.0,0.0,0.0,0.0,0.0,0.0,0.0,0.0,0.0,0.0,0.0,0.0,0.0,0.0,0.0,0.0,0.0,0.0,0.0,0.0,0.0,0.0,0.0,0.0,0.0,0.0,0.0,0.0,0.0,0.0,0.0,0.0,0.0,0.0,0.0,0.0,0.0,0.0,0.0,0.0,0.0,0.0,0.0,0.0,0.0,0.0,0.0,0.0,0.0,0.0,0.0,0.0,0.0,0.0,0.0,0.0,0.0,0.0,0.0,0.0,0.0,0.0,0.0,0.0,0.0,0.0,0.0,0.0,0.0,0.0,0.0,0.0,0.0,0.0,0.0,10.7515,10.6848,10.6573,10.6975,10.5983,10.4646,10.2865,0.0,0.0,0.0,0.0,0.0,0.0,0.0,0.0,0.0,0.0,0.0,0.0,0.0,0.0,0.0,0.0,0.0,0.0,0.0,0.0,0.0,0.0,0.0,0.0,0.0,0.0,0.0,0.0,0.0,0.0,0.0,0.0,0.0,0.0,0.0,0.0,0.0,0.0,0.0,0.0,0.0,0.0,0.0,0.0,0.0,0.0,0.0,0.0,0.0,0.0,0.0,0.0,0.0,0.0,0.0,0.0,0.0,0.0,0.0,0.0,0.0,0.0,0.0,0.0,0.0,0.0,0.0,0.0,0.0,0.0,0.0,0.0,0.0,0.0,0.0,0.0,0.0,0.0,0.0,0.0,0.0,0.0,0.0,0.0,0.0,0.0,0.0,0.0,0.0,0.0,0.0,0.0,0.0,0.0,0.0,0.0,0.0,0.0,0.0,0.0,0.0,0.0,0.0,0.0,0.0,0.0,0.0,0.0,10.469,10.4879,10.5281,10.5809,10.4551,10.318,0.0,0.0,0.0,0.0,0.0,0.0,0.0,0.0,0.0,0.0,0.0,0.0,0.0,0.0,0.0,0.0,0.0,0.0,0.0,0.0,0.0,0.0,0.0,0.0,0.0,0.0,0.0,0.0,0.0,0.0,0.0,0.0,0.0,0.0,0.0,0.0,0.0,0.0,0.0,0.0,0.0,0.0,0.0,0.0,0.0,0.0,0.0,0.0,0.0,0.0,0.0,0.0,0.0,0.0,0.0,0.0,0.0,0.0,0.0,0.0,0.0,0.0,0.0,0.0,0.0,0.0,0.0,0.0,0.0,0.0,0.0,0.0,0.0,0.0,0.0,0.0,0.0,0.0,0.0,0.0,0.0,0.0,0.0,0.0,0.0,0.0,0.0,0.0,0.0,0.0,0.0,0.0,0.0,0.0,0.0,0.0,0.0,0.0,0.0,0.0,0.0,0.0,0.0,0.0,0.0,0.0,0.0,0.0,9.8845,10.1415,10.2633,10.2879,10.1661,10.2918,10.1699,0.0,0.0,0.0,0.0,0.0,0.0,0.0,0.0,0.0,0.0,0.0,0.0,0.0,0.0,0.0,0.0,0.0,0.0,0.0,0.0,0.0,0.0,0.0,0.0,0.0,0.0,0.0,0.0,0.0,0.0,0.0,0.0,0.0,0.0,0.0,0.0,0.0,0.0,0.0,0.0,0.0,0.0,0.0,0.0,0.0,0.0,0.0,0.0,0.0,0.0,0.0,0.0,0.0,0.0,0.0,0.0,0.0,0.0,0.0,0.0,0.0,0.0,0.0,0.0,0.0,0.0,0.0,0.0,0.0,0.0,0.0,0.0,0.0,0.0,0.0,0.0,0.0,0.0,0.0,0.0,0.0,0.0,0.0,0.0,0.0,0.0,0.0,0.0,0.0,0.0,0.0,0.0,0.0,0.0,0.0,0.0,0.0,0.0,0.0,0.0,0.0,0.0,0.0,0.0,0.0,0.0,0.0,0.0,0.0,9.8715,0.0,10.2975,0.0,10.2175,10.0688,0.0,0.0,0.0,0.0,0.0,0.0,0.0,0.0,0.0,0.0,0.0,0.0,0.0,0.0,0.0,0.0,0.0,0.0,0.0,0.0,0.0,0.0,0.0,0.0,0.0,0.0,0.0,0.0,0.0,0.0,0.0,0.0,0.0,0.0,0.0,0.0,0.0,0.0,0.0,0.0,0.0,0.0,0.0,0.0,0.0,0.0,0.0,0.0,0.0,0.0,0.0,0.0,0.0,0.0,0.0,0.0,0.0,0.0,0.0,0.0,0.0,0.0,0.0,0.0,0.0,0.0,0.0,0.0,0.0,0.0,0.0,0.0,0.0,0.0,0.0,0.0,0.0,0.0,0.0,0.0,0.0,0.0,0.0,0.0,0.0,0.0,0.0,0.0,0.0,0.0,0.0,0.0,0.0,0.0,0.0,0.0,0.0,0.0,0.0,0.0,0.0,0.0,0.0,0.0,0.0,0.0,0.0,0.0,0.0,9.7419,9.9164,10.1005,10.2797,10.0792,9.9461,0.0,0.0,0.0,0.0,0.0,0.0,0.0,0.0,0.0,0.0,0.0,0.0,0.0,0.0,0.0,0.0,0.0,0.0,0.0,0.0,0.0,0.0,0.0,0.0,0.0,0.0,0.0,0.0,0.0,0.0,0.0,0.0,0.0,0.0,0.0,0.0,0.0,0.0,0.0,0.0,0.0,0.0,0.0,0.0,0.0,0.0,0.0,0.0,0.0,0.0,0.0,0.0,0.0,0.0,0.0,0.0,0.0,0.0,0.0,0.0,0.0,0.0,0.0,0.0,0.0,0.0,0.0,0.0,0.0,0.0,0.0,0.0,0.0,0.0,0.0,0.0,0.0,0.0,0.0,0.0,0.0,0.0,0.0,0.0,0.0,0.0,0.0,0.0,0.0,0.0,0.0,0.0,0.0,0.0,0.0,0.0,0.0,0.0,0.0,0.0,0.0,0.0,0.0,0.0,0.0,0.0,0.0,0.0,0.0,0.0,9.7404,9.7469,9.755,9.8703,9.8146,0.0,0.0,0.0,0.0,0.0,0.0,0.0,0.0,0.0,0.0,0.0,0.0,0.0,0.0,0.0,0.0,0.0,0.0,0.0,0.0,0.0,0.0,0.0,0.0,0.0,0.0,0.0,0.0,0.0,0.0,0.0,0.0,0.0,0.0,0.0,0.0,0.0,0.0,0.0,0.0,0.0,0.0,0.0,0.0,0.0,0.0,0.0,0.0,0.0,0.0,0.0,0.0,0.0,0.0,0.0,0.0,0.0,0.0,0.0,0.0,0.0,0.0,0.0,0.0,0.0,0.0,0.0,0.0,0.0,0.0,0.0,0.0,0.0,0.0,0.0,0.0,0.0,0.0,0.0,0.0,0.0,0.0,0.0,0.0,0.0,0.0,0.0,0.0,0.0,0.0,0.0,0.0,0.0,0.0,0.0,0.0,0.0,0.0,0.0,0.0,0.0,0.0,0.0,0.0,0.0,0.0,0.0,0.0,0.0,0.0,9.6877,0.0,9.7404,9.7798,9.7601,9.6812,0.0,0.0,0.0,0.0,0.0,0.0,0.0,0.0,0.0,0.0,0.0,0.0,0.0,0.0,0.0,0.0,0.0,0.0,0.0,0.0,0.0,0.0,0.0,0.0,0.0,0.0,0.0,0.0,0.0,0.0,0.0,0.0,0.0,0.0,0.0,0.0,0.0,0.0,0.0,0.0,0.0,0.0,0.0,0.0,0.0,0.0,0.0,0.0,0.0,0.0,0.0,0.0,0.0,0.0,0.0,0.0,0.0,0.0,0.0,0.0,0.0,0.0,0.0,0.0,0.0,0.0,0.0,0.0,0.0,0.0,0.0,0.0,0.0,0.0,0.0,0.0,0.0,0.0,0.0,0.0,0.0,0.0,0.0,0.0,0.0,0.0,0.0,0.0,0.0,0.0,0.0,0.0,0.0,0.0,0.0,0.0,0.0,0.0,0.0,0.0,0.0,0.0,0.0,0.0,0.0,0.0,0.0,0.0,0.0,0.0,0.0,9.6533,9.6549,9.6549,0.0,0.0,0.0,0.0,0.0,0.0,0.0,0.0,0.0,0.0,0.0,0.0,0.0,0.0,0.0,0.0,0.0,0.0,0.0,0.0,0.0,0.0,0.0,0.0,0.0,0.0,0.0,0.0,0.0,0.0,0.0,0.0,0.0,0.0,0.0,0.0,0.0,0.0,0.0,0.0,0.0,0.0,0.0,0.0,0.0,0.0,0.0,0.0,0.0,0.0,0.0,0.0,0.0,0.0,0.0,0.0,0.0,0.0,0.0,0.0,0.0,0.0,0.0,0.0,0.0,0.0,0.0,0.0,0.0,0.0,0.0,0.0,0.0,0.0,0.0,0.0,0.0,0.0,0.0,0.0,0.0,0.0,0.0,0.0,0.0,0.0,0.0,0.0,0.0,0.0,0.0,0.0,0.0,0.0,0.0,0.0,0.0,0.0,0.0,0.0,0.0,0.0,0.0,0.0,0.0,0.0,0.0,0.0,0.0,0.0,0.0,9.5284,9.5284,9.5284,0.0,9.5284,0.0,0.0,0.0,0.0,0.0,0.0,0.0,0.0,0.0,0.0,0.0,0.0,0.0,0.0,0.0,0.0,0.0,0.0,0.0,0.0,0.0,0.0,0.0,0.0,0.0,0.0,0.0,0.0,0.0,0.0,0.0,0.0,0.0,0.0,0.0,0.0,0.0,0.0,0.0,0.0,0.0,0.0,0.0,0.0,0.0,0.0,0.0,0.0,0.0,0.0,0.0,0.0,0.0,0.0,0.0,0.0,0.0,0.0,0.0,0.0,0.0,0.0,0.0,0.0,0.0,0.0,0.0,0.0,0.0,0.0,0.0,0.0,0.0,0.0,0.0,0.0,0.0,0.0,0.0,0.0,0.0,0.0,0.0,0.0,0.0,0.0,0.0,0.0,0.0,0.0,0.0,0.0,0.0,0.0,0.0,0.0,0.0,0.0,0.0,0.0,0.0,0.0,0.0,0.0,0.0,0.0,0.0,0.0,0.0,0.0,0.0,0.0,9.5284,9.5284,9.5284,0.0,0.0,0.0,0.0,0.0,0.0,0.0,0.0,0.0,0.0,0.0,0.0,0.0,0.0,0.0,0.0,0.0,0.0,0.0,0.0,0.0,0.0,0.0,0.0,0.0,0.0,0.0,0.0,0.0,0.0,0.0,0.0,0.0,0.0,0.0,0.0,0.0,0.0,0.0,0.0,0.0,0.0,0.0,0.0,0.0,0.0,0.0,0.0,0.0,0.0,0.0,0.0,0.0,0.0,0.0,0.0,0.0,0.0,0.0,0.0,0.0,0.0,0.0,0.0,0.0,0.0,0.0,0.0,0.0,0.0,0.0,0.0,0.0,0.0,0.0,0.0,0.0,0.0,0.0,0.0,0.0,0.0,0.0,0.0,0.0,0.0,0.0,0.0,0.0,0.0,0.0,0.0,0.0,0.0,0.0,0.0,0.0,0.0,0.0,0.0,0.0,0.0,0.0,0.0,0.0,0.0,0.0,0.0,0.0,0.0,9.5284,9.5284,9.5284,9.5284,9.5284,0.0,0.0,0.0,0.0,0.0,0.0,0.0,0.0,0.0,0.0,0.0,0.0,0.0,0.0,0.0,0.0,0.0,0.0,0.0,0.0,0.0,0.0,0.0,0.0,0.0,0.0,0.0,0.0,0.0,0.0,0.0,0.0,0.0,0.0,0.0,0.0,0.0,0.0,0.0,0.0,0.0,0.0,0.0,0.0,0.0,0.0,0.0,0.0,0.0,0.0,0.0,0.0,0.0,0.0,0.0,0.0,0.0,0.0,0.0,0.0,0.0,0.0,0.0,0.0,0.0,0.0,0.0,0.0,0.0,0.0,0.0,0.0,0.0,0.0,0.0,0.0,0.0,0.0,0.0,0.0,0.0,0.0,0.0,0.0,0.0,0.0,0.0,0.0,0.0,0.0,0.0,0.0,0.0,0.0,0.0,0.0,0.0,0.0,0.0,0.0,0.0,0.0,0.0,0.0,0.0,0.0,0.0,0.0,0.0,0.0,0.0,0.0,0.0,0.0,9.5284,0.0,0.0,0.0,0.0,0.0,0.0,0.0,0.0,0.0,0.0,0.0,0.0,0.0,0.0,0.0,0.0,0.0,0.0,0.0,0.0,0.0,0.0,0.0,0.0,0.0,0.0,0.0,0.0,0.0,0.0,0.0,0.0,0.0,0.0,0.0,0.0,0.0,0.0,0.0,0.0,0.0,0.0,0.0,0.0,0.0,0.0,0.0,0.0,0.0,0.0,0.0,0.0,0.0,0.0,0.0,0.0,0.0,0.0,0.0,0.0,0.0,0.0,0.0,0.0,0.0,0.0,0.0,0.0,0.0,0.0,0.0,0.0,0.0,0.0,0.0,0.0,0.0,0.0,0.0,0.0,0.0,0.0,0.0,0.0,0.0,0.0,0.0,0.0,0.0,0.0,0.0,0.0,0.0,0.0,0.0,0.0,0.0,0.0,0.0,0.0,0.0,0.0,0.0,0.0,0.0,0.0,0.0,0.0,0.0,0.0,0.0,0.0,0.0,0.0,0.0,0.0,0.0,0.0,0.0,0.0,0.0,0.0,0.0,0.0,0.0,0.0,0.0,0.0,0.0,0.0,0.0,0.0,0.0,0.0,0.0,0.0,0.0,0.0,0.0,0.0,0.0,0.0,0.0,0.0,0.0,0.0,0.0,0.0,0.0,0.0,0.0,0.0,0.0,0.0,0.0,0.0,0.0,0.0,0.0,0.0,0.0,0.0,0.0,0.0,0.0,0.0,0.0,0.0,0.0,0.0,0.0,0.0,0.0,0.0,0.0,0.0,0.0,0.0,0.0,0.0,0.0,0.0,0.0,0.0,0.0,0.0,0.0,0.0,0.0,0.0,0.0,0.0,0.0,0.0,0.0,0.0,0.0,0.0,0.0,0.0,0.0,0.0,0.0,0.0,0.0,0.0,0.0,0.0,0.0,0.0,0.0,0.0,0.0,0.0,0.0,0.0,0.0,0.0,0.0,0.0,0.0,0.0,0.0,0.0,0.0,0.0,0.0,0.0,0.0,0.0,0.0,0.0,0.0,0.0,0.0,0.0,0.0,0.0,0.0,0.0,0.0,0.0,0.0,0.0,0.0,0.0,0.0,0.0,0.0,0.0,0.0,0.0,0.0,0.0,0.0,0.0,0.0,0.0,0.0,0.0,0.0,0.0,0.0,0.0,0.0,0.0,0.0,0.0,0.0,0.0,0.0,0.0,0.0,0.0,0.0,0.0,0.0,0.0,0.0,0.0,0.0,0.0,0.0,0.0,0.0,0.0,0.0,0.0,0.0,0.0,0.0,0.0,0.0,0.0,0.0,0.0,0.0,0.0,0.0,0.0,0.0,0.0,0.0,0.0,0.0,0.0,0.0,0.0,0.0,0.0,0.0,0.0,0.0,0.0,0.0,0.0,0.0,0.0,0.0,0.0,0.0,0.0,0.0,0.0,0.0,0.0,0.0,0.0,0.0,0.0,0.0,0.0,0.0,0.0,0.0,0.0,0.0,0.0,0.0,0.0,0.0,0.0,0.0,0.0,0.0,0.0,0.0,0.0,0.0,0.0,0.0,0.0,0.0,0.0,0.0,0.0,0.0,0.0,0.0,0.0,0.0,0.0,0.0,0.0,0.0,0.0,0.0,0.0,0.0,0.0,0.0,0.0,0.0,0.0,0.0,0.0,0.0,0.0,0.0,0.0,0.0,0.0,0.0,0.0,0.0,0.0,0.0,0.0,0.0,0.0,0.0,0.0,0.0,0.0,0.0,0.0,0.0,0.0,0.0,0.0,0.0,0.0,0.0,0.0,0.0,0.0,0.0,0.0,0.0,0.0,0.0,0.0,0.0,0.0,0.0,0.0,0.0,0.0,0.0,0.0,0.0,0.0,0.0,0.0,0.0,0.0,0.0,0.0,0.0,0.0,0.0,0.0,0.0,0.0,0.0,0.0,0.0,0.0,0.0,0.0,0.0,0.0,0.0,0.0,0.0,0.0,0.0,0.0,0.0,0.0,0.0,0.0,0.0,0.0,0.0,0.0,0.0,0.0,0.0,0.0,0.0,0.0,0.0,0.0,0.0,0.0,0.0,0.0,0.0,0.0,0.0,0.0,0.0,0.0,0.0,0.0,0.0,0.0,0.0,0.0,0.0,0.0,0.0,0.0,0.0,0.0,0.0,0.0,0.0,0.0,0.0,0.0,0.0,0.0,0.0,0.0,0.0,0.0,0.0,0.0,0.0,0.0,0.0,0.0,0.0,0.0,0.0,0.0,0.0,0.0,0.0,0.0,0.0,0.0,0.0,0.0,0.0,0.0,0.0,0.0,0.0,0.0,0.0,0.0,0.0,0.0,0.0,0.0,0.0,0.0,0.0,0.0,0.0,0.0,0.0,0.0,0.0,0.0,0.0,0.0,0.0,0.0,0.0,0.0,0.0,0.0,0.0,0.0,0.0,0.0,0.0,0.0,0.0,0.0,0.0,0.0,0.0,0.0,0.0,0.0,0.0,0.0,0.0,0.0,0.0,0.0,0.0,0.0,0.0,0.0,0.0,0.0,0.0,0.0,0.0,0.0,0.0,0.0,0.0,0.0,0.0,0.0,0.0,0.0,0.0,0.0,0.0,0.0,0.0,0.0,0.0,0.0,0.0,0.0,0.0,0.0,0.0,0.0,0.0,0.0,0.0,0.0,0.0,0.0,0.0,0.0,0.0,0.0,0.0,0.0,0.0,0.0,0.0,0.0,0.0,0.0,0.0,0.0,0.0,0.0,0.0,0.0,0.0,0.0,0.0,0.0,0.0,0.0,0.0,0.0,0.0,0.0,0.0,0.0,0.0,0.0,0.0,0.0,0.0,0.0,0.0,0.0,0.0,0.0,0.0,0.0,0.0,0.0,0.0,0.0,0.0,0.0,0.0,0.0,0.0,0.0,0.0,0.0,0.0,0.0,0.0,0.0,0.0,0.0,0.0,0.0,0.0,0.0,0.0,0.0,0.0,0.0,0.0,0.0,0.0,0.0,0.0,0.0,0.0,0.0,0.0,0.0,0.0,0.0,0.0,0.0,0.0,0.0,0.0,0.0,0.0,0.0,0.0,0.0,0.0,0.0,0.0,0.0,0.0,0.0,0.0,0.0,0.0,0.0,0.0,0.0,0.0,0.0,0.0,0.0,0.0,0.0,0.0,0.0,0.0,0.0,0.0,0.0,0.0,0.0,0.0,0.0,0.0,0.0,0.0,0.0,0.0,0.0,0.0,0.0,0.0,0.0,0.0,0.0,0.0,0.0,0.0,0.0,0.0,0.0,0.0,0.0,0.0,0.0,0.0,0.0,0.0,0.0,0.0,0.0,0.0,0.0,0.0,0.0,0.0,0.0,0.0,0.0,0.0,0.0,0.0,0.0,0.0,0.0,0.0,0.0,0.0,0.0,0.0,0.0,0.0,0.0,0.0,0.0,0.0,0.0,0.0,0.0,0.0,0.0,0.0,0.0,0.0,0.0,0.0,0.0,0.0,0.0,0.0,0.0,0.0,0.0,0.0,0.0,0.0,0.0,0.0,0.0,0.0,0.0,0.0,0.0,0.0,0.0,0.0,0.0,0.0,0.0,0.0,0.0,0.0,0.0,0.0,0.0,0.0,0.0,0.0,0.0,0.0,0.0,0.0,0.0,0.0,0.0,0.0,0.0,0.0,0.0,0.0,0.0,0.0,0.0,0.0,0.0,0.0,0.0,0.0,0.0,0.0,0.0,0.0,0.0,0.0,0.0,0.0,0.0,0.0,0.0,0.0,0.0,0.0,0.0,0.0,0.0,0.0,0.0,0.0,0.0,0.0,0.0,0.0,0.0,0.0,0.0,0.0,0.0,0.0,0.0,0.0,0.0,0.0,0.0,0.0,0.0,0.0,0.0,0.0,0.0,0.0,0.0,0.0,0.0,0.0,0.0,0.0,0.0,0.0,0.0,0.0,0.0,0.0,0.0,0.0,0.0,0.0,0.0,0.0,0.0,0.0,0.0,0.0,0.0,0.0,0.0,0.0,0.0,0.0,0.0,0.0,0.0,0.0,0.0,0.0,0.0,0.0,0.0,0.0,0.0,0.0,0.0,0.0,0.0,0.0,0.0,0.0,0.0,0.0,0.0,0.0,0.0,0.0,0.0,0.0,0.0,0.0,0.0,0.0,0.0,0.0,0.0,0.0,0.0,0.0,0.0,0.0,0.0,0.0,0.0,0.0,0.0,0.0,0.0,0.0,0.0,0.0,0.0,0.0,0.0,0.0,0.0,0.0,0.0,0.0,0.0,0.0,0.0,0.0,0.0,0.0,0.0,0.0,0.0,0.0,0.0,0.0,0.0,0.0,0.0,0.0,0.0,0.0,0.0,0.0,0.0,0.0,0.0,0.0,0.0]}],[{"header":{"parameterUnit":"kt","parameterCategory":2,"dx":1,"dy":1,"la1":29.587661999999998,"la2":31.0,"lo1":-88.76705300000003,"lo2":-86.6583820000003,"nx":115,"ny":88,"refTime":"2022-09-25T06:00:00:Z","depth":0,"parameterNumber":2,"parameterNumberName":"V-component_of_WINDS"},"data":[15.6136,15.6866,15.711,15.7158,15.7207,15.7402,15.7451,15.7646,15.8378,15.8723,15.8918,15.9552,15.9308,15.75,15.7451,15.7598,15.8085,15.8378,15.8622,15.872,15.9357,15.9848,15.9946,15.9455,15.9995,16.0092,16.004,16.0483,16.0776,16.0776,16.0776,16.0776,16.0776,16.0776,16.0776,16.0776,16.0776,16.0776,16.0776,16.0776,16.0776,16.0483,16.0581,16.0727,16.0776,16.0776,16.0776,16.0776,16.0776,16.0776,16.0776,16.0776,16.0776,16.0776,16.0776,16.0776,16.0776,16.0922,16.0922,16.102,16.1069,16.1264,16.1264,16.1215,16.1215,16.1166,16.1166,16.1166,16.1118,16.0971,16.0922,16.0825,16.0776,16.0776,16.0776,16.0776,16.0776,16.0776,16.0776,16.0776,16.0776,16.0776,16.0776,16.0776,16.0776,16.0776,16.0776,16.0776,16.0776,16.0776,16.0776,16.0776,16.0776,16.0776,16.0776,16.0776,16.0776,16.0776,16.0776,16.0776,16.0776,16.0776,16.0776,16.0776,16.0776,16.0776,16.0776,16.0776,16.0776,16.0776,16.0776,16.0776,16.0776,16.0776,16.0776,15.4722,15.4867,15.5745,15.6085,15.6183,15.7012,15.7354,15.7402,15.7546,15.7646,15.7646,15.7744,15.7793,15.75,15.7451,15.7451,15.7451,15.75,15.7598,15.7744,15.8039,15.843,15.8381,15.8137,15.8283,15.8527,15.8967,15.9699,16.0336,16.0336,16.0336,16.0727,16.0776,16.0727,16.0776,16.0727,16.0434,16.0336,16.0288,16.0532,16.0288,15.9796,15.9894,16.0385,16.0776,16.0776,16.0727,16.0727,16.0727,16.0727,16.0678,16.0727,16.0776,16.0776,16.0776,16.0776,16.0776,16.0776,16.0776,16.0776,16.0776,16.0776,16.0776,16.0825,16.0874,16.0874,16.0874,16.0874,16.0874,16.0825,16.0825,16.0776,16.0776,16.0776,16.0776,16.0776,16.0776,16.0776,16.0776,16.0776,16.0776,16.0776,16.0776,16.0776,16.0776,16.0776,16.0776,16.0776,16.0776,16.0776,16.0776,16.0776,16.0776,16.0776,16.0776,16.0776,16.0776,16.0776,16.0776,16.0776,16.0776,16.0776,16.0776,16.0776,16.0776,16.0776,16.0776,16.0776,16.0776,16.0776,16.0776,16.0776,16.0776,16.0776,16.0776,15.438,15.4429,15.4818,15.5013,15.5111,15.5501,15.5745,15.5843,15.6329,15.6282,15.5794,15.5745,15.5745,15.5745,15.5745,15.5599,15.5745,15.6331,15.6524,15.6866,15.7158,15.7207,15.7451,15.7598,15.7305,15.75,15.8037,15.8332,15.8622,15.8967,15.9015,15.882,15.8869,15.882,15.882,15.8918,15.882,15.8967,15.882,15.882,15.8671,15.8427,15.8625,15.8674,15.8918,15.8869,15.9064,15.9503,15.965,15.9848,16.0385,16.0581,16.0581,16.0629,16.0727,16.0776,16.0776,16.0776,16.0776,16.0776,16.0776,16.0776,16.0776,16.0776,16.0776,16.0776,16.0776,16.0776,16.0776,16.0776,16.0776,16.0776,16.0776,16.0776,16.0776,16.0776,16.0776,16.0776,16.0776,16.0776,16.0776,16.0776,16.0776,16.0776,16.0776,16.0776,16.0776,16.0776,16.0776,16.0776,16.0776,16.0776,16.0776,16.0776,16.0776,16.0776,16.0776,16.0776,16.0776,16.0776,16.0776,16.0776,16.0776,16.0776,16.0776,16.0776,16.0776,16.0776,16.0776,16.0776,16.0776,16.0776,16.0776,16.0776,16.0288,15.438,15.438,15.438,15.438,15.438,15.438,15.4379,15.4379,15.5208,15.5111,15.4427,15.4379,15.4478,15.4623,15.4623,15.4623,15.4671,15.5306,15.5501,15.5843,15.6136,15.6231,15.6573,15.6331,15.6475,15.6768,15.7012,15.711,15.7402,15.7549,15.7549,15.7549,15.7646,15.7793,15.7793,15.7744,15.7744,15.7793,15.7354,15.6868,15.7158,15.7158,15.7305,15.7549,15.7598,15.7744,15.789,15.8281,15.8527,15.8723,15.9552,15.9894,15.9992,16.0239,16.0434,16.0727,16.0776,16.0776,16.0776,16.0776,16.0776,16.0776,16.0776,16.0776,16.0776,16.0776,16.0776,16.0776,16.0776,16.0776,16.0776,16.0776,16.0776,16.0776,16.0776,16.0776,16.0776,16.0776,16.0776,16.0776,16.0776,16.0776,16.0776,16.0776,16.0776,16.0776,16.0776,16.0776,16.0776,16.0629,16.0629,16.0581,16.0629,16.0581,16.0776,16.0776,16.0776,16.0776,16.0629,16.0678,16.0776,16.0776,16.0776,16.0776,16.0678,16.0776,16.0776,16.0678,16.0678,16.0776,16.0776,16.0776,16.0776,15.9894,15.9406,15.438,15.438,15.438,15.438,15.438,15.438,15.438,15.438,15.4526,15.4427,15.4379,15.438,15.438,15.438,15.438,15.438,15.4476,15.4525,15.472,15.4525,15.5013,15.5062,15.5013,15.4671,15.516,15.516,15.5404,15.6038,15.6231,15.6573,15.6914,15.7451,15.7207,15.7012,15.6914,15.6914,15.6817,15.6622,15.5892,15.5355,15.5892,15.6134,15.6427,15.711,15.7256,15.7256,15.7305,15.7451,15.7598,15.7598,15.7793,15.789,15.8281,15.8723,15.965,16.004,16.0239,16.0336,16.0434,16.0434,16.0532,16.0727,16.0776,16.0678,16.0483,16.0385,16.0629,16.0678,16.0776,16.0776,16.0776,16.0776,16.0776,16.0776,16.0776,16.0776,16.0776,16.0776,16.0776,16.0776,16.0776,16.0776,16.0776,16.0776,16.0776,16.0776,16.0776,16.0776,16.0678,16.0483,16.0385,16.0236,16.004,15.9894,15.9992,15.9894,16.0288,16.0483,16.0434,16.0336,15.9848,16.0141,16.0678,16.0288,15.9848,16.0239,16.0288,16.0138,15.9992,16.004,16.0092,16.0483,15.9995,15.8918,15.8283,15.438,15.438,15.438,15.438,15.438,15.438,15.438,15.438,15.438,15.438,15.438,15.438,15.438,15.438,15.438,15.438,15.438,15.438,15.438,15.438,15.4427,15.438,15.438,15.4429,15.438,15.4478,15.4769,15.5062,15.5013,15.5452,15.5648,15.5696,15.5599,15.555,15.5646,15.5743,15.5745,15.5355,15.5013,15.472,15.4818,15.5013,15.516,15.5404,15.5452,15.5452,15.555,15.6231,15.6427,15.6475,15.7305,15.7402,15.7549,15.7744,15.8427,15.8625,15.8918,15.9211,15.9601,15.9699,16.0141,16.0532,16.0776,16.0385,16.0044,15.9799,16.004,16.0284,16.0532,16.0678,16.0727,16.0727,16.0727,16.0727,16.0727,16.0727,16.0727,16.0727,16.0776,16.0776,16.0678,16.0678,16.0678,16.0776,16.0727,16.0483,16.0385,16.0336,16.0141,15.9699,15.9406,15.9357,15.9211,15.9113,15.8723,15.8476,15.8723,15.8869,15.9162,15.9162,15.8771,15.8771,15.9015,15.9015,15.8967,15.8771,15.8674,15.8869,15.9113,15.8625,15.8527,15.8674,15.8332,15.7551,15.7161,15.438,15.438,15.438,15.438,15.438,15.438,15.438,15.438,15.438,15.438,15.438,15.438,15.438,15.438,15.438,15.438,15.438,15.438,15.438,15.438,15.438,15.438,15.438,15.438,15.438,15.438,15.4429,15.4476,15.4429,15.4429,15.4476,15.438,15.4623,15.4574,15.4525,15.4429,15.4476,15.4427,15.4476,15.4478,15.4427,15.4476,15.4476,15.4574,15.4623,15.4623,15.4671,15.5208,15.5404,15.5501,15.6185,15.6475,15.6622,15.6866,15.7012,15.7012,15.7402,15.7695,15.8329,15.8525,15.882,15.9357,15.9601,15.9211,15.8918,15.8622,15.8918,15.9113,15.9308,15.9211,15.9211,15.9211,15.9211,15.9455,15.9748,15.9845,16.004,16.0187,16.0776,16.0629,16.0044,15.9946,15.9357,15.9455,15.9601,15.9699,15.9699,15.9552,15.9259,15.8476,15.8085,15.8037,15.7988,15.8183,15.7793,15.7451,15.7402,15.7354,15.7744,15.789,15.7744,15.7695,15.7549,15.7695,15.8037,15.7841,15.7354,15.7646,15.8134,15.7646,15.7305,15.7012,15.6719,15.6378,15.5939,15.438,15.438,15.438,15.438,15.438,15.438,15.438,15.438,15.438,15.438,15.438,15.438,15.438,15.438,15.438,15.438,15.438,15.438,15.438,15.438,15.438,15.438,15.438,15.438,15.438,15.438,15.438,15.438,15.438,15.438,15.438,15.438,15.438,15.438,15.438,15.438,15.438,15.438,15.438,15.438,15.438,15.438,15.438,15.438,15.438,15.438,15.4379,15.4476,15.4525,15.4574,15.4673,15.4574,15.4818,15.5452,15.5794,15.6233,15.6866,15.711,15.7451,15.75,15.7695,15.75,15.76,15.7598,15.75,15.75,15.7793,15.7988,15.8281,15.8037,15.789,15.7939,15.8037,15.8381,15.8771,15.8967,15.9211,15.9601,16.0138,16.0092,15.9406,15.9015,15.8478,15.8134,15.8281,15.8232,15.8039,15.7942,15.7405,15.6719,15.667,15.6622,15.6817,15.711,15.711,15.6817,15.667,15.6378,15.667,15.6622,15.7061,15.711,15.667,15.6573,15.7061,15.711,15.6622,15.667,15.7012,15.7061,15.6719,15.6329,15.5599,15.5257,15.5208,15.438,15.438,15.438,15.438,15.438,15.438,15.438,15.438,15.438,15.438,15.438,15.438,15.438,15.438,15.438,15.438,15.438,15.438,15.438,15.438,15.438,15.438,15.438,15.438,15.438,15.438,15.438,15.438,15.438,15.438,15.438,15.438,15.438,15.438,15.438,15.438,15.438,15.438,15.438,15.438,15.438,15.438,15.438,15.438,15.438,15.438,15.438,15.438,15.438,15.4379,15.4429,15.4429,15.4478,15.4671,15.4818,15.4867,15.5355,15.5794,15.6231,15.6427,15.6085,15.5745,15.5452,15.5745,15.628,15.6378,15.6719,15.711,15.75,15.75,15.7549,15.7598,15.7646,15.7598,15.789,15.789,15.8085,15.8183,15.8625,15.8476,15.8037,15.7939,15.7646,15.7402,15.7012,15.6622,15.628,15.5843,15.5355,15.5208,15.516,15.516,15.5306,15.555,15.5696,15.5843,15.5743,15.5501,15.5306,15.5111,15.555,15.6038,15.5648,15.5404,15.5648,15.5794,15.5599,15.555,15.555,15.5599,15.5743,15.5404,15.4574,15.4476,15.4623,15.3257,15.3207,15.3598,15.3549,15.3207,15.3207,15.3207,15.3207,15.3256,15.3403,15.3695,15.3744,15.3891,15.4232,15.438,15.438,15.438,15.438,15.438,15.438,15.438,15.438,15.438,15.438,15.438,15.438,15.438,15.438,15.438,15.438,15.438,15.438,15.438,15.438,15.4331,15.438,15.438,15.438,15.4331,15.4331,15.438,15.438,15.438,15.438,15.438,15.438,15.438,15.438,15.438,15.438,15.438,15.438,15.438,15.4429,15.4427,15.4429,15.4429,15.472,15.5111,15.5355,15.5013,15.4671,15.4525,15.4867,15.5208,15.5355,15.5696,15.6136,15.6136,15.6185,15.6475,15.6427,15.6524,15.6524,15.6914,15.6914,15.7012,15.711,15.7207,15.7158,15.6963,15.6866,15.6622,15.628,15.5892,15.5501,15.5355,15.4818,15.4771,15.4526,15.4429,15.438,15.438,15.438,15.4379,15.4818,15.4916,15.4867,15.4623,15.438,15.438,15.4671,15.4623,15.4818,15.4574,15.438,15.4671,15.4867,15.4476,15.438,15.472,15.4574,15.438,15.438,15.438,15.1157,15.1157,15.2133,15.1986,15.1157,15.106,15.1157,15.1401,15.1353,15.1841,15.2523,15.2622,15.3158,15.3793,15.3794,15.3695,15.3744,15.3892,15.3891,15.3744,15.3598,15.3988,15.3988,15.4037,15.3939,15.4232,15.438,15.438,15.438,15.438,15.438,15.438,15.3941,15.3843,15.4185,15.4234,15.4234,15.4234,15.4087,15.3941,15.3892,15.3744,15.3744,15.3695,15.3745,15.3598,15.3695,15.3744,15.3939,15.4037,15.4135,15.438,15.438,15.438,15.438,15.438,15.438,15.438,15.4429,15.4429,15.4427,15.4429,15.438,15.4427,15.4429,15.4478,15.472,15.5013,15.4867,15.4722,15.4575,15.4525,15.472,15.4964,15.5648,15.5941,15.6136,15.6183,15.6329,15.6378,15.6134,15.5843,15.555,15.5208,15.4818,15.4673,15.4478,15.438,15.4429,15.438,15.438,15.438,15.438,15.438,15.438,15.438,15.438,15.438,15.438,15.438,15.438,15.438,15.438,15.4429,15.438,15.438,15.438,15.438,15.438,15.438,15.438,15.438,15.438,15.438,15.438,15.1011,15.106,15.1353,15.0913,15.0084,15.0718,15.1011,15.1011,15.0962,15.1255,15.145,15.1499,15.1743,15.1938,15.2085,15.2085,15.2231,15.2182,15.2085,15.2134,15.2182,15.1987,15.228,15.267,15.3158,15.3354,15.3744,15.4183,15.4086,15.4281,15.4185,15.3647,15.2914,15.2329,15.2134,15.2036,15.1987,15.1987,15.1987,15.1987,15.2085,15.2134,15.2134,15.2182,15.2231,15.2231,15.2378,15.2866,15.311,15.3354,15.3695,15.4183,15.4331,15.438,15.438,15.438,15.438,15.438,15.438,15.438,15.438,15.4234,15.4282,15.438,15.438,15.438,15.438,15.438,15.438,15.4429,15.4429,15.438,15.438,15.438,15.4964,15.5111,15.5306,15.5404,15.555,15.5696,15.5257,15.4916,15.472,15.4769,15.4526,15.4478,15.438,15.438,15.438,15.438,15.438,15.438,15.438,15.438,15.438,15.438,15.438,15.438,15.438,15.438,15.438,15.438,15.438,15.438,15.438,15.438,15.438,15.438,15.438,15.438,15.438,15.438,15.438,15.438,15.438,14.9839,14.9839,14.9839,14.9498,14.8912,14.9546,14.9839,14.9839,14.9791,14.9839,14.9839,15.023,15.062,15.0962,15.1011,15.1011,15.1011,15.1011,15.1109,15.1011,15.1011,15.1011,15.1157,15.1694,15.1938,15.2182,15.2573,15.3061,15.311,15.2817,15.3012,15.2817,15.1841,15.1157,15.1011,15.1255,15.1206,15.1109,15.1109,15.106,15.1011,15.1011,15.1011,15.1011,15.1011,15.1011,15.106,15.1694,15.1889,15.2134,15.2622,15.2768,15.2817,15.3354,15.3549,15.3499,15.4135,15.4281,15.438,15.3891,15.3695,15.3695,15.4086,15.438,15.438,15.438,15.438,15.438,15.438,15.438,15.438,15.438,15.438,15.438,15.4429,15.4427,15.4525,15.4671,15.4769,15.5013,15.4623,15.438,15.438,15.438,15.438,15.438,15.438,15.438,15.438,15.438,15.438,15.438,15.438,15.438,15.438,15.438,15.438,15.438,15.438,15.438,15.438,15.438,15.438,15.438,15.438,15.438,15.438,15.438,15.438,15.438,15.438,15.438,15.438,15.438,15.438,14.7935,14.7935,14.7983,14.8032,14.8032,14.7935,14.7983,14.8228,14.813,14.813,14.8374,14.8912,14.9888,15.0425,15.0474,15.0474,15.0669,15.0816,15.0523,15.0572,15.0767,15.0474,15.0523,15.062,15.0962,15.0962,15.145,15.145,15.1157,15.1304,15.0816,15.0767,15.0425,15.0669,15.0572,15.0279,15.0328,15.0376,15.0376,15.0474,15.0474,15.0474,15.0523,15.0572,15.0669,15.0816,15.0767,15.0865,15.0913,15.0962,15.1353,15.1499,15.1743,15.2231,15.2474,15.2621,15.3207,15.35,15.3451,15.2914,15.2523,15.2767,15.3207,15.3695,15.3842,15.4086,15.4281,15.4281,15.438,15.438,15.438,15.438,15.438,15.438,15.438,15.438,15.438,15.438,15.438,15.438,15.438,15.438,15.438,15.438,15.438,15.438,15.438,15.438,15.438,15.438,15.438,15.438,15.438,15.438,15.438,15.438,15.438,15.438,15.438,15.438,15.438,15.438,15.438,15.438,15.438,15.438,15.438,15.438,15.438,15.438,15.438,15.438,15.438,15.438,15.438,14.7935,14.7935,14.7935,14.7935,14.7935,14.7935,14.7935,14.7935,14.7935,14.7935,14.8032,14.8228,14.8521,14.8668,14.8814,14.8912,14.8765,14.8716,14.8668,14.8668,14.8668,14.8862,14.9107,14.9595,14.9888,14.9888,15.0376,15.0718,15.0376,14.9742,14.8912,14.8668,14.9009,14.8912,14.8765,14.8912,14.8961,14.8961,14.8961,14.8912,14.8863,14.8862,14.8814,14.8814,14.8765,14.8668,14.8814,14.9351,14.9791,14.9986,15.0425,15.0718,15.0816,15.1157,15.1401,15.1499,15.1548,15.1889,15.1743,15.1694,15.1499,15.1499,15.1841,15.2426,15.2866,15.3011,15.3206,15.4037,15.4086,15.4185,15.438,15.4281,15.4281,15.4281,15.438,15.438,15.438,15.438,15.438,15.438,15.438,15.438,15.438,15.438,15.438,15.438,15.438,15.438,15.438,15.438,15.438,15.438,15.438,15.438,15.438,15.438,15.438,15.438,15.438,15.438,15.438,15.438,15.438,15.438,15.438,15.438,15.438,15.438,15.438,15.438,15.438,15.438,15.438,15.438,15.4331,14.7935,14.7935,14.7935,14.7935,14.7935,14.7935,14.7935,14.7935,14.7935,14.7935,14.7935,14.7935,14.7935,14.8032,14.7935,14.7935,14.7935,14.8032,14.7983,14.8032,14.8032,14.8032,14.813,14.8521,14.8765,14.896,14.9351,14.9839,14.94,14.8521,14.7983,14.8032,14.7983,14.7935,14.8179,14.7983,14.7935,14.7935,14.7935,14.7935,14.7935,14.7983,14.7983,14.7983,14.8032,14.8032,14.813,14.857,14.8765,14.8912,14.9254,14.9693,14.9791,15.0084,15.0376,15.0328,14.9986,14.9791,14.9791,15.0132,15.0279,15.0376,15.0816,15.1206,15.1694,15.1938,15.228,15.2914,15.2914,15.311,15.3403,15.3549,15.3842,15.4183,15.438,15.438,15.438,15.438,15.4331,15.438,15.438,15.438,15.438,15.4331,15.4234,15.4234,15.4135,15.4086,15.4037,15.3988,15.3988,15.4086,15.4037,15.4037,15.3939,15.3939,15.3793,15.3939,15.3939,15.4135,15.4232,15.4331,15.438,15.438,15.4087,15.4136,15.438,15.4232,15.4086,15.4183,15.438,15.438,15.438,15.4331,15.3793,14.7935,14.7935,14.7935,14.7935,14.7935,14.7935,14.7935,14.7935,14.7935,14.7935,14.7935,14.7935,14.7935,14.7935,14.7935,14.7935,14.7935,14.7935,14.7935,14.7935,14.7935,14.7935,14.7983,14.7935,14.813,14.8228,14.8179,14.7935,14.813,14.8179,14.7935,14.7935,14.7935,14.7935,14.7935,14.7935,14.7935,14.7935,14.7935,14.7935,14.7935,14.7935,14.7935,14.7935,14.7935,14.7935,14.7983,14.8032,14.813,14.8081,14.8032,14.7983,14.8081,14.8814,14.9205,14.9058,14.8569,14.7983,14.8276,14.8863,14.9302,14.9449,14.9888,15.0474,15.0621,15.062,15.0962,15.0913,15.1157,15.1645,15.2329,15.2377,15.2914,15.3305,15.3451,15.3648,15.3988,15.3647,15.3988,15.4037,15.3355,15.355,15.3695,15.3892,15.4038,15.3939,15.3891,15.3744,15.3598,15.3354,15.3256,15.311,15.3012,15.3012,15.2963,15.311,15.3158,15.3403,15.3598,15.3842,15.3939,15.4037,15.4135,15.4087,15.3599,15.3501,15.3207,15.3305,15.3695,15.3549,15.311,15.3403,15.4038,15.3744,15.3207,14.7935,14.7935,14.7935,14.7935,14.7935,14.7935,14.7935,14.7935,14.7935,14.7935,14.7935,14.7935,14.7935,14.7935,14.7935,14.7935,14.7935,14.7935,14.7935,14.7935,14.7935,14.7935,14.7935,14.7935,14.7935,14.7935,14.7935,14.7935,14.7935,14.7935,14.7935,14.7935,14.7935,14.7935,14.7935,14.7935,14.7935,14.7935,14.7935,14.7935,14.7935,14.7935,14.7935,14.7935,14.7935,14.7935,14.7935,14.7935,14.7935,14.7935,14.7935,14.7935,14.7935,14.813,14.8228,14.8228,14.8081,14.7983,14.7983,14.8325,14.8423,14.8472,14.8472,14.857,14.8814,14.9498,15.0084,15.0816,15.0913,15.106,15.1255,15.1353,15.1548,15.1841,15.1938,15.1987,15.267,15.3061,15.3305,15.3061,15.2329,15.2134,15.2085,15.2231,15.2475,15.2475,15.2524,15.2426,15.2475,15.2329,15.2378,15.2182,15.2134,15.2085,15.2182,15.2378,15.2426,15.2573,15.2768,15.2963,15.3256,15.35,15.3793,15.3793,15.3256,15.2378,15.1841,15.1645,15.2182,15.2378,15.1889,15.1889,15.228,15.2231,15.2085,14.7935,14.7935,14.7935,14.7935,14.7935,14.7935,14.7935,14.7935,14.7935,14.7935,14.7935,14.7935,14.7935,14.7935,14.7935,14.7935,14.7935,14.7935,14.7935,14.7935,14.7935,14.7935,14.7935,14.7935,14.7935,14.7935,14.7935,14.7935,14.7935,14.7935,14.7935,14.7935,14.7935,14.7935,14.7935,14.7935,14.7935,14.7935,14.7935,14.7935,14.7935,14.7935,14.7935,14.7935,14.7935,14.7935,14.7935,14.7935,14.7935,14.7935,14.7935,14.7935,14.7935,14.7983,14.7983,14.7983,14.7983,14.7935,14.7935,14.7935,14.7935,14.7935,14.7983,14.7935,14.813,14.8423,14.8863,14.9351,14.9546,14.9742,15.023,15.0279,15.0523,15.0865,15.1109,15.1401,15.1645,15.1791,15.2085,15.2231,15.1548,15.106,15.0816,15.0767,15.0962,15.1011,15.1109,15.1157,15.1255,15.1353,15.1499,15.145,15.1499,15.1499,15.1548,15.1548,15.1597,15.1548,15.1645,15.1841,15.2036,15.2134,15.2475,15.2768,15.2378,15.1499,15.1011,15.0718,15.0913,15.1157,15.106,15.1011,15.0962,15.0865,15.0816,14.7935,14.7935,14.7935,14.7935,14.7935,14.7935,14.7935,14.7935,14.7935,14.7935,14.7935,14.7935,14.7935,14.7935,14.7935,14.7935,14.7935,14.7935,14.7935,14.7935,14.7935,14.7935,14.7935,14.7935,14.7935,14.7935,14.7935,14.7935,14.7935,14.7935,14.7935,14.7935,14.7935,14.7935,14.7935,14.7935,14.7935,14.7935,14.7935,14.7935,14.7935,14.7935,14.7935,14.7935,14.7935,14.7935,14.7935,14.7935,14.7935,14.7935,14.7935,14.7935,14.7935,14.7935,14.7935,14.7935,14.7935,14.7935,14.7935,14.7935,14.7935,14.7935,14.7935,14.7935,14.7935,14.8032,14.8228,14.8228,14.8228,14.8326,14.9156,14.9254,14.9693,15.0181,15.0279,15.0376,15.062,15.0523,15.0425,15.0523,15.0523,15.0279,14.9937,14.9839,14.9791,14.9693,14.9742,14.9791,14.9839,14.9986,15.0279,15.0425,15.062,15.0669,15.0669,15.0523,15.0376,15.0279,15.0474,15.062,15.0767,15.0816,15.062,15.0621,15.0328,15.0181,15.0181,15.0181,15.0084,14.9791,15.0132,15.0425,15.0035,14.9644,14.9595,14.7935,14.7935,14.7935,14.7935,14.7935,14.7935,14.7935,14.7935,14.7935,14.7935,14.7935,14.7935,14.7935,14.7935,14.7935,14.7935,14.7935,14.7935,14.7935,14.7935,14.7935,14.7935,14.7935,14.7935,14.7935,14.7935,14.7935,14.7935,14.7935,14.7935,14.7935,14.7935,14.7935,14.7935,14.7935,14.7935,14.7935,14.7935,14.7935,14.7935,14.7935,14.7935,14.7935,14.7935,14.7935,14.7935,14.7935,14.7935,14.7935,14.7935,14.7935,14.7935,14.7935,14.7935,14.7935,14.7935,14.7935,14.7935,14.7935,14.7935,14.7935,14.7935,14.7935,14.7935,14.7935,14.7935,14.7935,14.7935,14.7983,14.8081,14.813,14.8325,14.8423,14.8521,14.8472,14.8814,14.9302,14.8912,14.8716,14.8667,14.8912,14.9058,14.8863,14.8912,14.857,14.8326,14.8374,14.8325,14.8325,14.8423,14.8716,14.8863,14.9107,14.9205,14.9156,14.9058,14.8912,14.8961,14.9254,14.9498,14.9742,14.9888,14.9888,14.9254,14.8814,14.8667,14.8668,14.9009,14.8961,14.8424,14.857,14.9107,14.8912,14.8472,14.8423,14.7349,14.7935,14.7935,14.7935,14.7935,14.7935,14.7935,14.7935,14.7935,14.7935,14.7935,14.7935,14.7935,14.7935,14.7935,14.7935,14.7935,14.7935,14.7935,14.7935,14.7935,14.7935,14.7935,14.7935,14.7935,14.7935,14.7935,14.7935,14.7935,14.7935,14.7935,14.7935,14.7935,14.7935,14.7935,14.7935,14.7935,14.7935,14.7935,14.7935,14.7935,14.7935,14.7935,14.7935,14.7935,14.7935,14.7935,14.7935,14.7935,14.7935,14.7935,14.7935,14.7935,14.7935,14.7935,14.7935,14.7935,14.7935,14.7935,14.7935,14.7935,14.7935,14.7935,14.7935,14.7935,14.7935,14.7935,14.7935,14.7935,14.7935,14.7935,14.7935,14.7983,14.7935,14.7983,14.813,14.8472,14.8276,14.7935,14.7935,14.7935,14.7935,14.7935,14.8228,14.8081,14.813,14.8081,14.8081,14.7935,14.7935,14.7935,14.7935,14.7935,14.7935,14.7935,14.7935,14.7935,14.8228,14.8569,14.8716,14.8863,14.9009,14.9156,14.8765,14.8374,14.7983,14.7935,14.7935,14.813,14.8032,14.8032,14.7983,14.8032,14.813,14.8081,14.6374,14.7203,14.7203,14.7203,14.7252,14.7447,14.7496,14.7545,14.7789,14.7935,14.7935,14.7935,14.7935,14.7935,14.7935,14.7935,14.7935,14.7935,14.7935,14.7935,14.7935,14.7935,14.7935,14.7935,14.7935,14.7935,14.7935,14.7935,14.7935,14.7935,14.7935,14.7935,14.7935,14.7935,14.7935,14.7935,14.7935,14.7935,14.7935,14.7935,14.7935,14.7935,14.7935,14.7935,14.7935,14.7935,14.7935,14.7935,14.7642,14.7301,14.7153,14.691,14.6959,14.7008,14.7154,14.7301,14.7496,14.7642,14.7886,14.7935,14.7935,14.7935,14.7935,14.7935,14.7935,14.7935,14.7935,14.7935,14.7935,14.7935,14.7935,14.7935,14.7935,14.7935,14.7935,14.7983,14.7983,14.7983,14.7935,14.7935,14.7935,14.7935,14.7935,14.7935,14.7935,14.7935,14.7983,14.7935,14.7935,14.7935,14.7935,14.7935,14.7935,14.7935,14.7935,14.7935,14.7935,14.813,14.8179,14.8276,14.8276,14.8325,14.8472,14.8276,14.7935,14.7935,14.7935,14.7935,14.7935,14.7935,14.7935,14.7935,14.7935,14.7935,14.7935,14.4863,14.4959,14.4959,14.5008,14.5252,14.5936,14.6375,14.6571,14.7301,14.7739,14.7739,14.7886,14.7641,14.7935,14.7544,14.7837,14.7788,14.7593,14.7739,14.7837,14.7788,14.769,14.7545,14.7544,14.7544,14.7641,14.7886,14.7837,14.7739,14.7837,14.7886,14.7935,14.7935,14.7935,14.7935,14.7935,14.7935,14.7935,14.7935,14.7935,14.7935,14.7935,14.7935,14.7935,14.7886,14.774,14.774,14.7641,14.6959,14.5105,14.4959,14.5203,14.5105,14.5056,14.5447,14.618,14.6375,14.6765,14.7594,14.7641,14.7788,14.769,14.7739,14.7935,14.7837,14.7935,14.7935,14.7935,14.7935,14.7935,14.7935,14.7935,14.7935,14.7935,14.7935,14.7935,14.7935,14.7935,14.7935,14.7935,14.7935,14.7935,14.7935,14.7935,14.7935,14.7935,14.7935,14.7935,14.7935,14.7935,14.7935,14.7935,14.7935,14.7935,14.7935,14.7935,14.7935,14.7935,14.7935,14.7935,14.7935,14.7935,14.7935,14.7935,14.7935,14.7935,14.7935,14.7935,14.7935,14.7935,14.7935,14.7935,14.7935,14.7935,14.7935,14.408,14.4666,14.4666,14.4666,14.4668,14.5107,14.5302,14.5351,14.5837,14.6031,14.5984,14.5984,14.5984,14.6031,14.6031,14.5984,14.5984,14.5984,14.6374,14.6813,14.6863,14.6569,14.613,14.5984,14.5984,14.6033,14.6031,14.6374,14.6813,14.6911,14.7301,14.7739,14.7935,14.7935,14.7837,14.7935,14.7935,14.7935,14.7935,14.7935,14.7935,14.7935,14.7935,14.7837,14.7204,14.6911,14.6813,14.6373,14.5642,14.4863,14.4617,14.4666,14.4666,14.4666,14.4814,14.5204,14.5253,14.5448,14.5935,14.5984,14.6031,14.6081,14.6618,14.6813,14.696,14.7594,14.7935,14.7886,14.7935,14.7935,14.7935,14.7935,14.7935,14.7935,14.7935,14.7935,14.7935,14.7935,14.7935,14.7935,14.7935,14.7935,14.7935,14.7935,14.7935,14.7935,14.7935,14.7935,14.7935,14.7935,14.7935,14.7935,14.7935,14.7935,14.7935,14.7935,14.7935,14.7935,14.7935,14.7935,14.7935,14.7935,14.7935,14.7935,14.7935,14.7935,14.7935,14.7935,14.7935,14.7935,14.7935,14.7935,14.7935,14.7935,14.7935,14.2811,14.3741,14.3741,14.3787,14.3789,14.4082,14.4227,14.4229,14.4473,14.4812,14.4715,14.4666,14.4764,14.4666,14.4715,14.4666,14.4764,14.4764,14.5107,14.5692,14.5546,14.496,14.4715,14.4666,14.4668,14.4764,14.4861,14.5009,14.5741,14.579,14.6131,14.7056,14.6861,14.6959,14.7056,14.691,14.7056,14.7056,14.7008,14.6959,14.6959,14.6959,14.7056,14.7008,14.6228,14.5839,14.5692,14.5009,14.4471,14.3887,14.3741,14.3741,14.3594,14.3594,14.3741,14.4082,14.418,14.4277,14.4617,14.4764,14.4715,14.4668,14.54,14.5742,14.579,14.6569,14.6959,14.7105,14.7349,14.7447,14.7496,14.7739,14.7935,14.7886,14.7545,14.7496,14.7837,14.7935,14.7935,14.7935,14.7935,14.7935,14.7935,14.7935,14.7935,14.7935,14.7935,14.7935,14.7935,14.7935,14.7935,14.7935,14.7935,14.7935,14.7935,14.7935,14.7935,14.7935,14.7886,14.7837,14.7837,14.7886,14.7935,14.7935,14.7935,14.7935,14.7935,14.7935,14.7935,14.7935,14.7935,14.7935,14.7935,14.7935,14.7935,14.052,14.1447,14.1496,14.1496,14.1643,14.2518,14.2958,14.3251,14.3983,14.4324,14.4471,14.4277,14.4375,14.452,14.4275,14.4229,14.4568,14.4373,14.4375,14.4229,14.3836,14.3692,14.418,14.418,14.4227,14.4324,14.4326,14.4521,14.4668,14.4716,14.4764,14.5056,14.5154,14.491,14.5154,14.491,14.5105,14.5154,14.5008,14.5056,14.5056,14.5008,14.5008,14.5008,14.4814,14.4716,14.4619,14.4131,14.3253,14.1789,14.1496,14.1496,14.1496,14.1496,14.1935,14.2762,14.3102,14.3397,14.4275,14.408,14.418,14.4275,14.4473,14.4668,14.4716,14.5009,14.5252,14.5252,14.5839,14.6278,14.6473,14.7009,14.7594,14.7691,14.6813,14.6765,14.769,14.7788,14.7544,14.769,14.7886,14.7837,14.7593,14.7641,14.7641,14.769,14.7642,14.7642,14.7739,14.7837,14.7935,14.7935,14.7935,14.7935,14.7935,14.7935,14.7935,14.7886,14.7642,14.7594,14.7545,14.7788,14.7935,14.7935,14.7935,14.7935,14.7935,14.7935,14.7935,14.7935,14.7935,14.7935,14.7935,14.7935,14.7935,13.9004,13.9346,13.9346,13.9346,13.9444,13.9785,14.0371,14.1005,14.1399,14.1935,14.2472,14.257,14.2521,14.2521,14.257,14.257,14.2521,14.2521,14.257,14.2472,14.2082,14.2131,14.2472,14.2521,14.257,14.257,14.2521,14.2911,14.3592,14.369,14.3936,14.452,14.4666,14.4617,14.4666,14.4666,14.4666,14.4666,14.4617,14.4666,14.4617,14.4666,14.4666,14.452,14.3983,14.369,14.3446,14.1591,14.0224,13.9541,13.9346,13.9346,13.9395,13.9395,13.9541,13.9977,14.0124,14.0517,14.1399,14.1737,14.1835,14.257,14.3204,14.3592,14.3739,14.4326,14.4617,14.4666,14.496,14.5204,14.5253,14.5642,14.5789,14.5837,14.54,14.54,14.5691,14.5837,14.5886,14.6031,14.5935,14.5885,14.5837,14.5837,14.5837,14.5984,14.6423,14.6813,14.696,14.7398,14.7788,14.7935,14.769,14.7593,14.7837,14.7837,14.7837,14.7496,14.7154,14.6911,14.691,14.7154,14.7446,14.7349,14.7446,14.7397,14.7642,14.7739,14.7837,14.7935,14.7935,14.7935,14.7935,14.7935,14.7935,13.7926,13.8219,13.8219,13.8219,13.8219,13.8219,13.8565,13.9248,13.9297,13.9688,14.0273,14.0325,14.0325,14.0371,14.0325,14.052,14.0813,14.0472,14.0325,14.0371,14.0325,14.0325,14.0423,14.0667,14.0859,14.0862,14.1155,14.1789,14.2421,14.2518,14.2814,14.3448,14.3545,14.3594,14.3497,14.3594,14.3594,14.3594,14.3594,14.3594,14.3594,14.3545,14.3545,14.3497,14.2616,14.1835,14.1445,13.944,13.8268,13.8268,13.8219,13.8219,13.8219,13.8219,13.8219,13.8219,13.8219,13.861,13.9199,13.9346,13.9688,14.0276,14.1054,14.164,14.2079,14.2665,14.3153,14.3497,14.3983,14.4178,14.4227,14.4375,14.4326,14.3643,14.3934,14.4178,14.4275,14.4473,14.4617,14.4666,14.4666,14.4666,14.4666,14.4668,14.4861,14.4863,14.5302,14.5692,14.579,14.6277,14.6861,14.691,14.691,14.6617,14.6422,14.6275,14.6275,14.6033,14.5886,14.5692,14.5886,14.6033,14.6422,14.6519,14.6617,14.6764,14.7154,14.7398,14.7496,14.7642,14.769,14.7788,14.7935,14.7935,14.7935,13.7145,13.7926,13.8171,13.7975,13.7926,13.7926,13.8077,13.8219,13.8219,13.8366,13.8659,13.8415,13.8565,13.8415,13.861,13.8858,13.9346,13.8805,13.8464,13.8561,13.8512,13.8512,13.8561,13.9395,13.974,13.9834,14.0764,14.1203,14.1203,14.1203,14.1203,14.1301,14.135,14.135,14.135,14.135,14.135,14.135,14.135,14.135,14.135,14.135,14.135,14.1252,14.0325,13.9395,13.8464,13.8171,13.7926,13.7975,13.8024,13.8171,13.7926,13.7926,13.8073,13.7926,13.8073,13.8077,13.8219,13.8219,13.8268,13.861,13.8464,13.9147,13.9883,14.0078,14.0423,14.1301,14.2177,14.2909,14.3006,14.3543,14.3299,14.1887,14.2082,14.2665,14.2958,14.3836,14.452,14.4324,14.4229,14.4568,14.4568,14.4275,14.4178,14.418,14.4473,14.4619,14.4668,14.4959,14.4812,14.4814,14.5203,14.5496,14.5105,14.4619,14.4619,14.4619,14.4473,14.4619,14.4716,14.5252,14.5593,14.5593,14.5642,14.5789,14.613,14.6325,14.6569,14.6861,14.7301,14.7349,14.7154,14.6959,14.7252,13.3977,13.4909,13.5641,13.5983,13.5934,13.5983,13.6417,13.7141,13.7145,13.7536,13.8122,13.8219,13.8219,13.8219,13.8219,13.8073,13.7634,13.7336,13.7536,13.8171,13.8219,13.8219,13.8268,13.8561,13.8756,13.876,13.9053,13.9199,13.9199,13.9199,13.9199,13.9248,13.9199,13.9199,13.9199,13.9199,13.9245,13.9199,13.9199,13.9199,13.9199,13.9199,13.9199,13.9053,13.8219,13.7487,13.7145,13.6369,13.5983,13.5983,13.5939,13.5983,13.5983,13.5983,13.5983,13.5983,13.5983,13.632,13.6999,13.7145,13.7483,13.8122,13.8219,13.8317,13.8614,13.8756,13.8809,13.9102,13.959,14.0127,14.0566,14.0517,13.998,13.9492,13.9541,13.9782,13.9831,14.0127,14.0664,14.1396,14.1984,14.2326,14.2374,14.2374,14.2374,14.2374,14.3106,14.3543,14.369,14.4129,14.4666,14.4617,14.452,14.4422,14.4031,14.2958,14.247,14.2665,14.2618,14.3253,14.3739,14.4422,14.4764,14.4715,14.4764,14.4814,14.496,14.5107,14.5253,14.5448,14.5935,14.6373,14.6033,14.5837,14.5886,13.2177,13.2811,13.3494,13.3787,13.3787,13.3787,13.4221,13.4899,13.4899,13.5485,13.6364,13.6466,13.6661,13.7003,13.6222,13.5534,13.4948,13.5339,13.5827,13.6417,13.6857,13.7052,13.7101,13.7487,13.7634,13.7682,13.8024,13.8219,13.8219,13.8219,13.8219,13.8219,13.8219,13.8219,13.8219,13.8219,13.8219,13.8219,13.8219,13.8219,13.8268,13.8219,13.7634,13.6515,13.5783,13.529,13.4899,13.4177,13.3787,13.3787,13.3787,13.3787,13.3787,13.3787,13.3744,13.3787,13.3787,13.408,13.4753,13.4899,13.5339,13.632,13.6466,13.6657,13.7438,13.7634,13.7829,13.8171,13.8219,13.793,13.8081,13.7833,13.778,13.8122,13.8268,13.8366,13.8219,13.8219,13.8419,13.9102,13.9736,14.0179,14.0224,14.0224,14.0224,14.0276,14.1106,14.1737,14.203,14.2762,14.3302,14.3399,14.3399,14.3251,14.2616,14.1005,14.0322,14.0615,14.1054,14.164,14.203,14.2521,14.3058,14.296,14.3058,14.3155,14.3155,14.3399,14.4471,14.4666,14.4912,14.5105,14.4617,14.5105,14.4959,13.1683,13.1732,13.1732,13.183,13.183,13.1927,13.1878,13.2122,13.1976,13.2464,13.3397,13.3397,13.3885,13.4622,13.3001,13.1878,13.2025,13.2958,13.3446,13.3592,13.4373,13.4768,13.4817,13.5881,13.6457,13.6413,13.7145,13.7731,13.7926,13.7975,13.8073,13.8024,13.7833,13.7975,13.7926,13.7829,13.8024,13.7829,13.7829,13.793,13.7975,13.7829,13.6222,13.3738,13.3348,13.2909,13.2122,13.1878,13.1878,13.1878,13.1976,13.1878,13.1878,13.1878,13.1927,13.1927,13.1878,13.1927,13.2025,13.2074,13.2464,13.3245,13.3543,13.4221,13.5876,13.6071,13.6506,13.7638,13.7389,13.671,13.5348,13.5588,13.6462,13.7341,13.7682,13.7585,13.7682,13.7341,13.7926,13.8024,13.8171,13.837,13.8366,13.8219,13.8419,13.8614,13.9151,13.9785,14.0029,14.0569,14.1106,14.1203,14.1057,14.052,13.8854,13.8708,13.861,13.8805,13.9541,13.9789,14.0081,14.0374,14.0862,14.1203,14.1203,14.1252,14.1399,14.1984,14.2958,14.3446,14.3641,14.3985,14.3643,14.418,14.4082,12.9877,13.0603,13.0701,13.1049,13.1781,13.183,13.183,13.183,13.183,13.1976,13.2177,13.222,13.2415,13.2519,13.2074,13.183,13.183,13.2074,13.222,13.2269,13.2513,13.2659,13.2659,13.3001,13.3489,13.4221,13.4568,13.5056,13.5788,13.5836,13.5836,13.5836,13.5836,13.5836,13.5836,13.5788,13.5836,13.5836,13.5836,13.5836,13.5592,13.4368,13.3147,13.2366,13.222,13.2074,13.183,13.183,13.183,13.1781,13.183,13.183,13.183,13.183,13.183,13.183,13.183,13.183,13.183,13.183,13.1927,13.2171,13.222,13.2513,13.3001,13.3099,13.3288,13.3581,13.3538,13.344,13.2708,13.2903,13.3196,13.3489,13.3538,13.3538,13.3684,13.427,13.5051,13.5739,13.6417,13.7341,13.7975,13.8024,13.7926,13.8024,13.8321,13.8659,13.8711,13.8858,13.9102,13.9053,13.9053,13.876,13.8415,13.8024,13.8219,13.8317,13.8272,13.8614,13.8711,13.8854,13.9102,13.9688,13.9199,13.9199,13.959,14.0078,14.0859,14.1106,14.1594,14.2082,14.2228,14.2228,14.2228,12.7625,12.8211,12.8259,12.8601,12.9138,12.9145,12.9389,12.9822,12.9822,13.0316,13.0902,12.9724,12.9145,12.9145,12.9187,12.9389,12.9828,13.0219,13.0658,13.1189,13.1585,13.183,13.183,13.183,13.2122,13.2665,13.2665,13.3006,13.3543,13.3641,13.3641,13.3641,13.3641,13.3641,13.3641,13.3641,13.3641,13.3641,13.3641,13.3641,13.3494,13.2415,13.1585,13.1238,13.1146,13.0756,12.9926,12.978,12.9626,12.9236,12.9145,12.9187,12.9187,12.9187,12.9145,12.9187,12.9187,12.9187,12.9187,12.9187,12.934,12.9822,13.017,13.0658,13.1097,13.1537,13.0951,12.9633,12.9584,13.0024,13.0463,13.0902,13.1341,13.1732,13.183,13.1878,13.183,13.2415,13.286,13.3543,13.4221,13.4899,13.5436,13.5539,13.5734,13.6222,13.7145,13.7536,13.7634,13.7975,13.8171,13.8073,13.6954,13.6369,13.6173,13.6515,13.6808,13.6906,13.7198,13.7536,13.7634,13.7829,13.8171,13.8268,13.8366,13.8366,13.8073,13.8805,13.9102,13.9297,13.9785,14.0032,14.0078,14.0078,14.0032,12.5379,12.5379,12.5476,12.5379,12.5525,12.5476,12.6062,12.6802,12.6844,12.7925,12.9334,12.6689,12.5476,12.5379,12.5525,12.6062,12.69,12.7778,12.8755,12.9724,13.0756,13.1244,13.1195,13.1293,13.1439,13.1634,13.1634,13.1732,13.1976,13.1927,13.1878,13.183,13.183,13.1878,13.1878,13.1878,13.183,13.183,13.1585,13.1439,13.1341,13.1341,13.0805,12.9822,12.9773,12.8845,12.6998,12.6795,12.6355,12.5476,12.5476,12.5428,12.5476,12.5428,12.5428,12.5476,12.5428,12.5379,12.5428,12.5379,12.5916,12.6746,12.773,12.8608,12.9626,13.0512,12.948,12.6697,12.6404,12.7332,12.812,12.9089,12.9871,13.0554,13.0756,13.1195,13.0951,13.1341,13.1488,13.1488,13.1878,13.1878,13.2269,13.2318,13.2513,13.3494,13.4856,13.5778,13.5876,13.6462,13.6999,13.6804,13.5246,13.3543,13.3494,13.4036,13.4568,13.467,13.549,13.5778,13.5969,13.6559,13.7536,13.6413,13.7194,13.7243,13.7438,13.8024,13.7975,13.8122,13.8268,13.8321,13.8268,13.8415,13.8077,12.5379,12.5379,12.5379,12.5379,12.5379,12.5379,12.5517,12.5721,12.5721,12.6014,12.6396,12.5721,12.5379,12.5379,12.5379,12.5476,12.5721,12.5965,12.6209,12.6453,12.6697,12.7234,12.7966,12.8064,12.8943,13.0456,13.0603,13.1042,13.1732,13.183,13.183,13.1781,13.183,13.183,13.183,13.183,13.183,13.1683,13.0121,12.8852,12.8113,12.8064,12.7486,12.6551,12.6494,12.6258,12.5769,12.5761,12.5574,12.5379,12.5379,12.5379,12.5379,12.5379,12.5379,12.5379,12.5379,12.5379,12.5379,12.5379,12.5476,12.5761,12.5916,12.616,12.6453,12.6738,12.6306,12.5574,12.5525,12.5769,12.6111,12.6404,12.6502,12.6746,12.6795,12.7039,12.7039,12.8267,12.9243,12.9438,13.0756,13.1683,13.183,13.183,13.1781,13.1976,13.2513,13.2854,13.2898,13.3093,13.3245,13.3099,13.2659,13.2171,13.2171,13.2464,13.261,13.247,13.2854,13.3147,13.3239,13.3147,13.3294,13.3679,13.4075,13.4563,13.4709,13.5729,13.6701,13.6804,13.7243,13.7926,13.7829,13.7829,13.7394,12.2695,12.2702,12.2702,12.2702,12.2702,12.2702,12.3188,12.399,12.3544,12.3107,12.2784,12.3188,12.335,12.335,12.335,12.3795,12.4646,12.4695,12.4891,12.533,12.5379,12.5672,12.6209,12.6209,12.6844,12.7918,12.8015,12.8308,12.8803,12.8894,12.9138,12.9536,12.9584,12.9828,13.0268,13.0268,13.0225,13.0219,12.8169,12.6754,12.6258,12.6209,12.5916,12.5379,12.5379,12.5135,12.4695,12.4646,12.4451,12.3874,12.3825,12.3874,12.3825,12.3874,12.3874,12.3874,12.3874,12.3874,12.3874,12.3874,12.3825,12.3874,12.4313,12.4256,12.3279,12.3532,12.3874,12.3874,12.3874,12.4109,12.4598,12.4695,12.4842,12.5322,12.5379,12.5379,12.5476,12.6453,12.7088,12.7144,12.8162,12.8845,12.8845,12.8845,12.9138,13.017,13.0268,13.0805,13.1683,13.0658,12.9731,13.0268,13.0798,13.1042,13.114,13.1482,13.1781,13.183,13.183,13.183,13.183,13.183,13.1878,13.1878,13.222,13.261,13.2665,13.3684,13.4265,13.446,13.4948,13.5192,13.5295,13.5246,13.466,11.9558,11.9566,11.9566,11.9566,11.9566,11.9566,12.0536,12.1896,12.0996,12.0161,11.9606,12.0362,12.0722,12.073,12.0682,12.1694,12.3372,12.342,12.394,12.4931,12.4891,12.4988,12.5135,12.5135,12.5232,12.533,12.5379,12.5379,12.5379,12.5379,12.5818,12.6607,12.6697,12.7144,12.7974,12.8071,12.8071,12.8023,12.6306,12.5281,12.5135,12.5175,12.5127,12.4939,12.4891,12.45,12.367,12.3581,12.3044,12.1891,12.1833,12.1784,12.1638,12.1638,12.1638,12.1638,12.1638,12.1638,12.1638,12.1638,12.1638,12.1687,12.2702,12.2507,12.0555,12.1101,12.1638,12.1638,12.1833,12.2272,12.3191,12.3483,12.3914,12.4695,12.4842,12.4891,12.4793,12.5086,12.5232,12.5232,12.5232,12.5525,12.5721,12.5672,12.6404,12.7632,12.8071,12.8657,12.9633,12.8413,12.729,12.7925,12.8943,12.9431,12.9382,13.031,13.0456,13.0902,13.0609,13.0365,13.0359,13.0512,13.0707,13.1,13.1244,13.1537,13.1585,13.1634,13.2074,13.2171,13.222,13.222,13.2318,13.1585,13.1195,11.9566,11.9566,11.9566,11.9566,11.9566,11.9566,11.9734,11.9951,11.9082,0.0,0.0,11.9727,11.9807,11.9807,11.9807,12.0386,12.1421,12.1461,12.1829,12.2663,12.2663,12.3191,12.4109,12.4109,12.4549,12.533,12.5379,12.5379,12.5379,12.5379,12.5517,12.5623,12.5623,12.5761,12.5916,12.5957,12.5916,12.5916,12.5566,12.4939,12.4158,12.4109,12.363,12.2663,12.2663,12.2565,12.2419,12.237,12.1882,12.0857,12.0799,12.0409,11.9579,11.952,11.9481,11.952,11.952,11.952,11.9481,11.9481,11.9481,11.9481,12.0506,12.0594,11.9374,11.9422,11.9481,11.9481,12.0311,12.0897,12.1092,12.1882,12.2467,12.2614,12.2663,12.2663,12.2711,12.3483,12.402,12.4167,12.4744,12.533,12.5281,12.5232,12.5574,12.5867,12.6014,12.616,12.6306,12.6111,12.5769,12.5965,12.6445,12.6396,12.6306,12.6648,12.6502,12.6892,12.6746,12.6502,12.6648,12.7234,12.7722,12.8015,12.9382,13.0212,13.0554,13.0951,13.1781,13.183,13.183,13.183,13.1585,12.9682,12.8259,11.8265,11.8265,11.8265,11.8272,0.0,11.8265,11.7651,11.6658,11.6178,11.6265,11.6705,11.7193,11.7392,11.7392,11.7392,11.7822,11.8656,11.9184,11.9663,12.0061,12.1039,12.1772,12.2346,12.2747,12.3239,12.3679,12.3727,12.3727,12.3679,12.3727,12.3971,12.4549,12.4598,12.4842,12.533,12.5379,12.4793,12.3727,12.3679,12.3435,12.2955,12.2947,12.2663,12.2086,12.2077,0.0,0.0,0.0,0.0,0.0,0.0,0.0,0.0,0.0,0.0,11.7236,11.626,11.5918,11.6455,11.6504,11.6699,11.7236,11.8261,11.7571,11.4553,11.6656,11.7961,11.7663,11.8897,11.9725,11.9764,12.0213,12.0506,12.0506,12.0506,12.0506,12.0653,12.1482,12.2166,12.2263,12.3084,12.3679,12.3727,12.3727,12.3923,12.45,12.4598,12.4793,12.5184,12.4939,12.4598,12.4598,12.4988,12.533,12.5379,12.5379,12.5428,12.533,12.5379,12.5379,12.5379,12.5818,12.6111,12.6258,12.699,12.7771,12.782,12.8162,12.8552,12.8552,12.8552,12.8552,12.8455,12.7283,12.6306,11.6443,11.6443,11.6443,11.6443,11.6396,11.6256,11.5087,11.3317,11.3317,11.3317,11.3357,11.4114,11.439,11.4429,11.4618,11.5137,11.5961,11.7011,11.7568,11.7726,11.951,12.0399,12.0632,12.1229,12.1723,12.2037,12.1918,12.1918,12.2077,12.2077,12.2565,12.3483,12.3483,12.3923,12.4695,0.0,0.0,0.0,12.2077,12.2077,12.2077,12.2077,12.2077,12.2077,12.2077,0.0,12.1784,12.1784,12.1199,11.9969,11.9725,0.0,0.0,0.0,0.0,0.0,0.0,0.0,0.0,0.0,0.0,0.0,11.4339,11.3181,10.9383,11.2766,11.5039,11.4612,11.6691,11.7979,11.7863,11.8087,11.831,11.8348,11.8348,11.8407,11.8641,11.9384,12.0018,12.0213,12.1189,12.1784,12.1833,12.194,12.2467,12.3337,12.3483,12.3825,12.4598,12.3971,12.3483,12.3532,12.4069,12.4695,12.4744,12.4646,12.4508,12.4744,12.4744,12.4695,12.4646,12.4842,12.5037,12.5086,12.5232,12.5428,12.5428,12.5379,12.5623,12.5379,12.5428,12.5273,12.4842,12.4939,12.5078,11.4299,11.4299,11.4339,11.4299,11.4252,11.3324,11.2249,11.1175,11.1175,11.1175,11.1175,11.1291,11.1377,11.1462,11.2313,11.3236,11.4095,11.5145,11.6014,11.6713,11.7593,11.8524,11.952,11.956,12.0391,12.1998,12.1361,12.1401,12.2077,12.2077,12.2175,12.2321,12.2272,12.237,12.2467,12.158,12.1443,12.2077,12.2077,12.2077,12.2077,12.2077,12.2077,12.2077,12.2077,12.1638,12.0799,12.075,11.9735,11.7735,11.6797,11.5821,11.4758,11.3575,11.2111,0.0,10.9817,0.0,0.0,0.0,0.0,0.0,0.0,0.0,0.0,10.7131,10.8104,10.8262,11.218,11.4448,11.3763,11.5152,11.6065,11.6065,11.6065,11.6455,11.7295,11.7539,11.7979,11.9081,12.0067,12.075,12.075,12.154,12.2086,12.2272,12.2272,12.2321,12.2467,12.2419,12.2321,12.2321,12.2419,12.28,12.2711,12.2614,12.2614,12.2565,12.2663,12.2516,12.2614,12.3386,12.402,12.4069,12.4695,12.5232,12.533,12.5281,12.5281,12.5184,12.5184,12.4646,12.3199,12.3346,12.4012,11.3925,11.3925,11.3925,11.2569,11.0419,10.9998,10.953,10.9063,10.911,10.8782,10.8184,10.8222,10.8222,10.823,10.8736,10.9432,11.0423,11.1466,11.2459,11.3366,11.4744,11.5992,11.7082,11.7899,11.8768,11.9606,11.9772,12.0007,12.036,12.0321,12.0321,12.036,12.036,11.9872,11.8898,11.9345,11.9872,12.036,12.0906,12.1492,12.1989,12.1492,12.1238,12.1199,12.0613,12.0116,11.9715,11.9042,11.7968,11.6455,11.5344,11.4026,11.2331,11.0159,10.8535,0.0,0.0,0.0,0.0,0.0,0.0,0.0,0.0,0.0,0.0,0.0,10.4251,10.5834,10.9258,11.0956,10.9815,11.0302,11.1175,11.2292,11.15,11.1901,11.4342,11.4763,11.5466,11.6954,11.8066,11.8906,11.9579,12.0106,12.0555,12.1101,12.0662,12.0398,12.054,12.0962,12.1443,12.198,12.2077,12.2077,12.2077,12.2077,12.2077,12.2077,12.2077,12.2077,12.2126,12.2516,12.2858,12.2858,12.3239,12.3532,12.3532,12.3532,12.3532,12.3532,12.3532,12.3191,12.2272,12.2428,12.2898,11.2429,11.2335,11.14,10.9156,10.6295,10.6258,10.6258,10.6295,10.6258,10.5791,10.5089,10.5053,10.4949,10.4715,10.4715,10.5276,10.6342,10.738,10.8464,10.9756,11.1436,11.2898,11.4176,11.5335,11.6128,11.6563,11.7075,11.7548,11.7894,11.7933,11.7884,11.7846,11.7153,11.6216,11.5237,11.674,11.7863,11.8544,11.9579,12.0516,12.1336,12.0555,12.0164,12.0164,11.9374,11.8739,11.8202,11.7334,11.6124,11.4552,11.3246,11.1612,10.9483,10.6729,0.0,0.0,0.0,0.0,0.0,0.0,0.0,0.0,0.0,9.772,9.566,0.0,10.0411,0.0,10.6033,10.7479,10.6429,10.6084,0.0,0.0,10.663,10.6833,10.9792,11.0786,11.1873,11.3718,11.5077,11.6476,11.8017,11.8292,11.8566,11.8966,11.8381,11.8265,11.9139,11.9813,12.0457,12.1101,12.1287,12.1345,12.1248,12.1345,12.1248,12.1385,12.1296,12.1345,12.1345,12.1296,12.1296,12.1296,12.1296,12.1443,12.1687,12.1736,12.1638,12.1394,12.1345,12.1345,12.1345,12.1296,12.1394,10.8175,10.7848,10.4154,10.2461,10.2133,10.218,10.2133,10.2133,10.218,10.2122,10.204,10.1993,10.1478,10.059,10.0637,0.0,10.218,10.3245,10.4752,10.6576,10.7523,10.9065,11.0911,11.0987,11.1879,11.3681,11.2992,11.3413,11.4774,11.486,11.486,11.4763,11.1947,11.0931,11.1776,11.2877,11.4716,11.7295,11.8456,11.9091,11.9227,11.9129,11.9081,11.9081,11.9032,11.8006,11.6016,11.5858,11.4319,11.1343,10.9245,10.7341,10.5499,0.0,0.0,0.0,0.0,0.0,0.0,0.0,0.0,0.0,0.0,0.0,0.0,0.0,0.0,9.7915,10.1639,0.0,10.4063,10.3861,0.0,0.0,0.0,10.1844,10.3131,10.4931,10.6858,10.8621,0.0,0.0,11.5621,11.6226,11.6097,11.5102,11.4908,11.5814,11.8595,11.8965,11.9129,11.9247,11.9276,11.9188,11.9384,11.9345,11.9345,11.9422,11.9227,11.9335,11.9335,11.9286,11.9237,11.9335,11.9227,11.953,12.0506,12.0428,12.036,11.9296,11.9188,11.9188,11.9111,11.916,11.9452,10.3863,10.2051,10.0461,9.9795,9.976,9.9795,10.0134,10.073,10.0695,10.0403,9.976,9.976,9.8906,9.7316,9.7924,0.0,0.0,0.0,10.1525,10.3443,10.3767,10.5038,10.6954,10.7445,10.8125,10.8885,10.907,10.9649,11.0713,11.1389,10.9647,10.5713,0.0,0.0,10.7205,10.8693,11.0933,11.3843,11.5001,11.5907,11.6495,11.7588,11.7761,11.6992,11.6357,11.5333,11.3819,11.2502,11.0711,10.842,10.6262,10.4013,0.0,0.0,0.0,0.0,0.0,0.0,0.0,0.0,0.0,0.0,0.0,8.9843,8.9426,0.0,0.0,0.0,9.5162,9.6356,9.7678,9.8728,0.0,0.0,0.0,0.0,0.0,0.0,0.0,10.5417,10.7027,10.8885,11.1106,11.0611,11.0081,11.0272,11.1218,11.2632,11.4591,0.0,11.6206,11.7888,11.816,11.8354,11.8906,11.8509,11.8354,11.8867,11.8944,11.8944,11.8944,11.8944,11.8944,11.8944,11.8944,11.9081,11.952,11.7151,11.5346,11.6095,11.6258,11.6067,11.5646,11.6446,11.7325,9.8358,0.0,0.0,0.0,0.0,9.6348,9.6955,9.789,9.789,9.7503,9.6768,9.6768,0.0,0.0,0.0,0.0,0.0,0.0,9.8311,10.0309,10.0999,10.2133,10.3734,10.4395,10.472,10.472,10.5259,10.5832,10.6257,10.6436,10.3894,9.8892,0.0,0.0,0.0,0.0,10.7217,10.9921,11.1892,11.3269,11.3987,11.5541,11.5906,11.4897,11.4061,11.3039,11.1672,10.9603,10.7519,10.5416,10.2773,0.0,0.0,0.0,0.0,0.0,0.0,0.0,0.0,0.0,0.0,0.0,0.0,0.0,0.0,0.0,0.0,0.0,0.0,0.0,9.2743,9.4342,9.5609,0.0,0.0,0.0,0.0,0.0,0.0,0.0,0.0,0.0,10.5558,10.4854,10.4944,0.0,0.0,10.962,11.1338,11.2078,11.3172,11.5157,11.5512,0.0,11.6403,11.5896,11.5781,11.6622,11.6785,11.6823,11.6823,11.6632,11.648,11.6431,11.6431,11.6237,11.5568,11.244,11.0707,11.1932,11.2081,11.1895,11.2033,11.2968,11.4105,0.0,0.0,0.0,0.0,0.0,0.0,0.0,0.0,9.2608,9.2608,0.0,9.2561,0.0,0.0,0.0,0.0,9.1173,9.3122,0.0,0.0,9.914,10.0695,10.1666,10.1701,10.1795,10.1795,10.1819,10.1727,10.1375,9.9481,0.0,0.0,0.0,0.0,0.0,0.0,10.3907,10.5867,10.9693,11.1797,11.1855,11.2906,11.3286,11.298,11.2743,11.1538,10.9404,10.7691,10.5319,10.2122,9.8357,0.0,0.0,0.0,0.0,0.0,0.0,0.0,0.0,0.0,0.0,0.0,0.0,0.0,0.0,0.0,0.0,0.0,0.0,0.0,0.0,9.1479,0.0,0.0,0.0,0.0,0.0,0.0,0.0,0.0,0.0,0.0,9.9057,9.9771,10.1703,10.5408,0.0,0.0,0.0,0.0,11.0352,11.0532,11.0484,11.0532,11.0606,11.0484,11.0781,11.1521,0.0,0.0,11.1583,11.0955,11.0559,11.0521,11.0681,10.9851,10.7925,10.6596,10.6094,10.7123,10.6596,10.6561,10.8247,10.8652,10.9432,0.0,0.0,0.0,0.0,0.0,0.0,0.0,0.0,0.0,8.9304,0.0,8.9304,0.0,0.0,0.0,0.0,0.0,0.0,0.0,0.0,9.4057,9.56,9.6615,9.727,9.7597,0.0,9.7631,9.6516,0.0,0.0,0.0,0.0,0.0,0.0,0.0,0.0,10.068,10.3941,10.6062,10.8099,11.0031,11.0409,11.0786,11.1287,11.0851,10.9357,10.6602,10.4579,10.2194,0.0,0.0,0.0,0.0,0.0,0.0,0.0,0.0,0.0,0.0,0.0,0.0,0.0,0.0,0.0,0.0,0.0,0.0,0.0,0.0,0.0,0.0,0.0,8.8741,0.0,0.0,0.0,0.0,0.0,0.0,0.0,0.0,0.0,9.4618,9.7142,9.9584,10.0975,10.2278,10.3947,10.6224,0.0,0.0,0.0,0.0,0.0,0.0,0.0,10.8726,10.9497,10.8056,10.6966,10.7507,10.7363,10.7183,10.7147,0.0,0.0,10.2979,10.1589,10.1239,10.2139,10.1971,10.1833,10.2019,10.3032,10.4097,0.0,0.0,0.0,0.0,0.0,0.0,0.0,0.0,0.0,8.5145,8.5098,0.0,0.0,0.0,0.0,0.0,0.0,0.0,0.0,0.0,0.0,0.0,9.2921,9.3575,0.0,0.0,0.0,0.0,0.0,0.0,0.0,0.0,0.0,0.0,0.0,0.0,9.7105,10.0092,10.304,10.5754,10.809,10.8458,10.8824,10.9332,10.8682,10.7123,10.4639,0.0,0.0,0.0,0.0,0.0,0.0,0.0,0.0,0.0,0.0,0.0,0.0,0.0,0.0,0.0,0.0,0.0,0.0,0.0,0.0,0.0,0.0,0.0,0.0,0.0,8.5706,0.0,0.0,0.0,0.0,0.0,0.0,0.0,0.0,0.0,0.0,0.0,9.5832,9.7788,9.948,10.1303,10.3313,10.364,10.4279,0.0,0.0,0.0,0.0,0.0,0.0,0.0,0.0,0.0,0.0,0.0,0.0,0.0,0.0,10.2165,9.8904,9.7562,9.7265,9.8135,0.0,0.0,0.0,0.0,0.0,0.0,0.0,0.0,0.0,0.0,0.0,0.0,0.0,0.0,0.0,7.9939,0.0,0.0,8.0014,0.0,0.0,0.0,0.0,0.0,0.0,0.0,0.0,0.0,0.0,0.0,0.0,0.0,0.0,0.0,0.0,0.0,0.0,0.0,0.0,0.0,0.0,9.3201,9.4186,10.0979,10.5006,10.6118,10.71,10.7473,10.7273,10.6259,10.5058,10.3694,0.0,0.0,0.0,0.0,0.0,0.0,0.0,0.0,0.0,0.0,0.0,0.0,0.0,0.0,0.0,0.0,0.0,0.0,0.0,0.0,0.0,0.0,0.0,0.0,0.0,0.0,8.3176,8.5829,8.711,0.0,0.0,0.0,0.0,0.0,0.0,0.0,0.0,0.0,9.6037,9.7728,9.9177,10.1303,10.1619,10.1666,10.1759,10.1748,10.1748,10.1877,10.1748,10.1539,0.0,0.0,0.0,0.0,0.0,0.0,0.0,0.0,0.0,0.0,0.0,0.0,0.0,0.0,0.0,0.0,0.0,0.0,0.0,0.0,0.0,0.0,0.0,0.0,0.0,0.0,0.0,0.0,0.0,0.0,0.0,0.0,0.0,0.0,0.0,0.0,0.0,0.0,0.0,0.0,0.0,0.0,0.0,0.0,0.0,0.0,0.0,0.0,0.0,0.0,0.0,0.0,0.0,0.0,9.2137,9.3122,9.9329,10.336,10.5006,10.5333,10.5443,10.5372,10.493,10.3435,0.0,0.0,0.0,0.0,0.0,0.0,0.0,0.0,0.0,0.0,0.0,0.0,0.0,0.0,0.0,0.0,0.0,0.0,0.0,0.0,0.0,0.0,0.0,0.0,0.0,0.0,0.0,0.0,8.3147,8.3963,8.2609,0.0,0.0,0.0,0.0,0.0,0.0,0.0,0.0,0.0,0.0,9.5221,9.9889,9.9982,10.0029,10.1478,10.1058,10.0824,10.1572,10.1058,10.0602,10.0483,0.0,0.0,0.0,0.0,0.0,0.0,0.0,0.0,0.0,0.0,0.0,0.0,0.0,0.0,0.0,0.0,0.0,0.0,0.0,0.0,0.0,0.0,0.0,0.0,0.0,0.0,0.0,0.0,0.0,0.0,0.0,0.0,0.0,0.0,0.0,0.0,0.0,0.0,0.0,0.0,0.0,0.0,0.0,0.0,0.0,0.0,0.0,0.0,0.0,0.0,0.0,0.0,0.0,8.9631,9.1073,9.7615,10.204,10.3921,10.3687,10.364,10.4061,10.3124,10.1349,0.0,0.0,0.0,0.0,0.0,0.0,0.0,0.0,0.0,0.0,0.0,0.0,0.0,0.0,0.0,0.0,0.0,0.0,0.0,0.0,0.0,0.0,0.0,0.0,0.0,0.0,0.0,0.0,7.9074,7.9832,7.9307,0.0,0.0,0.0,0.0,0.0,0.0,0.0,0.0,0.0,0.0,9.2579,9.7595,9.8111,0.0,0.0,9.9608,9.9246,10.0309,9.99,9.9281,9.8486,9.7223,0.0,0.0,0.0,0.0,0.0,0.0,0.0,0.0,0.0,0.0,0.0,0.0,0.0,0.0,0.0,0.0,0.0,0.0,0.0,0.0,0.0,0.0,0.0,0.0,0.0,0.0,0.0,0.0,0.0,0.0,0.0,0.0,0.0,0.0,0.0,0.0,0.0,0.0,0.0,0.0,0.0,0.0,0.0,0.0,0.0,0.0,0.0,0.0,0.0,0.0,0.0,0.0,0.0,8.8332,9.6053,10.1058,10.2881,10.2122,10.2086,10.2964,10.1151,9.9093,0.0,0.0,0.0,0.0,0.0,0.0,0.0,0.0,0.0,0.0,0.0,0.0,0.0,0.0,0.0,0.0,0.0,0.0,0.0,0.0,0.0,0.0,0.0,0.0,0.0,0.0,0.0,0.0,0.0,0.0,0.0,0.0,0.0,0.0,0.0,0.0,0.0,0.0,0.0,0.0,0.0,9.0636,9.4846,9.6181,9.7083,0.0,9.755,9.7257,9.8171,9.8404,9.775,9.5773,0.0,0.0,0.0,0.0,0.0,0.0,0.0,0.0,0.0,0.0,0.0,0.0,0.0,0.0,0.0,0.0,0.0,0.0,0.0,0.0,0.0,0.0,0.0,0.0,0.0,0.0,0.0,0.0,0.0,0.0,0.0,0.0,0.0,0.0,0.0,0.0,0.0,0.0,0.0,0.0,0.0,0.0,0.0,0.0,0.0,0.0,0.0,0.0,0.0,0.0,0.0,0.0,0.0,0.0,8.7209,9.5689,10.0356,10.0871,10.1385,10.1432,10.0917,10.0368,0.0,0.0,0.0,0.0,0.0,0.0,0.0,0.0,0.0,0.0,0.0,0.0,0.0,0.0,0.0,0.0,0.0,0.0,0.0,0.0,0.0,0.0,0.0,0.0,0.0,0.0,0.0,6.6487,0.0,0.0,0.0,0.0,0.0,0.0,0.0,0.0,0.0,0.0,0.0,0.0,0.0,0.0,8.554,9.4241,9.4324,9.4183,0.0,0.0,9.5914,9.6194,9.6883,9.6976,0.0,0.0,0.0,0.0,0.0,0.0,0.0,0.0,0.0,0.0,0.0,0.0,0.0,0.0,0.0,0.0,0.0,0.0,0.0,0.0,0.0,0.0,0.0,0.0,0.0,0.0,0.0,0.0,0.0,0.0,0.0,0.0,0.0,0.0,0.0,0.0,0.0,0.0,0.0,0.0,0.0,0.0,0.0,0.0,0.0,0.0,0.0,0.0,0.0,0.0,0.0,0.0,0.0,0.0,8.3674,8.6305,9.1916,9.6631,9.9936,9.8952,9.8882,10.0087,9.9667,9.7144,0.0,0.0,0.0,0.0,0.0,0.0,0.0,0.0,0.0,0.0,0.0,0.0,0.0,0.0,0.0,0.0,0.0,0.0,0.0,0.0,0.0,0.0,0.0,0.0,0.0,0.0,0.0,0.0,0.0,0.0,0.0,0.0,0.0,0.0,0.0,0.0,0.0,0.0,0.0,0.0,0.0,0.0,9.1174,9.2234,0.0,0.0,0.0,9.373,9.4604,0.0,0.0,0.0,0.0,0.0,0.0,0.0,0.0,0.0,0.0,0.0,0.0,0.0,0.0,0.0,0.0,0.0,0.0,0.0,0.0,0.0,0.0,0.0,0.0,0.0,0.0,0.0,0.0,0.0,0.0,0.0,0.0,0.0,0.0,0.0,0.0,0.0,0.0,0.0,0.0,0.0,0.0,0.0,0.0,0.0,0.0,0.0,0.0,0.0,0.0,0.0,0.0,0.0,0.0,0.0,0.0,0.0,8.5383,8.752,9.2235,9.9342,9.5993,9.5797,9.9749,9.8919,9.573,0.0,0.0,0.0,0.0,0.0,0.0,0.0,0.0,0.0,0.0,0.0,0.0,0.0,0.0,0.0,0.0,0.0,0.0,0.0,0.0,0.0,0.0,0.0,0.0,0.0,0.0,0.0,0.0,0.0,0.0,0.0,0.0,0.0,0.0,0.0,0.0,0.0,0.0,0.0,0.0,0.0,8.5047,8.7177,8.9865,9.1545,0.0,0.0,9.1297,9.2606,9.246,0.0,0.0,0.0,0.0,0.0,0.0,0.0,0.0,0.0,0.0,0.0,0.0,0.0,0.0,0.0,0.0,0.0,0.0,0.0,0.0,0.0,0.0,0.0,0.0,0.0,0.0,0.0,0.0,0.0,0.0,0.0,0.0,0.0,0.0,0.0,0.0,0.0,0.0,0.0,0.0,0.0,0.0,0.0,0.0,0.0,0.0,0.0,0.0,0.0,0.0,0.0,0.0,0.0,0.0,0.0,0.0,8.552,8.9438,9.3892,9.8468,9.5584,9.5479,9.8687,9.7831,9.5586,0.0,0.0,0.0,0.0,0.0,0.0,0.0,0.0,0.0,0.0,0.0,0.0,0.0,0.0,0.0,0.0,0.0,0.0,0.0,0.0,0.0,0.0,0.0,0.0,0.0,0.0,0.0,0.0,0.0,0.0,0.0,0.0,0.0,0.0,0.0,0.0,0.0,0.0,0.0,0.0,0.0,8.1012,8.5735,8.6984,0.0,0.0,0.0,0.0,8.7304,8.9246,0.0,0.0,0.0,0.0,0.0,0.0,0.0,0.0,0.0,0.0,0.0,0.0,0.0,0.0,0.0,0.0,0.0,0.0,0.0,0.0,0.0,0.0,0.0,0.0,0.0,0.0,0.0,0.0,0.0,0.0,0.0,0.0,0.0,0.0,0.0,0.0,0.0,0.0,0.0,0.0,0.0,0.0,0.0,0.0,0.0,0.0,0.0,0.0,0.0,0.0,0.0,0.0,0.0,0.0,0.0,0.0,8.7163,8.6892,8.9709,9.5937,9.3269,9.2906,9.5437,9.6521,9.4693,0.0,0.0,0.0,0.0,0.0,0.0,0.0,0.0,0.0,0.0,0.0,0.0,0.0,0.0,0.0,0.0,0.0,0.0,0.0,0.0,0.0,0.0,0.0,0.0,0.0,0.0,0.0,0.0,0.0,0.0,0.0,0.0,0.0,0.0,0.0,0.0,0.0,0.0,0.0,0.0,7.5814,7.8958,8.1692,0.0,0.0,0.0,0.0,0.0,0.0,8.6115,8.7091,0.0,0.0,0.0,0.0,0.0,0.0,0.0,0.0,0.0,0.0,0.0,0.0,0.0,0.0,0.0,0.0,0.0,0.0,0.0,0.0,0.0,0.0,0.0,0.0,0.0,0.0,0.0,0.0,0.0,0.0,0.0,0.0,0.0,0.0,0.0,0.0,0.0,0.0,0.0,0.0,0.0,0.0,0.0,0.0,0.0,0.0,0.0,0.0,0.0,0.0,0.0,0.0,0.0,0.0,0.0,8.7983,8.3346,8.4838,9.2891,9.0741,9.0244,9.1847,9.4907,9.324,8.6519,0.0,0.0,0.0,0.0,0.0,0.0,0.0,0.0,0.0,0.0,0.0,0.0,0.0,0.0,0.0,0.0,0.0,0.0,0.0,0.0,0.0,0.0,0.0,0.0,0.0,0.0,0.0,0.0,0.0,0.0,0.0,0.0,0.0,0.0,0.0,0.0,0.0,0.0,0.0,7.4068,7.6933,0.0,0.0,0.0,0.0,0.0,0.0,0.0,0.0,8.3194,0.0,0.0,0.0,0.0,0.0,0.0,0.0,0.0,0.0,0.0,0.0,0.0,0.0,0.0,0.0,0.0,0.0,0.0,0.0,0.0,0.0,0.0,0.0,0.0,0.0,0.0,0.0,0.0,0.0,0.0,0.0,0.0,0.0,0.0,0.0,0.0,0.0,0.0,0.0,0.0,0.0,0.0,0.0,0.0,0.0,0.0,0.0,0.0,0.0,0.0,0.0,0.0,0.0,0.0,0.0,0.0,8.2536,8.5441,9.0043,9.0435,9.0357,9.0112,9.2869,9.1195,8.463,0.0,0.0,0.0,0.0,0.0,0.0,0.0,0.0,0.0,0.0,0.0,0.0,0.0,0.0,0.0,0.0,0.0,0.0,0.0,0.0,0.0,0.0,0.0,0.0,0.0,0.0,0.0,0.0,0.0,0.0,0.0,0.0,0.0,0.0,0.0,0.0,0.0,0.0,6.5311,6.8971,0.0,0.0,0.0,0.0,0.0,0.0,0.0,0.0,8.1793,0.0,0.0,0.0,0.0,0.0,0.0,0.0,0.0,0.0,0.0,0.0,0.0,0.0,0.0,0.0,0.0,0.0,0.0,0.0,0.0,0.0,0.0,0.0,0.0,0.0,0.0,0.0,0.0,0.0,0.0,0.0,0.0,0.0,0.0,0.0,0.0,0.0,0.0,0.0,0.0,0.0,0.0,0.0,0.0,0.0,0.0,0.0,0.0,0.0,0.0,0.0,0.0,0.0,0.0,0.0,0.0,0.0,0.0,8.1782,8.7046,8.7637,8.7351,8.6529,8.7863,8.5557,0.0,0.0,0.0,0.0,0.0,0.0,0.0,0.0,0.0,0.0,0.0,0.0,0.0,0.0,0.0,0.0,0.0,0.0,0.0,0.0,0.0,0.0,0.0,0.0,0.0,0.0,0.0,0.0,0.0,0.0,0.0,0.0,0.0,0.0,0.0,0.0,0.0,0.0,0.0,0.0,0.0,0.0,0.0,0.0,0.0,0.0,0.0,0.0,0.0,0.0,0.0,0.0,0.0,0.0,0.0,0.0,0.0,0.0,0.0,0.0,0.0,0.0,0.0,0.0,0.0,0.0,0.0,0.0,0.0,0.0,0.0,0.0,0.0,0.0,0.0,0.0,0.0,0.0,0.0,0.0,0.0,0.0,0.0,0.0,0.0,0.0,0.0,0.0,0.0,0.0,0.0,0.0,0.0,0.0,0.0,0.0,0.0,0.0,0.0,0.0,0.0,0.0,0.0,0.0,0.0,0.0,0.0,0.0,7.8608,8.3443,8.5162,8.4817,8.2391,8.2233,7.9658,0.0,0.0,0.0,0.0,0.0,0.0,0.0,0.0,0.0,0.0,0.0,0.0,0.0,0.0,0.0,0.0,0.0,0.0,0.0,0.0,0.0,0.0,0.0,0.0,0.0,0.0,0.0,0.0,0.0,0.0,0.0,0.0,0.0,0.0,0.0,0.0,0.0,0.0,0.0,0.0,0.0,0.0,0.0,0.0,0.0,0.0,0.0,0.0,7.4188,0.0,0.0,0.0,0.0,0.0,0.0,0.0,0.0,0.0,0.0,0.0,0.0,0.0,0.0,0.0,0.0,0.0,0.0,0.0,0.0,0.0,0.0,0.0,0.0,0.0,0.0,0.0,0.0,0.0,0.0,0.0,0.0,0.0,0.0,0.0,0.0,0.0,0.0,0.0,0.0,0.0,0.0,0.0,0.0,0.0,0.0,0.0,0.0,0.0,0.0,0.0,0.0,0.0,0.0,0.0,0.0,0.0,0.0,0.0,7.8995,7.8668,8.5223,8.5458,7.8689,7.7171,7.5749,0.0,0.0,0.0,0.0,0.0,0.0,0.0,0.0,0.0,0.0,0.0,0.0,0.0,0.0,0.0,0.0,0.0,0.0,0.0,0.0,0.0,0.0,0.0,0.0,0.0,0.0,0.0,0.0,0.0,0.0,0.0,0.0,0.0,0.0,0.0,0.0,0.0,0.0,0.0,0.0,0.0,0.0,0.0,0.0,0.0,0.0,0.0,0.0,0.0,0.0,0.0,0.0,0.0,0.0,0.0,0.0,0.0,0.0,0.0,0.0,0.0,0.0,0.0,0.0,0.0,0.0,0.0,0.0,0.0,0.0,0.0,0.0,0.0,0.0,0.0,0.0,0.0,0.0,0.0,0.0,0.0,0.0,0.0,0.0,0.0,0.0,0.0,0.0,0.0,0.0,0.0,0.0,0.0,0.0,0.0,0.0,0.0,0.0,0.0,0.0,0.0,0.0,0.0,0.0,0.0,0.0,0.0,0.0,7.242,7.5023,7.8211,7.8494,7.5596,7.3122,7.2025,0.0,0.0,0.0,0.0,0.0,0.0,0.0,0.0,0.0,0.0,0.0,0.0,0.0,0.0,0.0,0.0,0.0,0.0,0.0,0.0,0.0,0.0,0.0,0.0,0.0,0.0,0.0,0.0,0.0,0.0,0.0,0.0,0.0,0.0,0.0,0.0,0.0,0.0,0.0,0.0,0.0,0.0,0.0,0.0,0.0,0.0,0.0,0.0,0.0,0.0,0.0,0.0,0.0,0.0,0.0,0.0,0.0,0.0,0.0,0.0,0.0,0.0,0.0,0.0,0.0,0.0,0.0,0.0,0.0,0.0,0.0,0.0,0.0,0.0,0.0,0.0,0.0,0.0,0.0,0.0,0.0,0.0,0.0,0.0,0.0,0.0,0.0,0.0,0.0,0.0,0.0,0.0,0.0,0.0,0.0,0.0,0.0,0.0,0.0,0.0,0.0,0.0,0.0,0.0,0.0,0.0,0.0,0.0,0.0,7.1841,7.2608,7.3032,7.3125,7.0189,6.8851,0.0,0.0,0.0,0.0,0.0,0.0,0.0,0.0,0.0,0.0,0.0,0.0,0.0,0.0,0.0,0.0,0.0,0.0,0.0,0.0,0.0,0.0,0.0,0.0,0.0,0.0,0.0,0.0,0.0,0.0,0.0,0.0,0.0,0.0,0.0,0.0,0.0,0.0,0.0,0.0,0.0,0.0,0.0,0.0,0.0,0.0,0.0,0.0,0.0,0.0,0.0,0.0,0.0,0.0,0.0,0.0,0.0,0.0,0.0,0.0,0.0,0.0,0.0,0.0,0.0,0.0,0.0,0.0,0.0,0.0,0.0,0.0,0.0,0.0,0.0,0.0,0.0,0.0,0.0,0.0,0.0,0.0,0.0,0.0,0.0,0.0,0.0,0.0,0.0,0.0,0.0,0.0,0.0,0.0,0.0,0.0,0.0,0.0,0.0,0.0,0.0,0.0,0.0,0.0,0.0,0.0,0.0,0.0,0.0,6.9098,7.1317,7.2164,7.142,6.8869,6.6485,0.0,0.0,0.0,0.0,0.0,0.0,0.0,0.0,0.0,0.0,0.0,0.0,0.0,0.0,0.0,0.0,0.0,0.0,0.0,0.0,0.0,0.0,0.0,0.0,0.0,0.0,0.0,0.0,0.0,0.0,0.0,0.0,0.0,0.0,0.0,0.0,0.0,0.0,0.0,0.0,0.0,0.0,0.0,0.0,0.0,0.0,0.0,0.0,0.0,0.0,0.0,0.0,0.0,0.0,0.0,0.0,0.0,0.0,0.0,0.0,0.0,0.0,0.0,0.0,0.0,0.0,0.0,0.0,0.0,0.0,0.0,0.0,0.0,0.0,0.0,0.0,0.0,0.0,0.0,0.0,0.0,0.0,0.0,0.0,0.0,0.0,0.0,0.0,0.0,0.0,0.0,0.0,0.0,0.0,0.0,0.0,0.0,0.0,0.0,0.0,0.0,0.0,0.0,0.0,0.0,0.0,0.0,0.0,0.0,6.4322,6.7009,6.8715,6.8932,6.4946,6.3345,6.4356,0.0,0.0,0.0,0.0,0.0,0.0,0.0,0.0,0.0,0.0,0.0,0.0,0.0,0.0,0.0,0.0,0.0,0.0,0.0,0.0,0.0,0.0,0.0,0.0,0.0,0.0,0.0,0.0,0.0,0.0,0.0,0.0,0.0,0.0,0.0,0.0,0.0,0.0,0.0,0.0,0.0,0.0,0.0,0.0,0.0,0.0,0.0,0.0,0.0,0.0,0.0,0.0,0.0,0.0,0.0,0.0,0.0,0.0,0.0,0.0,0.0,0.0,0.0,0.0,0.0,0.0,0.0,0.0,0.0,0.0,0.0,0.0,0.0,0.0,0.0,0.0,0.0,0.0,0.0,0.0,0.0,0.0,0.0,0.0,0.0,0.0,0.0,0.0,0.0,0.0,0.0,0.0,0.0,0.0,0.0,0.0,0.0,0.0,0.0,0.0,0.0,0.0,0.0,0.0,0.0,0.0,0.0,0.0,6.2091,6.5575,6.7072,6.6237,6.3209,6.1806,0.0,0.0,0.0,0.0,0.0,0.0,0.0,0.0,0.0,0.0,0.0,0.0,0.0,0.0,0.0,0.0,0.0,0.0,0.0,0.0,0.0,0.0,0.0,0.0,0.0,0.0,0.0,0.0,0.0,0.0,0.0,0.0,0.0,0.0,0.0,0.0,0.0,0.0,0.0,0.0,0.0,0.0,0.0,0.0,0.0,0.0,0.0,0.0,0.0,0.0,0.0,0.0,0.0,0.0,0.0,0.0,0.0,0.0,0.0,0.0,0.0,0.0,0.0,0.0,0.0,0.0,0.0,0.0,0.0,0.0,0.0,0.0,0.0,0.0,0.0,0.0,0.0,0.0,0.0,0.0,0.0,0.0,0.0,0.0,0.0,0.0,0.0,0.0,0.0,0.0,0.0,0.0,0.0,0.0,0.0,0.0,0.0,0.0,0.0,0.0,0.0,0.0,0.0,0.0,0.0,0.0,0.0,0.0,5.8697,6.3525,6.753,6.7571,6.3989,6.4271,6.2054,0.0,0.0,0.0,0.0,0.0,0.0,0.0,0.0,0.0,0.0,0.0,0.0,0.0,0.0,0.0,0.0,0.0,0.0,0.0,0.0,0.0,0.0,0.0,0.0,0.0,0.0,0.0,0.0,0.0,0.0,0.0,0.0,0.0,0.0,0.0,0.0,0.0,0.0,0.0,0.0,0.0,0.0,0.0,0.0,0.0,0.0,0.0,0.0,0.0,0.0,0.0,0.0,0.0,0.0,0.0,0.0,0.0,0.0,0.0,0.0,0.0,0.0,0.0,0.0,0.0,0.0,0.0,0.0,0.0,0.0,0.0,0.0,0.0,0.0,0.0,0.0,0.0,0.0,0.0,0.0,0.0,0.0,0.0,0.0,0.0,0.0,0.0,0.0,0.0,0.0,0.0,0.0,0.0,0.0,0.0,0.0,0.0,0.0,0.0,0.0,0.0,0.0,0.0,0.0,0.0,0.0,0.0,0.0,0.0,5.862,0.0,6.2295,0.0,6.0675,5.931,0.0,0.0,0.0,0.0,0.0,0.0,0.0,0.0,0.0,0.0,0.0,0.0,0.0,0.0,0.0,0.0,0.0,0.0,0.0,0.0,0.0,0.0,0.0,0.0,0.0,0.0,0.0,0.0,0.0,0.0,0.0,0.0,0.0,0.0,0.0,0.0,0.0,0.0,0.0,0.0,0.0,0.0,0.0,0.0,0.0,0.0,0.0,0.0,0.0,0.0,0.0,0.0,0.0,0.0,0.0,0.0,0.0,0.0,0.0,0.0,0.0,0.0,0.0,0.0,0.0,0.0,0.0,0.0,0.0,0.0,0.0,0.0,0.0,0.0,0.0,0.0,0.0,0.0,0.0,0.0,0.0,0.0,0.0,0.0,0.0,0.0,0.0,0.0,0.0,0.0,0.0,0.0,0.0,0.0,0.0,0.0,0.0,0.0,0.0,0.0,0.0,0.0,0.0,0.0,0.0,0.0,0.0,0.0,0.0,5.6174,5.7252,5.8315,5.9312,5.8229,5.7496,0.0,0.0,0.0,0.0,0.0,0.0,0.0,0.0,0.0,0.0,0.0,0.0,0.0,0.0,0.0,0.0,0.0,0.0,0.0,0.0,0.0,0.0,0.0,0.0,0.0,0.0,0.0,0.0,0.0,0.0,0.0,0.0,0.0,0.0,0.0,0.0,0.0,0.0,0.0,0.0,0.0,0.0,0.0,0.0,0.0,0.0,0.0,0.0,0.0,0.0,0.0,0.0,0.0,0.0,0.0,0.0,0.0,0.0,0.0,0.0,0.0,0.0,0.0,0.0,0.0,0.0,0.0,0.0,0.0,0.0,0.0,0.0,0.0,0.0,0.0,0.0,0.0,0.0,0.0,0.0,0.0,0.0,0.0,0.0,0.0,0.0,0.0,0.0,0.0,0.0,0.0,0.0,0.0,0.0,0.0,0.0,0.0,0.0,0.0,0.0,0.0,0.0,0.0,0.0,0.0,0.0,0.0,0.0,0.0,0.0,5.6201,5.6238,5.625,5.6986,5.6736,0.0,0.0,0.0,0.0,0.0,0.0,0.0,0.0,0.0,0.0,0.0,0.0,0.0,0.0,0.0,0.0,0.0,0.0,0.0,0.0,0.0,0.0,0.0,0.0,0.0,0.0,0.0,0.0,0.0,0.0,0.0,0.0,0.0,0.0,0.0,0.0,0.0,0.0,0.0,0.0,0.0,0.0,0.0,0.0,0.0,0.0,0.0,0.0,0.0,0.0,0.0,0.0,0.0,0.0,0.0,0.0,0.0,0.0,0.0,0.0,0.0,0.0,0.0,0.0,0.0,0.0,0.0,0.0,0.0,0.0,0.0,0.0,0.0,0.0,0.0,0.0,0.0,0.0,0.0,0.0,0.0,0.0,0.0,0.0,0.0,0.0,0.0,0.0,0.0,0.0,0.0,0.0,0.0,0.0,0.0,0.0,0.0,0.0,0.0,0.0,0.0,0.0,0.0,0.0,0.0,0.0,0.0,0.0,0.0,0.0,5.5897,0.0,5.6201,5.6428,5.6314,5.5859,0.0,0.0,0.0,0.0,0.0,0.0,0.0,0.0,0.0,0.0,0.0,0.0,0.0,0.0,0.0,0.0,0.0,0.0,0.0,0.0,0.0,0.0,0.0,0.0,0.0,0.0,0.0,0.0,0.0,0.0,0.0,0.0,0.0,0.0,0.0,0.0,0.0,0.0,0.0,0.0,0.0,0.0,0.0,0.0,0.0,0.0,0.0,0.0,0.0,0.0,0.0,0.0,0.0,0.0,0.0,0.0,0.0,0.0,0.0,0.0,0.0,0.0,0.0,0.0,0.0,0.0,0.0,0.0,0.0,0.0,0.0,0.0,0.0,0.0,0.0,0.0,0.0,0.0,0.0,0.0,0.0,0.0,0.0,0.0,0.0,0.0,0.0,0.0,0.0,0.0,0.0,0.0,0.0,0.0,0.0,0.0,0.0,0.0,0.0,0.0,0.0,0.0,0.0,0.0,0.0,0.0,0.0,0.0,0.0,0.0,0.0,5.5734,5.5707,5.5707,0.0,0.0,0.0,0.0,0.0,0.0,0.0,0.0,0.0,0.0,0.0,0.0,0.0,0.0,0.0,0.0,0.0,0.0,0.0,0.0,0.0,0.0,0.0,0.0,0.0,0.0,0.0,0.0,0.0,0.0,0.0,0.0,0.0,0.0,0.0,0.0,0.0,0.0,0.0,0.0,0.0,0.0,0.0,0.0,0.0,0.0,0.0,0.0,0.0,0.0,0.0,0.0,0.0,0.0,0.0,0.0,0.0,0.0,0.0,0.0,0.0,0.0,0.0,0.0,0.0,0.0,0.0,0.0,0.0,0.0,0.0,0.0,0.0,0.0,0.0,0.0,0.0,0.0,0.0,0.0,0.0,0.0,0.0,0.0,0.0,0.0,0.0,0.0,0.0,0.0,0.0,0.0,0.0,0.0,0.0,0.0,0.0,0.0,0.0,0.0,0.0,0.0,0.0,0.0,0.0,0.0,0.0,0.0,0.0,0.0,0.0,5.5012,5.5012,5.5012,0.0,5.5012,0.0,0.0,0.0,0.0,0.0,0.0,0.0,0.0,0.0,0.0,0.0,0.0,0.0,0.0,0.0,0.0,0.0,0.0,0.0,0.0,0.0,0.0,0.0,0.0,0.0,0.0,0.0,0.0,0.0,0.0,0.0,0.0,0.0,0.0,0.0,0.0,0.0,0.0,0.0,0.0,0.0,0.0,0.0,0.0,0.0,0.0,0.0,0.0,0.0,0.0,0.0,0.0,0.0,0.0,0.0,0.0,0.0,0.0,0.0,0.0,0.0,0.0,0.0,0.0,0.0,0.0,0.0,0.0,0.0,0.0,0.0,0.0,0.0,0.0,0.0,0.0,0.0,0.0,0.0,0.0,0.0,0.0,0.0,0.0,0.0,0.0,0.0,0.0,0.0,0.0,0.0,0.0,0.0,0.0,0.0,0.0,0.0,0.0,0.0,0.0,0.0,0.0,0.0,0.0,0.0,0.0,0.0,0.0,0.0,0.0,0.0,0.0,5.5012,5.5012,5.5012,0.0,0.0,0.0,0.0,0.0,0.0,0.0,0.0,0.0,0.0,0.0,0.0,0.0,0.0,0.0,0.0,0.0,0.0,0.0,0.0,0.0,0.0,0.0,0.0,0.0,0.0,0.0,0.0,0.0,0.0,0.0,0.0,0.0,0.0,0.0,0.0,0.0,0.0,0.0,0.0,0.0,0.0,0.0,0.0,0.0,0.0,0.0,0.0,0.0,0.0,0.0,0.0,0.0,0.0,0.0,0.0,0.0,0.0,0.0,0.0,0.0,0.0,0.0,0.0,0.0,0.0,0.0,0.0,0.0,0.0,0.0,0.0,0.0,0.0,0.0,0.0,0.0,0.0,0.0,0.0,0.0,0.0,0.0,0.0,0.0,0.0,0.0,0.0,0.0,0.0,0.0,0.0,0.0,0.0,0.0,0.0,0.0,0.0,0.0,0.0,0.0,0.0,0.0,0.0,0.0,0.0,0.0,0.0,0.0,0.0,5.5012,5.5012,5.5012,5.5012,5.5012,0.0,0.0,0.0,0.0,0.0,0.0,0.0,0.0,0.0,0.0,0.0,0.0,0.0,0.0,0.0,0.0,0.0,0.0,0.0,0.0,0.0,0.0,0.0,0.0,0.0,0.0,0.0,0.0,0.0,0.0,0.0,0.0,0.0,0.0,0.0,0.0,0.0,0.0,0.0,0.0,0.0,0.0,0.0,0.0,0.0,0.0,0.0,0.0,0.0,0.0,0.0,0.0,0.0,0.0,0.0,0.0,0.0,0.0,0.0,0.0,0.0,0.0,0.0,0.0,0.0,0.0,0.0,0.0,0.0,0.0,0.0,0.0,0.0,0.0,0.0,0.0,0.0,0.0,0.0,0.0,0.0,0.0,0.0,0.0,0.0,0.0,0.0,0.0,0.0,0.0,0.0,0.0,0.0,0.0,0.0,0.0,0.0,0.0,0.0,0.0,0.0,0.0,0.0,0.0,0.0,0.0,0.0,0.0,0.0,0.0,0.0,0.0,0.0,0.0,5.5012,0.0,0.0,0.0,0.0,0.0,0.0,0.0,0.0,0.0,0.0,0.0,0.0,0.0,0.0,0.0,0.0,0.0,0.0,0.0,0.0,0.0,0.0,0.0,0.0,0.0,0.0,0.0,0.0,0.0,0.0,0.0,0.0,0.0,0.0,0.0,0.0,0.0,0.0,0.0,0.0,0.0,0.0,0.0,0.0,0.0,0.0,0.0,0.0,0.0,0.0,0.0,0.0,0.0,0.0,0.0,0.0,0.0,0.0,0.0,0.0,0.0,0.0,0.0,0.0,0.0,0.0,0.0,0.0,0.0,0.0,0.0,0.0,0.0,0.0,0.0,0.0,0.0,0.0,0.0,0.0,0.0,0.0,0.0,0.0,0.0,0.0,0.0,0.0,0.0,0.0,0.0,0.0,0.0,0.0,0.0,0.0,0.0,0.0,0.0,0.0,0.0,0.0,0.0,0.0,0.0,0.0,0.0,0.0,0.0,0.0,0.0,0.0,0.0,0.0,0.0,0.0,0.0,0.0,0.0,0.0,0.0,0.0,0.0,0.0,0.0,0.0,0.0,0.0,0.0,0.0,0.0,0.0,0.0,0.0,0.0,0.0,0.0,0.0,0.0,0.0,0.0,0.0,0.0,0.0,0.0,0.0,0.0,0.0,0.0,0.0,0.0,0.0,0.0,0.0,0.0,0.0,0.0,0.0,0.0,0.0,0.0,0.0,0.0,0.0,0.0,0.0,0.0,0.0,0.0,0.0,0.0,0.0,0.0,0.0,0.0,0.0,0.0,0.0,0.0,0.0,0.0,0.0,0.0,0.0,0.0,0.0,0.0,0.0,0.0,0.0,0.0,0.0,0.0,0.0,0.0,0.0,0.0,0.0,0.0,0.0,0.0,0.0,0.0,0.0,0.0,0.0,0.0,0.0,0.0,0.0,0.0,0.0,0.0,0.0,0.0,0.0,0.0,0.0,0.0,0.0,0.0,0.0,0.0,0.0,0.0,0.0,0.0,0.0,0.0,0.0,0.0,0.0,0.0,0.0,0.0,0.0,0.0,0.0,0.0,0.0,0.0,0.0,0.0,0.0,0.0,0.0,0.0,0.0,0.0,0.0,0.0,0.0,0.0,0.0,0.0,0.0,0.0,0.0,0.0,0.0,0.0,0.0,0.0,0.0,0.0,0.0,0.0,0.0,0.0,0.0,0.0,0.0,0.0,0.0,0.0,0.0,0.0,0.0,0.0,0.0,0.0,0.0,0.0,0.0,0.0,0.0,0.0,0.0,0.0,0.0,0.0,0.0,0.0,0.0,0.0,0.0,0.0,0.0,0.0,0.0,0.0,0.0,0.0,0.0,0.0,0.0,0.0,0.0,0.0,0.0,0.0,0.0,0.0,0.0,0.0,0.0,0.0,0.0,0.0,0.0,0.0,0.0,0.0,0.0,0.0,0.0,0.0,0.0,0.0,0.0,0.0,0.0,0.0,0.0,0.0,0.0,0.0,0.0,0.0,0.0,0.0,0.0,0.0,0.0,0.0,0.0,0.0,0.0,0.0,0.0,0.0,0.0,0.0,0.0,0.0,0.0,0.0,0.0,0.0,0.0,0.0,0.0,0.0,0.0,0.0,0.0,0.0,0.0,0.0,0.0,0.0,0.0,0.0,0.0,0.0,0.0,0.0,0.0,0.0,0.0,0.0,0.0,0.0,0.0,0.0,0.0,0.0,0.0,0.0,0.0,0.0,0.0,0.0,0.0,0.0,0.0,0.0,0.0,0.0,0.0,0.0,0.0,0.0,0.0,0.0,0.0,0.0,0.0,0.0,0.0,0.0,0.0,0.0,0.0,0.0,0.0,0.0,0.0,0.0,0.0,0.0,0.0,0.0,0.0,0.0,0.0,0.0,0.0,0.0,0.0,0.0,0.0,0.0,0.0,0.0,0.0,0.0,0.0,0.0,0.0,0.0,0.0,0.0,0.0,0.0,0.0,0.0,0.0,0.0,0.0,0.0,0.0,0.0,0.0,0.0,0.0,0.0,0.0,0.0,0.0,0.0,0.0,0.0,0.0,0.0,0.0,0.0,0.0,0.0,0.0,0.0,0.0,0.0,0.0,0.0,0.0,0.0,0.0,0.0,0.0,0.0,0.0,0.0,0.0,0.0,0.0,0.0,0.0,0.0,0.0,0.0,0.0,0.0,0.0,0.0,0.0,0.0,0.0,0.0,0.0,0.0,0.0,0.0,0.0,0.0,0.0,0.0,0.0,0.0,0.0,0.0,0.0,0.0,0.0,0.0,0.0,0.0,0.0,0.0,0.0,0.0,0.0,0.0,0.0,0.0,0.0,0.0,0.0,0.0,0.0,0.0,0.0,0.0,0.0,0.0,0.0,0.0,0.0,0.0,0.0,0.0,0.0,0.0,0.0,0.0,0.0,0.0,0.0,0.0,0.0,0.0,0.0,0.0,0.0,0.0,0.0,0.0,0.0,0.0,0.0,0.0,0.0,0.0,0.0,0.0,0.0,0.0,0.0,0.0,0.0,0.0,0.0,0.0,0.0,0.0,0.0,0.0,0.0,0.0,0.0,0.0,0.0,0.0,0.0,0.0,0.0,0.0,0.0,0.0,0.0,0.0,0.0,0.0,0.0,0.0,0.0,0.0,0.0,0.0,0.0,0.0,0.0,0.0,0.0,0.0,0.0,0.0,0.0,0.0,0.0,0.0,0.0,0.0,0.0,0.0,0.0,0.0,0.0,0.0,0.0,0.0,0.0,0.0,0.0,0.0,0.0,0.0,0.0,0.0,0.0,0.0,0.0,0.0,0.0,0.0,0.0,0.0,0.0,0.0,0.0,0.0,0.0,0.0,0.0,0.0,0.0,0.0,0.0,0.0,0.0,0.0,0.0,0.0,0.0,0.0,0.0,0.0,0.0,0.0,0.0,0.0,0.0,0.0,0.0,0.0,0.0,0.0,0.0,0.0,0.0,0.0,0.0,0.0,0.0,0.0,0.0,0.0,0.0,0.0,0.0,0.0,0.0,0.0,0.0,0.0,0.0,0.0,0.0,0.0,0.0,0.0,0.0,0.0,0.0,0.0,0.0,0.0,0.0,0.0,0.0,0.0,0.0,0.0,0.0,0.0,0.0,0.0,0.0,0.0,0.0,0.0,0.0,0.0,0.0,0.0,0.0,0.0,0.0,0.0,0.0,0.0,0.0,0.0,0.0,0.0,0.0,0.0,0.0,0.0,0.0,0.0,0.0,0.0,0.0,0.0,0.0,0.0,0.0,0.0,0.0,0.0,0.0,0.0,0.0,0.0,0.0,0.0,0.0,0.0,0.0,0.0,0.0,0.0,0.0,0.0,0.0,0.0,0.0,0.0,0.0,0.0,0.0,0.0,0.0,0.0,0.0,0.0,0.0,0.0,0.0,0.0,0.0,0.0,0.0,0.0,0.0,0.0,0.0,0.0,0.0,0.0,0.0,0.0,0.0,0.0,0.0,0.0,0.0,0.0,0.0,0.0,0.0,0.0,0.0,0.0,0.0,0.0,0.0,0.0,0.0,0.0,0.0,0.0,0.0,0.0,0.0,0.0,0.0,0.0,0.0,0.0,0.0,0.0,0.0,0.0,0.0,0.0,0.0,0.0,0.0,0.0,0.0,0.0,0.0,0.0,0.0,0.0,0.0,0.0,0.0,0.0,0.0,0.0,0.0,0.0,0.0,0.0,0.0,0.0,0.0,0.0,0.0,0.0,0.0,0.0,0.0,0.0,0.0,0.0,0.0,0.0,0.0,0.0,0.0,0.0,0.0,0.0,0.0,0.0,0.0,0.0,0.0,0.0,0.0,0.0,0.0,0.0,0.0,0.0,0.0,0.0,0.0,0.0,0.0,0.0,0.0,0.0,0.0,0.0,0.0,0.0,0.0,0.0,0.0,0.0,0.0,0.0,0.0,0.0,0.0,0.0,0.0,0.0,0.0,0.0,0.0,0.0,0.0,0.0,0.0,0.0,0.0,0.0,0.0,0.0,0.0,0.0,0.0,0.0,0.0,0.0,0.0,0.0,0.0,0.0,0.0,0.0,0.0,0.0,0.0,0.0,0.0,0.0,0.0,0.0,0.0,0.0,0.0,0.0,0.0,0.0,0.0,0.0,0.0,0.0,0.0,0.0,0.0,0.0,0.0,0.0,0.0,0.0,0.0,0.0,0.0,0.0,0.0,0.0,0.0,0.0,0.0,0.0,0.0,0.0,0.0,0.0,0.0,0.0,0.0,0.0,0.0,0.0,0.0,0.0,0.0,0.0,0.0,0.0,0.0,0.0,0.0,0.0,0.0,0.0,0.0,0.0,0.0,0.0,0.0,0.0,0.0,0.0,0.0,0.0,0.0,0.0,0.0]}]]]